<?xml version="1.0" encoding="UTF-8" standalone="no" ?>
<gpx xmlns="http://www.topografix.com/GPX/1/1" xmlns:xsi="http://www.w3.org/2001/XMLSchema-instance" xsi:schemaLocation="http://www.topografix.com/GPX/1/1 http://www.topografix.com/GPX/1/1/gpx.xsd" version="1.1" creator="VisuGPX - https://www.visugpx.com">
  <metadata>
    <name>HRP - PEDESTRE - Espagne/65 - Des lacs d'Arriel au gave d'Arratille point côté 2028</name>
    <desc><![CDATA[Notre troisième étape]]></desc>
  </metadata>
  <trk>
    <name><![CDATA[ACTIVE LOG 008]]></name>
    <trkseg>
      <trkpt lat="42.83334" lon="-0.31534">
        <ele>2172.236328125</ele>
        <time>2015-09-08T06:18:04Z</time>
      </trkpt>
      <trkpt lat="42.83334" lon="-0.31535">
        <ele>2172.236328125</ele>
        <time>2015-09-08T06:18:05Z</time>
      </trkpt>
      <trkpt lat="42.83334" lon="-0.31535">
        <ele>2172.236328125</ele>
        <time>2015-09-08T06:18:06Z</time>
      </trkpt>
      <trkpt lat="42.83335" lon="-0.31535">
        <ele>2176.5622558594</ele>
        <time>2015-09-08T06:18:18Z</time>
      </trkpt>
      <trkpt lat="42.83335" lon="-0.31535">
        <ele>2175.6008300781</ele>
        <time>2015-09-08T06:18:19Z</time>
      </trkpt>
      <trkpt lat="42.83335" lon="-0.31535">
        <ele>2177.5234375</ele>
        <time>2015-09-08T06:18:22Z</time>
      </trkpt>
      <trkpt lat="42.83335" lon="-0.31534">
        <ele>2181.3686523438</ele>
        <time>2015-09-08T06:18:28Z</time>
      </trkpt>
      <trkpt lat="42.83335" lon="-0.31534">
        <ele>2182.810546875</ele>
        <time>2015-09-08T06:18:30Z</time>
      </trkpt>
      <trkpt lat="42.83334" lon="-0.31534">
        <ele>2184.2526855469</ele>
        <time>2015-09-08T06:18:37Z</time>
      </trkpt>
      <trkpt lat="42.83331" lon="-0.31535">
        <ele>2187.6171875</ele>
        <time>2015-09-08T06:18:51Z</time>
      </trkpt>
      <trkpt lat="42.8334" lon="-0.31539">
        <ele>2188.5788574219</ele>
        <time>2015-09-08T06:19:41Z</time>
      </trkpt>
      <trkpt lat="42.83331" lon="-0.31538">
        <ele>2188.0981445312</ele>
        <time>2015-09-08T06:20:03Z</time>
      </trkpt>
      <trkpt lat="42.83335" lon="-0.31537">
        <ele>2189.0593261719</ele>
        <time>2015-09-08T06:20:24Z</time>
      </trkpt>
      <trkpt lat="42.83337" lon="-0.31535">
        <ele>2187.6171875</ele>
        <time>2015-09-08T06:20:51Z</time>
      </trkpt>
      <trkpt lat="42.83337" lon="-0.3153">
        <ele>2188.0981445312</ele>
        <time>2015-09-08T06:21:09Z</time>
      </trkpt>
      <trkpt lat="42.83343" lon="-0.31522">
        <ele>2187.1364746094</ele>
        <time>2015-09-08T06:21:22Z</time>
      </trkpt>
      <trkpt lat="42.83344" lon="-0.3152">
        <ele>2187.6171875</ele>
        <time>2015-09-08T06:21:24Z</time>
      </trkpt>
      <trkpt lat="42.8335" lon="-0.31507">
        <ele>2186.6557617188</ele>
        <time>2015-09-08T06:21:35Z</time>
      </trkpt>
      <trkpt lat="42.83356" lon="-0.31487">
        <ele>2187.1364746094</ele>
        <time>2015-09-08T06:21:52Z</time>
      </trkpt>
      <trkpt lat="42.83357" lon="-0.31482">
        <ele>2187.1364746094</ele>
        <time>2015-09-08T06:22:08Z</time>
      </trkpt>
      <trkpt lat="42.83356" lon="-0.31493">
        <ele>2188.0981445312</ele>
        <time>2015-09-08T06:22:21Z</time>
      </trkpt>
      <trkpt lat="42.83347" lon="-0.31505">
        <ele>2189.0593261719</ele>
        <time>2015-09-08T06:22:36Z</time>
      </trkpt>
      <trkpt lat="42.83346" lon="-0.31506">
        <ele>2188.5788574219</ele>
        <time>2015-09-08T06:22:37Z</time>
      </trkpt>
      <trkpt lat="42.83323" lon="-0.31518">
        <ele>2187.6171875</ele>
        <time>2015-09-08T06:22:59Z</time>
      </trkpt>
      <trkpt lat="42.83304" lon="-0.31514">
        <ele>2188.5788574219</ele>
        <time>2015-09-08T06:23:17Z</time>
      </trkpt>
      <trkpt lat="42.83302" lon="-0.31513">
        <ele>2188.5788574219</ele>
        <time>2015-09-08T06:23:19Z</time>
      </trkpt>
      <trkpt lat="42.83281" lon="-0.31517">
        <ele>2188.5788574219</ele>
        <time>2015-09-08T06:23:37Z</time>
      </trkpt>
      <trkpt lat="42.83264" lon="-0.3152">
        <ele>2187.6171875</ele>
        <time>2015-09-08T06:23:53Z</time>
      </trkpt>
      <trkpt lat="42.83262" lon="-0.31521">
        <ele>2187.1364746094</ele>
        <time>2015-09-08T06:23:56Z</time>
      </trkpt>
      <trkpt lat="42.83249" lon="-0.31529">
        <ele>2186.1752929688</ele>
        <time>2015-09-08T06:24:13Z</time>
      </trkpt>
      <trkpt lat="42.83239" lon="-0.31539">
        <ele>2185.2138671875</ele>
        <time>2015-09-08T06:24:26Z</time>
      </trkpt>
      <trkpt lat="42.83233" lon="-0.31551">
        <ele>2182.330078125</ele>
        <time>2015-09-08T06:24:41Z</time>
      </trkpt>
      <trkpt lat="42.83224" lon="-0.31554">
        <ele>2180.8881835938</ele>
        <time>2015-09-08T06:24:53Z</time>
      </trkpt>
      <trkpt lat="42.83213" lon="-0.31557">
        <ele>2178.0041503906</ele>
        <time>2015-09-08T06:25:07Z</time>
      </trkpt>
      <trkpt lat="42.83201" lon="-0.31557">
        <ele>2176.5622558594</ele>
        <time>2015-09-08T06:25:24Z</time>
      </trkpt>
      <trkpt lat="42.83196" lon="-0.31556">
        <ele>2175.1201171875</ele>
        <time>2015-09-08T06:25:53Z</time>
      </trkpt>
      <trkpt lat="42.83187" lon="-0.31544">
        <ele>2173.6782226562</ele>
        <time>2015-09-08T06:26:09Z</time>
      </trkpt>
      <trkpt lat="42.8318" lon="-0.31546">
        <ele>2173.6782226562</ele>
        <time>2015-09-08T06:26:19Z</time>
      </trkpt>
      <trkpt lat="42.83177" lon="-0.31553">
        <ele>2174.1589355469</ele>
        <time>2015-09-08T06:26:33Z</time>
      </trkpt>
      <trkpt lat="42.83175" lon="-0.3156">
        <ele>2173.6782226562</ele>
        <time>2015-09-08T06:26:52Z</time>
      </trkpt>
      <trkpt lat="42.8317" lon="-0.31572">
        <ele>2173.6782226562</ele>
        <time>2015-09-08T06:27:05Z</time>
      </trkpt>
      <trkpt lat="42.83164" lon="-0.31577">
        <ele>2173.6782226562</ele>
        <time>2015-09-08T06:27:15Z</time>
      </trkpt>
      <trkpt lat="42.83152" lon="-0.31586">
        <ele>2173.1977539062</ele>
        <time>2015-09-08T06:27:31Z</time>
      </trkpt>
      <trkpt lat="42.83144" lon="-0.31592">
        <ele>2173.6782226562</ele>
        <time>2015-09-08T06:27:42Z</time>
      </trkpt>
      <trkpt lat="42.83136" lon="-0.31596">
        <ele>2172.7170410156</ele>
        <time>2015-09-08T06:27:53Z</time>
      </trkpt>
      <trkpt lat="42.83133" lon="-0.31599">
        <ele>2172.7170410156</ele>
        <time>2015-09-08T06:27:57Z</time>
      </trkpt>
      <trkpt lat="42.83125" lon="-0.31608">
        <ele>2174.1589355469</ele>
        <time>2015-09-08T06:28:08Z</time>
      </trkpt>
      <trkpt lat="42.83124" lon="-0.31622">
        <ele>2174.6396484375</ele>
        <time>2015-09-08T06:28:21Z</time>
      </trkpt>
      <trkpt lat="42.8312" lon="-0.31635">
        <ele>2175.6008300781</ele>
        <time>2015-09-08T06:28:34Z</time>
      </trkpt>
      <trkpt lat="42.83113" lon="-0.31649">
        <ele>2176.5622558594</ele>
        <time>2015-09-08T06:29:00Z</time>
      </trkpt>
      <trkpt lat="42.83106" lon="-0.3166">
        <ele>2174.6396484375</ele>
        <time>2015-09-08T06:29:29Z</time>
      </trkpt>
      <trkpt lat="42.83101" lon="-0.31671">
        <ele>2174.6396484375</ele>
        <time>2015-09-08T06:29:41Z</time>
      </trkpt>
      <trkpt lat="42.83096" lon="-0.31681">
        <ele>2173.6782226562</ele>
        <time>2015-09-08T06:29:53Z</time>
      </trkpt>
      <trkpt lat="42.83091" lon="-0.31693">
        <ele>2173.6782226562</ele>
        <time>2015-09-08T06:30:06Z</time>
      </trkpt>
      <trkpt lat="42.83088" lon="-0.31701">
        <ele>2173.1977539062</ele>
        <time>2015-09-08T06:30:27Z</time>
      </trkpt>
      <trkpt lat="42.83081" lon="-0.31712">
        <ele>2173.1977539062</ele>
        <time>2015-09-08T06:30:39Z</time>
      </trkpt>
      <trkpt lat="42.83075" lon="-0.31725">
        <ele>2173.6782226562</ele>
        <time>2015-09-08T06:30:51Z</time>
      </trkpt>
      <trkpt lat="42.83068" lon="-0.31739">
        <ele>2174.6396484375</ele>
        <time>2015-09-08T06:31:06Z</time>
      </trkpt>
      <trkpt lat="42.83059" lon="-0.31744">
        <ele>2173.6782226562</ele>
        <time>2015-09-08T06:31:16Z</time>
      </trkpt>
      <trkpt lat="42.83055" lon="-0.31749">
        <ele>2172.7170410156</ele>
        <time>2015-09-08T06:31:27Z</time>
      </trkpt>
      <trkpt lat="42.83046" lon="-0.31756">
        <ele>2173.1977539062</ele>
        <time>2015-09-08T06:31:39Z</time>
      </trkpt>
      <trkpt lat="42.83042" lon="-0.31768">
        <ele>2172.236328125</ele>
        <time>2015-09-08T06:31:51Z</time>
      </trkpt>
      <trkpt lat="42.83037" lon="-0.3178">
        <ele>2172.236328125</ele>
        <time>2015-09-08T06:32:03Z</time>
      </trkpt>
      <trkpt lat="42.83033" lon="-0.3179">
        <ele>2171.7553710938</ele>
        <time>2015-09-08T06:32:13Z</time>
      </trkpt>
      <trkpt lat="42.83025" lon="-0.31807">
        <ele>2171.7553710938</ele>
        <time>2015-09-08T06:32:27Z</time>
      </trkpt>
      <trkpt lat="42.8302" lon="-0.31816">
        <ele>2170.7941894531</ele>
        <time>2015-09-08T06:32:39Z</time>
      </trkpt>
      <trkpt lat="42.83023" lon="-0.31827">
        <ele>2170.3134765625</ele>
        <time>2015-09-08T06:33:11Z</time>
      </trkpt>
      <trkpt lat="42.83028" lon="-0.31839">
        <ele>2170.7941894531</ele>
        <time>2015-09-08T06:33:23Z</time>
      </trkpt>
      <trkpt lat="42.83028" lon="-0.31842">
        <ele>2171.2746582031</ele>
        <time>2015-09-08T06:33:39Z</time>
      </trkpt>
      <trkpt lat="42.83026" lon="-0.3186">
        <ele>2170.3134765625</ele>
        <time>2015-09-08T06:33:57Z</time>
      </trkpt>
      <trkpt lat="42.83024" lon="-0.31877">
        <ele>2167.91015625</ele>
        <time>2015-09-08T06:34:12Z</time>
      </trkpt>
      <trkpt lat="42.8302" lon="-0.31896">
        <ele>2166.9489746094</ele>
        <time>2015-09-08T06:34:28Z</time>
      </trkpt>
      <trkpt lat="42.83017" lon="-0.31906">
        <ele>2167.4294433594</ele>
        <time>2015-09-08T06:34:38Z</time>
      </trkpt>
      <trkpt lat="42.83015" lon="-0.31912">
        <ele>2166.4682617188</ele>
        <time>2015-09-08T06:34:49Z</time>
      </trkpt>
      <trkpt lat="42.83015" lon="-0.31921">
        <ele>2165.9875488281</ele>
        <time>2015-09-08T06:35:05Z</time>
      </trkpt>
      <trkpt lat="42.83014" lon="-0.31927">
        <ele>2165.9875488281</ele>
        <time>2015-09-08T06:35:21Z</time>
      </trkpt>
      <trkpt lat="42.8301" lon="-0.3193">
        <ele>2165.0263671875</ele>
        <time>2015-09-08T06:35:56Z</time>
      </trkpt>
      <trkpt lat="42.83006" lon="-0.31937">
        <ele>2163.1037597656</ele>
        <time>2015-09-08T06:36:07Z</time>
      </trkpt>
      <trkpt lat="42.83005" lon="-0.31946">
        <ele>2162.623046875</ele>
        <time>2015-09-08T06:36:19Z</time>
      </trkpt>
      <trkpt lat="42.83002" lon="-0.31955">
        <ele>2161.6618652344</ele>
        <time>2015-09-08T06:36:32Z</time>
      </trkpt>
      <trkpt lat="42.82997" lon="-0.31958">
        <ele>2160.2197265625</ele>
        <time>2015-09-08T06:36:55Z</time>
      </trkpt>
      <trkpt lat="42.82995" lon="-0.3195">
        <ele>2159.7390136719</ele>
        <time>2015-09-08T06:37:21Z</time>
      </trkpt>
      <trkpt lat="42.82985" lon="-0.31948">
        <ele>2159.2585449219</ele>
        <time>2015-09-08T06:37:35Z</time>
      </trkpt>
      <trkpt lat="42.82971" lon="-0.31953">
        <ele>2159.7390136719</ele>
        <time>2015-09-08T06:37:52Z</time>
      </trkpt>
      <trkpt lat="42.82964" lon="-0.31964">
        <ele>2159.7390136719</ele>
        <time>2015-09-08T06:38:05Z</time>
      </trkpt>
      <trkpt lat="42.8296" lon="-0.31971">
        <ele>2160.7004394531</ele>
        <time>2015-09-08T06:38:14Z</time>
      </trkpt>
      <trkpt lat="42.82957" lon="-0.31975">
        <ele>2160.7004394531</ele>
        <time>2015-09-08T06:38:19Z</time>
      </trkpt>
      <trkpt lat="42.82959" lon="-0.31988">
        <ele>2161.6618652344</ele>
        <time>2015-09-08T06:38:30Z</time>
      </trkpt>
      <trkpt lat="42.82962" lon="-0.31993">
        <ele>2162.1423339844</ele>
        <time>2015-09-08T06:38:34Z</time>
      </trkpt>
      <trkpt lat="42.82967" lon="-0.32006">
        <ele>2163.5842285156</ele>
        <time>2015-09-08T06:38:45Z</time>
      </trkpt>
      <trkpt lat="42.82983" lon="-0.3202">
        <ele>2162.623046875</ele>
        <time>2015-09-08T06:39:05Z</time>
      </trkpt>
      <trkpt lat="42.83" lon="-0.32036">
        <ele>2164.0649414062</ele>
        <time>2015-09-08T06:39:22Z</time>
      </trkpt>
      <trkpt lat="42.83012" lon="-0.32043">
        <ele>2164.0649414062</ele>
        <time>2015-09-08T06:39:38Z</time>
      </trkpt>
      <trkpt lat="42.82958" lon="-0.32016">
        <ele>2164.0649414062</ele>
        <time>2015-09-08T06:39:59Z</time>
      </trkpt>
      <trkpt lat="42.82949" lon="-0.32012">
        <ele>2164.0649414062</ele>
        <time>2015-09-08T06:40:03Z</time>
      </trkpt>
      <trkpt lat="42.82961" lon="-0.32014">
        <ele>2163.1037597656</ele>
        <time>2015-09-08T06:40:20Z</time>
      </trkpt>
      <trkpt lat="42.82957" lon="-0.32023">
        <ele>2165.0263671875</ele>
        <time>2015-09-08T06:40:31Z</time>
      </trkpt>
      <trkpt lat="42.82944" lon="-0.32018">
        <ele>2167.4294433594</ele>
        <time>2015-09-08T06:40:38Z</time>
      </trkpt>
      <trkpt lat="42.82933" lon="-0.32017">
        <ele>2168.8715820312</ele>
        <time>2015-09-08T06:40:50Z</time>
      </trkpt>
      <trkpt lat="42.82936" lon="-0.3203">
        <ele>2169.8327636719</ele>
        <time>2015-09-08T06:41:00Z</time>
      </trkpt>
      <trkpt lat="42.82931" lon="-0.3204">
        <ele>2170.3134765625</ele>
        <time>2015-09-08T06:41:11Z</time>
      </trkpt>
      <trkpt lat="42.82927" lon="-0.32057">
        <ele>2172.236328125</ele>
        <time>2015-09-08T06:41:26Z</time>
      </trkpt>
      <trkpt lat="42.82923" lon="-0.32075">
        <ele>2174.6396484375</ele>
        <time>2015-09-08T06:41:42Z</time>
      </trkpt>
      <trkpt lat="42.8292" lon="-0.32088">
        <ele>2176.5622558594</ele>
        <time>2015-09-08T06:41:59Z</time>
      </trkpt>
      <trkpt lat="42.82916" lon="-0.32097">
        <ele>2175.6008300781</ele>
        <time>2015-09-08T06:42:11Z</time>
      </trkpt>
      <trkpt lat="42.8291" lon="-0.32118">
        <ele>2175.1201171875</ele>
        <time>2015-09-08T06:42:30Z</time>
      </trkpt>
      <trkpt lat="42.82903" lon="-0.32139">
        <ele>2176.5622558594</ele>
        <time>2015-09-08T06:42:47Z</time>
      </trkpt>
      <trkpt lat="42.82899" lon="-0.32137">
        <ele>2178.9653320312</ele>
        <time>2015-09-08T06:43:02Z</time>
      </trkpt>
      <trkpt lat="42.82899" lon="-0.32123">
        <ele>2181.8493652344</ele>
        <time>2015-09-08T06:43:18Z</time>
      </trkpt>
      <trkpt lat="42.82898" lon="-0.32112">
        <ele>2182.810546875</ele>
        <time>2015-09-08T06:43:26Z</time>
      </trkpt>
      <trkpt lat="42.82889" lon="-0.32097">
        <ele>2183.7719726562</ele>
        <time>2015-09-08T06:43:41Z</time>
      </trkpt>
      <trkpt lat="42.82872" lon="-0.32089">
        <ele>2183.7719726562</ele>
        <time>2015-09-08T06:44:02Z</time>
      </trkpt>
      <trkpt lat="42.82867" lon="-0.321">
        <ele>2183.2912597656</ele>
        <time>2015-09-08T06:44:15Z</time>
      </trkpt>
      <trkpt lat="42.82866" lon="-0.32107">
        <ele>2182.810546875</ele>
        <time>2015-09-08T06:45:02Z</time>
      </trkpt>
      <trkpt lat="42.82864" lon="-0.321">
        <ele>2183.2912597656</ele>
        <time>2015-09-08T06:46:48Z</time>
      </trkpt>
      <trkpt lat="42.82863" lon="-0.32112">
        <ele>2180.8881835938</ele>
        <time>2015-09-08T06:47:10Z</time>
      </trkpt>
      <trkpt lat="42.82857" lon="-0.32123">
        <ele>2178.9653320312</ele>
        <time>2015-09-08T06:47:24Z</time>
      </trkpt>
      <trkpt lat="42.82852" lon="-0.32133">
        <ele>2178.0041503906</ele>
        <time>2015-09-08T06:47:37Z</time>
      </trkpt>
      <trkpt lat="42.82848" lon="-0.32139">
        <ele>2175.1201171875</ele>
        <time>2015-09-08T06:47:48Z</time>
      </trkpt>
      <trkpt lat="42.82847" lon="-0.32143">
        <ele>2174.6396484375</ele>
        <time>2015-09-08T06:47:52Z</time>
      </trkpt>
      <trkpt lat="42.82838" lon="-0.32158">
        <ele>2172.7170410156</ele>
        <time>2015-09-08T06:48:08Z</time>
      </trkpt>
      <trkpt lat="42.82835" lon="-0.32164">
        <ele>2170.3134765625</ele>
        <time>2015-09-08T06:48:15Z</time>
      </trkpt>
      <trkpt lat="42.8282" lon="-0.32179">
        <ele>2168.8715820312</ele>
        <time>2015-09-08T06:48:32Z</time>
      </trkpt>
      <trkpt lat="42.82804" lon="-0.32175">
        <ele>2168.8715820312</ele>
        <time>2015-09-08T06:48:48Z</time>
      </trkpt>
      <trkpt lat="42.82801" lon="-0.32177">
        <ele>2169.8327636719</ele>
        <time>2015-09-08T06:49:16Z</time>
      </trkpt>
      <trkpt lat="42.82797" lon="-0.32167">
        <ele>2169.3522949219</ele>
        <time>2015-09-08T06:49:35Z</time>
      </trkpt>
      <trkpt lat="42.82788" lon="-0.32169">
        <ele>2167.4294433594</ele>
        <time>2015-09-08T06:49:46Z</time>
      </trkpt>
      <trkpt lat="42.82778" lon="-0.32158">
        <ele>2165.9875488281</ele>
        <time>2015-09-08T06:50:00Z</time>
      </trkpt>
      <trkpt lat="42.82768" lon="-0.3215">
        <ele>2164.5456542969</ele>
        <time>2015-09-08T06:50:15Z</time>
      </trkpt>
      <trkpt lat="42.82761" lon="-0.32147">
        <ele>2167.91015625</ele>
        <time>2015-09-08T06:50:25Z</time>
      </trkpt>
      <trkpt lat="42.82752" lon="-0.32146">
        <ele>2168.8715820312</ele>
        <time>2015-09-08T06:50:36Z</time>
      </trkpt>
      <trkpt lat="42.82747" lon="-0.32144">
        <ele>2169.3522949219</ele>
        <time>2015-09-08T06:50:56Z</time>
      </trkpt>
      <trkpt lat="42.82747" lon="-0.32144">
        <ele>2167.91015625</ele>
        <time>2015-09-08T06:51:04Z</time>
      </trkpt>
      <trkpt lat="42.82743" lon="-0.32138">
        <ele>2168.3908691406</ele>
        <time>2015-09-08T06:51:10Z</time>
      </trkpt>
      <trkpt lat="42.82737" lon="-0.32122">
        <ele>2167.91015625</ele>
        <time>2015-09-08T06:51:24Z</time>
      </trkpt>
      <trkpt lat="42.82723" lon="-0.32106">
        <ele>2167.91015625</ele>
        <time>2015-09-08T06:51:42Z</time>
      </trkpt>
      <trkpt lat="42.82723" lon="-0.32103">
        <ele>2167.91015625</ele>
        <time>2015-09-08T06:51:49Z</time>
      </trkpt>
      <trkpt lat="42.82716" lon="-0.32089">
        <ele>2169.3522949219</ele>
        <time>2015-09-08T06:52:02Z</time>
      </trkpt>
      <trkpt lat="42.82715" lon="-0.32087">
        <ele>2169.3522949219</ele>
        <time>2015-09-08T06:52:04Z</time>
      </trkpt>
      <trkpt lat="42.82703" lon="-0.32071">
        <ele>2170.7941894531</ele>
        <time>2015-09-08T06:52:22Z</time>
      </trkpt>
      <trkpt lat="42.82696" lon="-0.32064">
        <ele>2171.7553710938</ele>
        <time>2015-09-08T06:52:32Z</time>
      </trkpt>
      <trkpt lat="42.82684" lon="-0.32058">
        <ele>2173.6782226562</ele>
        <time>2015-09-08T06:52:46Z</time>
      </trkpt>
      <trkpt lat="42.8267" lon="-0.32061">
        <ele>2175.6008300781</ele>
        <time>2015-09-08T06:53:01Z</time>
      </trkpt>
      <trkpt lat="42.82669" lon="-0.32062">
        <ele>2175.6008300781</ele>
        <time>2015-09-08T06:53:02Z</time>
      </trkpt>
      <trkpt lat="42.82662" lon="-0.32067">
        <ele>2176.0815429688</ele>
        <time>2015-09-08T06:53:18Z</time>
      </trkpt>
      <trkpt lat="42.82653" lon="-0.32069">
        <ele>2177.5234375</ele>
        <time>2015-09-08T06:53:31Z</time>
      </trkpt>
      <trkpt lat="42.82643" lon="-0.32076">
        <ele>2178.4848632812</ele>
        <time>2015-09-08T06:53:44Z</time>
      </trkpt>
      <trkpt lat="42.82639" lon="-0.32095">
        <ele>2179.9267578125</ele>
        <time>2015-09-08T06:54:01Z</time>
      </trkpt>
      <trkpt lat="42.82632" lon="-0.32107">
        <ele>2180.8881835938</ele>
        <time>2015-09-08T06:54:17Z</time>
      </trkpt>
      <trkpt lat="42.82618" lon="-0.32104">
        <ele>2181.8493652344</ele>
        <time>2015-09-08T06:54:31Z</time>
      </trkpt>
      <trkpt lat="42.82604" lon="-0.321">
        <ele>2183.7719726562</ele>
        <time>2015-09-08T06:54:47Z</time>
      </trkpt>
      <trkpt lat="42.826" lon="-0.32099">
        <ele>2183.2912597656</ele>
        <time>2015-09-08T06:54:53Z</time>
      </trkpt>
      <trkpt lat="42.82582" lon="-0.32095">
        <ele>2185.2138671875</ele>
        <time>2015-09-08T06:55:10Z</time>
      </trkpt>
      <trkpt lat="42.82569" lon="-0.32078">
        <ele>2186.1752929688</ele>
        <time>2015-09-08T06:55:28Z</time>
      </trkpt>
      <trkpt lat="42.82556" lon="-0.32062">
        <ele>2187.1364746094</ele>
        <time>2015-09-08T06:55:47Z</time>
      </trkpt>
      <trkpt lat="42.8255" lon="-0.32056">
        <ele>2186.6557617188</ele>
        <time>2015-09-08T06:55:59Z</time>
      </trkpt>
      <trkpt lat="42.82536" lon="-0.32043">
        <ele>2185.6945800781</ele>
        <time>2015-09-08T06:56:17Z</time>
      </trkpt>
      <trkpt lat="42.82531" lon="-0.32032">
        <ele>2184.7333984375</ele>
        <time>2015-09-08T06:56:27Z</time>
      </trkpt>
      <trkpt lat="42.8252" lon="-0.32012">
        <ele>2185.2138671875</ele>
        <time>2015-09-08T06:56:46Z</time>
      </trkpt>
      <trkpt lat="42.82512" lon="-0.31996">
        <ele>2185.6945800781</ele>
        <time>2015-09-08T06:56:59Z</time>
      </trkpt>
      <trkpt lat="42.82502" lon="-0.31987">
        <ele>2185.6945800781</ele>
        <time>2015-09-08T06:57:10Z</time>
      </trkpt>
      <trkpt lat="42.82498" lon="-0.31966">
        <ele>2185.2138671875</ele>
        <time>2015-09-08T06:57:26Z</time>
      </trkpt>
      <trkpt lat="42.82496" lon="-0.31951">
        <ele>2185.2138671875</ele>
        <time>2015-09-08T06:57:44Z</time>
      </trkpt>
      <trkpt lat="42.82493" lon="-0.31934">
        <ele>2183.2912597656</ele>
        <time>2015-09-08T06:58:05Z</time>
      </trkpt>
      <trkpt lat="42.82492" lon="-0.31913">
        <ele>2180.8881835938</ele>
        <time>2015-09-08T06:58:21Z</time>
      </trkpt>
      <trkpt lat="42.82492" lon="-0.31894">
        <ele>2179.4460449219</ele>
        <time>2015-09-08T06:58:36Z</time>
      </trkpt>
      <trkpt lat="42.8249" lon="-0.31891">
        <ele>2178.9653320312</ele>
        <time>2015-09-08T06:58:40Z</time>
      </trkpt>
      <trkpt lat="42.8248" lon="-0.3188">
        <ele>2178.0041503906</ele>
        <time>2015-09-08T06:58:56Z</time>
      </trkpt>
      <trkpt lat="42.82477" lon="-0.31873">
        <ele>2178.4848632812</ele>
        <time>2015-09-08T06:59:10Z</time>
      </trkpt>
      <trkpt lat="42.82472" lon="-0.31855">
        <ele>2175.1201171875</ele>
        <time>2015-09-08T06:59:28Z</time>
      </trkpt>
      <trkpt lat="42.82466" lon="-0.31844">
        <ele>2173.1977539062</ele>
        <time>2015-09-08T06:59:42Z</time>
      </trkpt>
      <trkpt lat="42.8246" lon="-0.31827">
        <ele>2170.7941894531</ele>
        <time>2015-09-08T06:59:59Z</time>
      </trkpt>
      <trkpt lat="42.82456" lon="-0.31813">
        <ele>2167.91015625</ele>
        <time>2015-09-08T07:00:17Z</time>
      </trkpt>
      <trkpt lat="42.8245" lon="-0.31791">
        <ele>2166.4682617188</ele>
        <time>2015-09-08T07:00:36Z</time>
      </trkpt>
      <trkpt lat="42.82444" lon="-0.31771">
        <ele>2163.5842285156</ele>
        <time>2015-09-08T07:00:54Z</time>
      </trkpt>
      <trkpt lat="42.82441" lon="-0.31755">
        <ele>2162.1423339844</ele>
        <time>2015-09-08T07:01:11Z</time>
      </trkpt>
      <trkpt lat="42.82435" lon="-0.31738">
        <ele>2160.2197265625</ele>
        <time>2015-09-08T07:01:27Z</time>
      </trkpt>
      <trkpt lat="42.8243" lon="-0.31716">
        <ele>2158.7778320312</ele>
        <time>2015-09-08T07:01:47Z</time>
      </trkpt>
      <trkpt lat="42.82424" lon="-0.31698">
        <ele>2157.3359375</ele>
        <time>2015-09-08T07:02:02Z</time>
      </trkpt>
      <trkpt lat="42.82424" lon="-0.31695">
        <ele>2156.8552246094</ele>
        <time>2015-09-08T07:02:04Z</time>
      </trkpt>
      <trkpt lat="42.82421" lon="-0.31689">
        <ele>2157.3359375</ele>
        <time>2015-09-08T07:02:08Z</time>
      </trkpt>
      <trkpt lat="42.82418" lon="-0.31681">
        <ele>2156.8552246094</ele>
        <time>2015-09-08T07:02:14Z</time>
      </trkpt>
      <trkpt lat="42.82413" lon="-0.31673">
        <ele>2156.8552246094</ele>
        <time>2015-09-08T07:02:21Z</time>
      </trkpt>
      <trkpt lat="42.82408" lon="-0.31666">
        <ele>2156.8552246094</ele>
        <time>2015-09-08T07:02:27Z</time>
      </trkpt>
      <trkpt lat="42.82408" lon="-0.31663">
        <ele>2157.3359375</ele>
        <time>2015-09-08T07:02:29Z</time>
      </trkpt>
      <trkpt lat="42.82399" lon="-0.31651">
        <ele>2158.7778320312</ele>
        <time>2015-09-08T07:02:41Z</time>
      </trkpt>
      <trkpt lat="42.82392" lon="-0.31641">
        <ele>2160.2197265625</ele>
        <time>2015-09-08T07:02:53Z</time>
      </trkpt>
      <trkpt lat="42.8239" lon="-0.31631">
        <ele>2161.1811523438</ele>
        <time>2015-09-08T07:03:01Z</time>
      </trkpt>
      <trkpt lat="42.8239" lon="-0.31607">
        <ele>2164.0649414062</ele>
        <time>2015-09-08T07:03:21Z</time>
      </trkpt>
      <trkpt lat="42.82389" lon="-0.31605">
        <ele>2165.0263671875</ele>
        <time>2015-09-08T07:03:23Z</time>
      </trkpt>
      <trkpt lat="42.82387" lon="-0.316">
        <ele>2165.5070800781</ele>
        <time>2015-09-08T07:03:29Z</time>
      </trkpt>
      <trkpt lat="42.82381" lon="-0.31592">
        <ele>2168.8715820312</ele>
        <time>2015-09-08T07:03:39Z</time>
      </trkpt>
      <trkpt lat="42.82377" lon="-0.31587">
        <ele>2169.3522949219</ele>
        <time>2015-09-08T07:03:55Z</time>
      </trkpt>
      <trkpt lat="42.82377" lon="-0.31575">
        <ele>2171.7553710938</ele>
        <time>2015-09-08T07:04:07Z</time>
      </trkpt>
      <trkpt lat="42.82376" lon="-0.31559">
        <ele>2174.6396484375</ele>
        <time>2015-09-08T07:04:23Z</time>
      </trkpt>
      <trkpt lat="42.82372" lon="-0.31547">
        <ele>2176.5622558594</ele>
        <time>2015-09-08T07:04:35Z</time>
      </trkpt>
      <trkpt lat="42.82368" lon="-0.31528">
        <ele>2178.9653320312</ele>
        <time>2015-09-08T07:04:53Z</time>
      </trkpt>
      <trkpt lat="42.82368" lon="-0.31511">
        <ele>2179.9267578125</ele>
        <time>2015-09-08T07:05:09Z</time>
      </trkpt>
      <trkpt lat="42.82364" lon="-0.31487">
        <ele>2182.330078125</ele>
        <time>2015-09-08T07:05:30Z</time>
      </trkpt>
      <trkpt lat="42.82358" lon="-0.31471">
        <ele>2181.3686523438</ele>
        <time>2015-09-08T07:05:46Z</time>
      </trkpt>
      <trkpt lat="42.82355" lon="-0.31459">
        <ele>2182.810546875</ele>
        <time>2015-09-08T07:05:56Z</time>
      </trkpt>
      <trkpt lat="42.82352" lon="-0.31452">
        <ele>2181.3686523438</ele>
        <time>2015-09-08T07:06:04Z</time>
      </trkpt>
      <trkpt lat="42.82344" lon="-0.31434">
        <ele>2182.810546875</ele>
        <time>2015-09-08T07:06:20Z</time>
      </trkpt>
      <trkpt lat="42.82338" lon="-0.3141">
        <ele>2183.2912597656</ele>
        <time>2015-09-08T07:06:38Z</time>
      </trkpt>
      <trkpt lat="42.82335" lon="-0.31387">
        <ele>2184.2526855469</ele>
        <time>2015-09-08T07:06:56Z</time>
      </trkpt>
      <trkpt lat="42.82334" lon="-0.31366">
        <ele>2187.1364746094</ele>
        <time>2015-09-08T07:07:12Z</time>
      </trkpt>
      <trkpt lat="42.82326" lon="-0.31342">
        <ele>2189.0593261719</ele>
        <time>2015-09-08T07:07:31Z</time>
      </trkpt>
      <trkpt lat="42.82323" lon="-0.31319">
        <ele>2190.5012207031</ele>
        <time>2015-09-08T07:07:48Z</time>
      </trkpt>
      <trkpt lat="42.82319" lon="-0.31296">
        <ele>2190.9819335938</ele>
        <time>2015-09-08T07:08:06Z</time>
      </trkpt>
      <trkpt lat="42.82317" lon="-0.31292">
        <ele>2191.943359375</ele>
        <time>2015-09-08T07:08:09Z</time>
      </trkpt>
      <trkpt lat="42.82311" lon="-0.31278">
        <ele>2194.8271484375</ele>
        <time>2015-09-08T07:08:23Z</time>
      </trkpt>
      <trkpt lat="42.82307" lon="-0.31257">
        <ele>2196.2692871094</ele>
        <time>2015-09-08T07:08:42Z</time>
      </trkpt>
      <trkpt lat="42.82305" lon="-0.31236">
        <ele>2200.1145019531</ele>
        <time>2015-09-08T07:08:59Z</time>
      </trkpt>
      <trkpt lat="42.82302" lon="-0.31221">
        <ele>2202.0368652344</ele>
        <time>2015-09-08T07:09:14Z</time>
      </trkpt>
      <trkpt lat="42.82299" lon="-0.31202">
        <ele>2202.0368652344</ele>
        <time>2015-09-08T07:09:29Z</time>
      </trkpt>
      <trkpt lat="42.82297" lon="-0.3119">
        <ele>2203.4790039062</ele>
        <time>2015-09-08T07:09:43Z</time>
      </trkpt>
      <trkpt lat="42.82294" lon="-0.3118">
        <ele>2202.517578125</ele>
        <time>2015-09-08T07:09:55Z</time>
      </trkpt>
      <trkpt lat="42.82294" lon="-0.31178">
        <ele>2202.0368652344</ele>
        <time>2015-09-08T07:09:57Z</time>
      </trkpt>
      <trkpt lat="42.82288" lon="-0.31152">
        <ele>2204.4404296875</ele>
        <time>2015-09-08T07:10:18Z</time>
      </trkpt>
      <trkpt lat="42.82285" lon="-0.31141">
        <ele>2205.8823242188</ele>
        <time>2015-09-08T07:10:27Z</time>
      </trkpt>
      <trkpt lat="42.82277" lon="-0.31118">
        <ele>2207.3244628906</ele>
        <time>2015-09-08T07:10:46Z</time>
      </trkpt>
      <trkpt lat="42.82273" lon="-0.31107">
        <ele>2207.8051757812</ele>
        <time>2015-09-08T07:10:56Z</time>
      </trkpt>
      <trkpt lat="42.82265" lon="-0.31082">
        <ele>2208.2856445312</ele>
        <time>2015-09-08T07:11:15Z</time>
      </trkpt>
      <trkpt lat="42.82256" lon="-0.31055">
        <ele>2207.8051757812</ele>
        <time>2015-09-08T07:11:37Z</time>
      </trkpt>
      <trkpt lat="42.82251" lon="-0.31034">
        <ele>2208.2856445312</ele>
        <time>2015-09-08T07:11:53Z</time>
      </trkpt>
      <trkpt lat="42.82247" lon="-0.31018">
        <ele>2207.8051757812</ele>
        <time>2015-09-08T07:12:06Z</time>
      </trkpt>
      <trkpt lat="42.82244" lon="-0.31013">
        <ele>2207.8051757812</ele>
        <time>2015-09-08T07:12:11Z</time>
      </trkpt>
      <trkpt lat="42.82241" lon="-0.31003">
        <ele>2207.8051757812</ele>
        <time>2015-09-08T07:12:19Z</time>
      </trkpt>
      <trkpt lat="42.82232" lon="-0.30981">
        <ele>2207.3244628906</ele>
        <time>2015-09-08T07:12:37Z</time>
      </trkpt>
      <trkpt lat="42.82223" lon="-0.30957">
        <ele>2206.84375</ele>
        <time>2015-09-08T07:12:55Z</time>
      </trkpt>
      <trkpt lat="42.82217" lon="-0.30932">
        <ele>2206.3630371094</ele>
        <time>2015-09-08T07:13:14Z</time>
      </trkpt>
      <trkpt lat="42.82211" lon="-0.30905">
        <ele>2204.9211425781</ele>
        <time>2015-09-08T07:13:34Z</time>
      </trkpt>
      <trkpt lat="42.82209" lon="-0.30895">
        <ele>2203.4790039062</ele>
        <time>2015-09-08T07:13:42Z</time>
      </trkpt>
      <trkpt lat="42.82203" lon="-0.30874">
        <ele>2203.4790039062</ele>
        <time>2015-09-08T07:13:58Z</time>
      </trkpt>
      <trkpt lat="42.82197" lon="-0.30856">
        <ele>2202.0368652344</ele>
        <time>2015-09-08T07:14:13Z</time>
      </trkpt>
      <trkpt lat="42.82193" lon="-0.30843">
        <ele>2202.0368652344</ele>
        <time>2015-09-08T07:14:23Z</time>
      </trkpt>
      <trkpt lat="42.82186" lon="-0.30819">
        <ele>2202.0368652344</ele>
        <time>2015-09-08T07:14:40Z</time>
      </trkpt>
      <trkpt lat="42.82183" lon="-0.30795">
        <ele>2202.0368652344</ele>
        <time>2015-09-08T07:14:57Z</time>
      </trkpt>
      <trkpt lat="42.8218" lon="-0.30777">
        <ele>2202.9982910156</ele>
        <time>2015-09-08T07:15:12Z</time>
      </trkpt>
      <trkpt lat="42.82181" lon="-0.30753">
        <ele>2205.4018554688</ele>
        <time>2015-09-08T07:15:32Z</time>
      </trkpt>
      <trkpt lat="42.82182" lon="-0.30743">
        <ele>2205.8823242188</ele>
        <time>2015-09-08T07:15:42Z</time>
      </trkpt>
      <trkpt lat="42.82183" lon="-0.30737">
        <ele>2205.8823242188</ele>
        <time>2015-09-08T07:15:46Z</time>
      </trkpt>
      <trkpt lat="42.82186" lon="-0.30707">
        <ele>2205.8823242188</ele>
        <time>2015-09-08T07:16:07Z</time>
      </trkpt>
      <trkpt lat="42.82186" lon="-0.3069">
        <ele>2206.3630371094</ele>
        <time>2015-09-08T07:16:22Z</time>
      </trkpt>
      <trkpt lat="42.82188" lon="-0.30662">
        <ele>2207.8051757812</ele>
        <time>2015-09-08T07:16:42Z</time>
      </trkpt>
      <trkpt lat="42.82188" lon="-0.30659">
        <ele>2207.8051757812</ele>
        <time>2015-09-08T07:16:44Z</time>
      </trkpt>
      <trkpt lat="42.82188" lon="-0.30656">
        <ele>2207.8051757812</ele>
        <time>2015-09-08T07:16:46Z</time>
      </trkpt>
      <trkpt lat="42.82187" lon="-0.30635">
        <ele>2206.84375</ele>
        <time>2015-09-08T07:17:03Z</time>
      </trkpt>
      <trkpt lat="42.82184" lon="-0.30616">
        <ele>2203.9597167969</ele>
        <time>2015-09-08T07:17:18Z</time>
      </trkpt>
      <trkpt lat="42.82179" lon="-0.30606">
        <ele>2202.0368652344</ele>
        <time>2015-09-08T07:17:28Z</time>
      </trkpt>
      <trkpt lat="42.82177" lon="-0.3059">
        <ele>2200.5949707031</ele>
        <time>2015-09-08T07:17:43Z</time>
      </trkpt>
      <trkpt lat="42.82176" lon="-0.30586">
        <ele>2201.5563964844</ele>
        <time>2015-09-08T07:18:06Z</time>
      </trkpt>
      <trkpt lat="42.82177" lon="-0.3058">
        <ele>2200.5949707031</ele>
        <time>2015-09-08T07:18:12Z</time>
      </trkpt>
      <trkpt lat="42.82179" lon="-0.30575">
        <ele>2201.5563964844</ele>
        <time>2015-09-08T07:18:17Z</time>
      </trkpt>
      <trkpt lat="42.82184" lon="-0.30549">
        <ele>2200.5949707031</ele>
        <time>2015-09-08T07:18:38Z</time>
      </trkpt>
      <trkpt lat="42.82185" lon="-0.30539">
        <ele>2198.6723632812</ele>
        <time>2015-09-08T07:18:49Z</time>
      </trkpt>
      <trkpt lat="42.82184" lon="-0.30532">
        <ele>2198.1916503906</ele>
        <time>2015-09-08T07:18:59Z</time>
      </trkpt>
      <trkpt lat="42.8217" lon="-0.30513">
        <ele>2197.7111816406</ele>
        <time>2015-09-08T07:19:17Z</time>
      </trkpt>
      <trkpt lat="42.82163" lon="-0.30502">
        <ele>2194.3464355469</ele>
        <time>2015-09-08T07:19:32Z</time>
      </trkpt>
      <trkpt lat="42.82159" lon="-0.30488">
        <ele>2194.3464355469</ele>
        <time>2015-09-08T07:19:46Z</time>
      </trkpt>
      <trkpt lat="42.82154" lon="-0.3047">
        <ele>2193.8659667969</ele>
        <time>2015-09-08T07:20:01Z</time>
      </trkpt>
      <trkpt lat="42.82147" lon="-0.30458">
        <ele>2192.4240722656</ele>
        <time>2015-09-08T07:20:13Z</time>
      </trkpt>
      <trkpt lat="42.82142" lon="-0.3044">
        <ele>2190.0207519531</ele>
        <time>2015-09-08T07:20:30Z</time>
      </trkpt>
      <trkpt lat="42.82137" lon="-0.30425">
        <ele>2188.0981445312</ele>
        <time>2015-09-08T07:20:47Z</time>
      </trkpt>
      <trkpt lat="42.82132" lon="-0.30411">
        <ele>2185.6945800781</ele>
        <time>2015-09-08T07:21:02Z</time>
      </trkpt>
      <trkpt lat="42.82127" lon="-0.30401">
        <ele>2182.810546875</ele>
        <time>2015-09-08T07:21:19Z</time>
      </trkpt>
      <trkpt lat="42.82121" lon="-0.30394">
        <ele>2180.8881835938</ele>
        <time>2015-09-08T07:21:35Z</time>
      </trkpt>
      <trkpt lat="42.82112" lon="-0.30385">
        <ele>2178.0041503906</ele>
        <time>2015-09-08T07:21:51Z</time>
      </trkpt>
      <trkpt lat="42.82102" lon="-0.3037">
        <ele>2176.0815429688</ele>
        <time>2015-09-08T07:22:09Z</time>
      </trkpt>
      <trkpt lat="42.82102" lon="-0.3038">
        <ele>2174.6396484375</ele>
        <time>2015-09-08T07:22:23Z</time>
      </trkpt>
      <trkpt lat="42.82106" lon="-0.30401">
        <ele>2172.236328125</ele>
        <time>2015-09-08T07:22:43Z</time>
      </trkpt>
      <trkpt lat="42.82112" lon="-0.30416">
        <ele>2170.3134765625</ele>
        <time>2015-09-08T07:23:00Z</time>
      </trkpt>
      <trkpt lat="42.82106" lon="-0.30416">
        <ele>2167.91015625</ele>
        <time>2015-09-08T07:23:15Z</time>
      </trkpt>
      <trkpt lat="42.82097" lon="-0.30408">
        <ele>2165.5070800781</ele>
        <time>2015-09-08T07:23:30Z</time>
      </trkpt>
      <trkpt lat="42.82087" lon="-0.304">
        <ele>2163.5842285156</ele>
        <time>2015-09-08T07:23:48Z</time>
      </trkpt>
      <trkpt lat="42.82079" lon="-0.30393">
        <ele>2160.7004394531</ele>
        <time>2015-09-08T07:24:07Z</time>
      </trkpt>
      <trkpt lat="42.82074" lon="-0.30387">
        <ele>2157.8166503906</ele>
        <time>2015-09-08T07:24:19Z</time>
      </trkpt>
      <trkpt lat="42.82067" lon="-0.30382">
        <ele>2155.4130859375</ele>
        <time>2015-09-08T07:24:31Z</time>
      </trkpt>
      <trkpt lat="42.82061" lon="-0.30375">
        <ele>2154.4516601562</ele>
        <time>2015-09-08T07:24:45Z</time>
      </trkpt>
      <trkpt lat="42.8205" lon="-0.30357">
        <ele>2153.9711914062</ele>
        <time>2015-09-08T07:25:01Z</time>
      </trkpt>
      <trkpt lat="42.82042" lon="-0.3034">
        <ele>2152.5290527344</ele>
        <time>2015-09-08T07:25:17Z</time>
      </trkpt>
      <trkpt lat="42.8204" lon="-0.30334">
        <ele>2153.009765625</ele>
        <time>2015-09-08T07:25:21Z</time>
      </trkpt>
      <trkpt lat="42.82034" lon="-0.30315">
        <ele>2153.9711914062</ele>
        <time>2015-09-08T07:25:37Z</time>
      </trkpt>
      <trkpt lat="42.8203" lon="-0.30299">
        <ele>2152.5290527344</ele>
        <time>2015-09-08T07:25:53Z</time>
      </trkpt>
      <trkpt lat="42.82027" lon="-0.30294">
        <ele>2151.5678710938</ele>
        <time>2015-09-08T07:26:00Z</time>
      </trkpt>
      <trkpt lat="42.82024" lon="-0.3029">
        <ele>2151.5678710938</ele>
        <time>2015-09-08T07:26:04Z</time>
      </trkpt>
      <trkpt lat="42.8201" lon="-0.30278">
        <ele>2150.1259765625</ele>
        <time>2015-09-08T07:26:21Z</time>
      </trkpt>
      <trkpt lat="42.82007" lon="-0.3027">
        <ele>2150.1259765625</ele>
        <time>2015-09-08T07:26:27Z</time>
      </trkpt>
      <trkpt lat="42.82" lon="-0.30246">
        <ele>2152.0483398438</ele>
        <time>2015-09-08T07:26:46Z</time>
      </trkpt>
      <trkpt lat="42.82" lon="-0.30243">
        <ele>2152.5290527344</ele>
        <time>2015-09-08T07:26:48Z</time>
      </trkpt>
      <trkpt lat="42.81997" lon="-0.30232">
        <ele>2153.009765625</ele>
        <time>2015-09-08T07:26:58Z</time>
      </trkpt>
      <trkpt lat="42.81997" lon="-0.30227">
        <ele>2153.4904785156</ele>
        <time>2015-09-08T07:27:02Z</time>
      </trkpt>
      <trkpt lat="42.8199" lon="-0.30206">
        <ele>2153.9711914062</ele>
        <time>2015-09-08T07:27:21Z</time>
      </trkpt>
      <trkpt lat="42.81986" lon="-0.30188">
        <ele>2154.4516601562</ele>
        <time>2015-09-08T07:27:36Z</time>
      </trkpt>
      <trkpt lat="42.81982" lon="-0.3017">
        <ele>2155.8935546875</ele>
        <time>2015-09-08T07:27:51Z</time>
      </trkpt>
      <trkpt lat="42.8198" lon="-0.30161">
        <ele>2155.4130859375</ele>
        <time>2015-09-08T07:28:04Z</time>
      </trkpt>
      <trkpt lat="42.81979" lon="-0.30158">
        <ele>2155.8935546875</ele>
        <time>2015-09-08T07:28:08Z</time>
      </trkpt>
      <trkpt lat="42.81973" lon="-0.30141">
        <ele>2154.4516601562</ele>
        <time>2015-09-08T07:28:23Z</time>
      </trkpt>
      <trkpt lat="42.81968" lon="-0.30118">
        <ele>2152.5290527344</ele>
        <time>2015-09-08T07:28:44Z</time>
      </trkpt>
      <trkpt lat="42.81971" lon="-0.30117">
        <ele>2153.009765625</ele>
        <time>2015-09-08T07:29:06Z</time>
      </trkpt>
      <trkpt lat="42.8197" lon="-0.30116">
        <ele>2151.5678710938</ele>
        <time>2015-09-08T07:29:35Z</time>
      </trkpt>
      <trkpt lat="42.81967" lon="-0.30117">
        <ele>2152.5290527344</ele>
        <time>2015-09-08T07:30:34Z</time>
      </trkpt>
      <trkpt lat="42.81969" lon="-0.30116">
        <ele>2153.4904785156</ele>
        <time>2015-09-08T07:30:56Z</time>
      </trkpt>
      <trkpt lat="42.81969" lon="-0.30118">
        <ele>2153.9711914062</ele>
        <time>2015-09-08T07:31:32Z</time>
      </trkpt>
      <trkpt lat="42.81971" lon="-0.30116">
        <ele>2153.9711914062</ele>
        <time>2015-09-08T07:31:56Z</time>
      </trkpt>
      <trkpt lat="42.81966" lon="-0.30105">
        <ele>2153.4904785156</ele>
        <time>2015-09-08T07:32:10Z</time>
      </trkpt>
      <trkpt lat="42.81963" lon="-0.30098">
        <ele>2150.1259765625</ele>
        <time>2015-09-08T07:32:22Z</time>
      </trkpt>
      <trkpt lat="42.8196" lon="-0.30089">
        <ele>2147.72265625</ele>
        <time>2015-09-08T07:32:36Z</time>
      </trkpt>
      <trkpt lat="42.81957" lon="-0.30088">
        <ele>2146.2807617188</ele>
        <time>2015-09-08T07:32:49Z</time>
      </trkpt>
      <trkpt lat="42.81954" lon="-0.30097">
        <ele>2142.916015625</ele>
        <time>2015-09-08T07:33:01Z</time>
      </trkpt>
      <trkpt lat="42.81947" lon="-0.30081">
        <ele>2142.435546875</ele>
        <time>2015-09-08T07:33:18Z</time>
      </trkpt>
      <trkpt lat="42.8194" lon="-0.30069">
        <ele>2140.0322265625</ele>
        <time>2015-09-08T07:33:34Z</time>
      </trkpt>
      <trkpt lat="42.81936" lon="-0.30061">
        <ele>2136.6672363281</ele>
        <time>2015-09-08T07:33:45Z</time>
      </trkpt>
      <trkpt lat="42.81929" lon="-0.30046">
        <ele>2134.7448730469</ele>
        <time>2015-09-08T07:34:00Z</time>
      </trkpt>
      <trkpt lat="42.81926" lon="-0.30044">
        <ele>2132.8220214844</ele>
        <time>2015-09-08T07:34:06Z</time>
      </trkpt>
      <trkpt lat="42.81921" lon="-0.30035">
        <ele>2132.3415527344</ele>
        <time>2015-09-08T07:34:14Z</time>
      </trkpt>
      <trkpt lat="42.81921" lon="-0.30029">
        <ele>2131.8608398438</ele>
        <time>2015-09-08T07:34:18Z</time>
      </trkpt>
      <trkpt lat="42.81915" lon="-0.3001">
        <ele>2132.8220214844</ele>
        <time>2015-09-08T07:34:35Z</time>
      </trkpt>
      <trkpt lat="42.81908" lon="-0.29991">
        <ele>2132.8220214844</ele>
        <time>2015-09-08T07:34:51Z</time>
      </trkpt>
      <trkpt lat="42.81908" lon="-0.2999">
        <ele>2132.8220214844</ele>
        <time>2015-09-08T07:34:52Z</time>
      </trkpt>
      <trkpt lat="42.81905" lon="-0.29976">
        <ele>2132.8220214844</ele>
        <time>2015-09-08T07:35:10Z</time>
      </trkpt>
      <trkpt lat="42.81904" lon="-0.29966">
        <ele>2132.8220214844</ele>
        <time>2015-09-08T07:35:25Z</time>
      </trkpt>
      <trkpt lat="42.81904" lon="-0.2996">
        <ele>2132.3415527344</ele>
        <time>2015-09-08T07:35:29Z</time>
      </trkpt>
      <trkpt lat="42.81902" lon="-0.29945">
        <ele>2131.8608398438</ele>
        <time>2015-09-08T07:35:42Z</time>
      </trkpt>
      <trkpt lat="42.81901" lon="-0.29941">
        <ele>2131.8608398438</ele>
        <time>2015-09-08T07:35:44Z</time>
      </trkpt>
      <trkpt lat="42.819" lon="-0.29936">
        <ele>2131.3801269531</ele>
        <time>2015-09-08T07:35:48Z</time>
      </trkpt>
      <trkpt lat="42.819" lon="-0.2993">
        <ele>2131.8608398438</ele>
        <time>2015-09-08T07:35:52Z</time>
      </trkpt>
      <trkpt lat="42.81895" lon="-0.29912">
        <ele>2131.3801269531</ele>
        <time>2015-09-08T07:36:08Z</time>
      </trkpt>
      <trkpt lat="42.81889" lon="-0.29894">
        <ele>2131.3801269531</ele>
        <time>2015-09-08T07:36:23Z</time>
      </trkpt>
      <trkpt lat="42.81885" lon="-0.29881">
        <ele>2131.3801269531</ele>
        <time>2015-09-08T07:36:34Z</time>
      </trkpt>
      <trkpt lat="42.8188" lon="-0.2986">
        <ele>2131.3801269531</ele>
        <time>2015-09-08T07:36:53Z</time>
      </trkpt>
      <trkpt lat="42.81875" lon="-0.2984">
        <ele>2131.3801269531</ele>
        <time>2015-09-08T07:37:11Z</time>
      </trkpt>
      <trkpt lat="42.81872" lon="-0.29827">
        <ele>2131.8608398438</ele>
        <time>2015-09-08T07:37:19Z</time>
      </trkpt>
      <trkpt lat="42.81869" lon="-0.2982">
        <ele>2131.8608398438</ele>
        <time>2015-09-08T07:37:25Z</time>
      </trkpt>
      <trkpt lat="42.81866" lon="-0.29814">
        <ele>2133.302734375</ele>
        <time>2015-09-08T07:37:31Z</time>
      </trkpt>
      <trkpt lat="42.81866" lon="-0.29812">
        <ele>2133.302734375</ele>
        <time>2015-09-08T07:37:33Z</time>
      </trkpt>
      <trkpt lat="42.81857" lon="-0.29796">
        <ele>2131.3801269531</ele>
        <time>2015-09-08T07:37:49Z</time>
      </trkpt>
      <trkpt lat="42.81845" lon="-0.29783">
        <ele>2132.8220214844</ele>
        <time>2015-09-08T07:38:05Z</time>
      </trkpt>
      <trkpt lat="42.81841" lon="-0.29782">
        <ele>2131.8608398438</ele>
        <time>2015-09-08T07:38:09Z</time>
      </trkpt>
      <trkpt lat="42.81837" lon="-0.29779">
        <ele>2131.8608398438</ele>
        <time>2015-09-08T07:38:14Z</time>
      </trkpt>
      <trkpt lat="42.81821" lon="-0.29778">
        <ele>2131.3801269531</ele>
        <time>2015-09-08T07:38:29Z</time>
      </trkpt>
      <trkpt lat="42.81812" lon="-0.29767">
        <ele>2130.8996582031</ele>
        <time>2015-09-08T07:38:41Z</time>
      </trkpt>
      <trkpt lat="42.81803" lon="-0.29741">
        <ele>2130.8996582031</ele>
        <time>2015-09-08T07:38:58Z</time>
      </trkpt>
      <trkpt lat="42.81799" lon="-0.29736">
        <ele>2130.8996582031</ele>
        <time>2015-09-08T07:39:05Z</time>
      </trkpt>
      <trkpt lat="42.81779" lon="-0.29734">
        <ele>2130.4189453125</ele>
        <time>2015-09-08T07:39:24Z</time>
      </trkpt>
      <trkpt lat="42.81779" lon="-0.29724">
        <ele>2130.8996582031</ele>
        <time>2015-09-08T07:39:38Z</time>
      </trkpt>
      <trkpt lat="42.81772" lon="-0.29719">
        <ele>2130.8996582031</ele>
        <time>2015-09-08T07:40:05Z</time>
      </trkpt>
      <trkpt lat="42.81771" lon="-0.29711">
        <ele>2130.8996582031</ele>
        <time>2015-09-08T07:40:10Z</time>
      </trkpt>
      <trkpt lat="42.81767" lon="-0.29693">
        <ele>2130.8996582031</ele>
        <time>2015-09-08T07:40:24Z</time>
      </trkpt>
      <trkpt lat="42.81763" lon="-0.29675">
        <ele>2130.8996582031</ele>
        <time>2015-09-08T07:40:38Z</time>
      </trkpt>
      <trkpt lat="42.81762" lon="-0.29658">
        <ele>2130.8996582031</ele>
        <time>2015-09-08T07:40:52Z</time>
      </trkpt>
      <trkpt lat="42.8176" lon="-0.29653">
        <ele>2130.4189453125</ele>
        <time>2015-09-08T07:40:56Z</time>
      </trkpt>
      <trkpt lat="42.81749" lon="-0.2963">
        <ele>2130.8996582031</ele>
        <time>2015-09-08T07:41:14Z</time>
      </trkpt>
      <trkpt lat="42.8174" lon="-0.29609">
        <ele>2130.8996582031</ele>
        <time>2015-09-08T07:41:28Z</time>
      </trkpt>
      <trkpt lat="42.81733" lon="-0.29582">
        <ele>2130.4189453125</ele>
        <time>2015-09-08T07:41:45Z</time>
      </trkpt>
      <trkpt lat="42.81723" lon="-0.29565">
        <ele>2130.8996582031</ele>
        <time>2015-09-08T07:42:02Z</time>
      </trkpt>
      <trkpt lat="42.81718" lon="-0.29564">
        <ele>2134.2641601562</ele>
        <time>2015-09-08T07:42:13Z</time>
      </trkpt>
      <trkpt lat="42.81718" lon="-0.29564">
        <ele>2134.2641601562</ele>
        <time>2015-09-08T07:42:14Z</time>
      </trkpt>
      <trkpt lat="42.81719" lon="-0.29558">
        <ele>2133.7834472656</ele>
        <time>2015-09-08T07:42:32Z</time>
      </trkpt>
      <trkpt lat="42.81719" lon="-0.29546">
        <ele>2133.7834472656</ele>
        <time>2015-09-08T07:42:41Z</time>
      </trkpt>
      <trkpt lat="42.81721" lon="-0.29533">
        <ele>2134.7448730469</ele>
        <time>2015-09-08T07:43:01Z</time>
      </trkpt>
      <trkpt lat="42.81725" lon="-0.29514">
        <ele>2135.2253417969</ele>
        <time>2015-09-08T07:43:17Z</time>
      </trkpt>
      <trkpt lat="42.81732" lon="-0.29505">
        <ele>2135.7060546875</ele>
        <time>2015-09-08T07:43:55Z</time>
      </trkpt>
      <trkpt lat="42.81731" lon="-0.2949">
        <ele>2134.7448730469</ele>
        <time>2015-09-08T07:44:08Z</time>
      </trkpt>
      <trkpt lat="42.8173" lon="-0.29484">
        <ele>2136.1867675781</ele>
        <time>2015-09-08T07:44:14Z</time>
      </trkpt>
      <trkpt lat="42.8173" lon="-0.29472">
        <ele>2138.109375</ele>
        <time>2015-09-08T07:44:28Z</time>
      </trkpt>
      <trkpt lat="42.81733" lon="-0.29468">
        <ele>2138.109375</ele>
        <time>2015-09-08T07:44:34Z</time>
      </trkpt>
      <trkpt lat="42.81735" lon="-0.2946">
        <ele>2138.5900878906</ele>
        <time>2015-09-08T07:44:40Z</time>
      </trkpt>
      <trkpt lat="42.81737" lon="-0.29455">
        <ele>2138.5900878906</ele>
        <time>2015-09-08T07:44:45Z</time>
      </trkpt>
      <trkpt lat="42.81739" lon="-0.2945">
        <ele>2140.0322265625</ele>
        <time>2015-09-08T07:44:49Z</time>
      </trkpt>
      <trkpt lat="42.81732" lon="-0.29432">
        <ele>2140.5126953125</ele>
        <time>2015-09-08T07:44:59Z</time>
      </trkpt>
      <trkpt lat="42.81738" lon="-0.29423">
        <ele>2141.4741210938</ele>
        <time>2015-09-08T07:45:13Z</time>
      </trkpt>
      <trkpt lat="42.81743" lon="-0.29417">
        <ele>2142.916015625</ele>
        <time>2015-09-08T07:45:28Z</time>
      </trkpt>
      <trkpt lat="42.81747" lon="-0.29401">
        <ele>2142.435546875</ele>
        <time>2015-09-08T07:45:41Z</time>
      </trkpt>
      <trkpt lat="42.81747" lon="-0.29393">
        <ele>2142.435546875</ele>
        <time>2015-09-08T07:45:46Z</time>
      </trkpt>
      <trkpt lat="42.81749" lon="-0.29381">
        <ele>2143.8774414062</ele>
        <time>2015-09-08T07:45:55Z</time>
      </trkpt>
      <trkpt lat="42.81746" lon="-0.29367">
        <ele>2144.8386230469</ele>
        <time>2015-09-08T07:46:04Z</time>
      </trkpt>
      <trkpt lat="42.81749" lon="-0.29347">
        <ele>2147.72265625</ele>
        <time>2015-09-08T07:46:20Z</time>
      </trkpt>
      <trkpt lat="42.81749" lon="-0.29335">
        <ele>2147.2419433594</ele>
        <time>2015-09-08T07:46:28Z</time>
      </trkpt>
      <trkpt lat="42.81752" lon="-0.29324">
        <ele>2148.203125</ele>
        <time>2015-09-08T07:46:39Z</time>
      </trkpt>
      <trkpt lat="42.81756" lon="-0.29313">
        <ele>2149.1645507812</ele>
        <time>2015-09-08T07:46:50Z</time>
      </trkpt>
      <trkpt lat="42.81762" lon="-0.29305">
        <ele>2149.6452636719</ele>
        <time>2015-09-08T07:47:03Z</time>
      </trkpt>
      <trkpt lat="42.81766" lon="-0.29299">
        <ele>2151.5678710938</ele>
        <time>2015-09-08T07:47:20Z</time>
      </trkpt>
      <trkpt lat="42.81766" lon="-0.29292">
        <ele>2153.009765625</ele>
        <time>2015-09-08T07:47:34Z</time>
      </trkpt>
      <trkpt lat="42.81767" lon="-0.29293">
        <ele>2153.9711914062</ele>
        <time>2015-09-08T07:47:39Z</time>
      </trkpt>
      <trkpt lat="42.81767" lon="-0.29277">
        <ele>2156.3745117188</ele>
        <time>2015-09-08T07:47:59Z</time>
      </trkpt>
      <trkpt lat="42.81772" lon="-0.29268">
        <ele>2157.8166503906</ele>
        <time>2015-09-08T07:48:11Z</time>
      </trkpt>
      <trkpt lat="42.81771" lon="-0.29252">
        <ele>2158.7778320312</ele>
        <time>2015-09-08T07:48:25Z</time>
      </trkpt>
      <trkpt lat="42.81774" lon="-0.29244">
        <ele>2159.7390136719</ele>
        <time>2015-09-08T07:48:41Z</time>
      </trkpt>
      <trkpt lat="42.81774" lon="-0.29234">
        <ele>2162.623046875</ele>
        <time>2015-09-08T07:48:55Z</time>
      </trkpt>
      <trkpt lat="42.81772" lon="-0.29221">
        <ele>2165.0263671875</ele>
        <time>2015-09-08T07:49:08Z</time>
      </trkpt>
      <trkpt lat="42.81772" lon="-0.29193">
        <ele>2164.0649414062</ele>
        <time>2015-09-08T07:49:25Z</time>
      </trkpt>
      <trkpt lat="42.81775" lon="-0.29182">
        <ele>2164.5456542969</ele>
        <time>2015-09-08T07:49:34Z</time>
      </trkpt>
      <trkpt lat="42.81777" lon="-0.29169">
        <ele>2165.0263671875</ele>
        <time>2015-09-08T07:49:44Z</time>
      </trkpt>
      <trkpt lat="42.81774" lon="-0.2915">
        <ele>2165.5070800781</ele>
        <time>2015-09-08T07:49:58Z</time>
      </trkpt>
      <trkpt lat="42.81768" lon="-0.29125">
        <ele>2166.4682617188</ele>
        <time>2015-09-08T07:50:16Z</time>
      </trkpt>
      <trkpt lat="42.81768" lon="-0.29124">
        <ele>2166.4682617188</ele>
        <time>2015-09-08T07:50:17Z</time>
      </trkpt>
      <trkpt lat="42.81767" lon="-0.29109">
        <ele>2168.8715820312</ele>
        <time>2015-09-08T07:50:31Z</time>
      </trkpt>
      <trkpt lat="42.81765" lon="-0.29093">
        <ele>2166.4682617188</ele>
        <time>2015-09-08T07:50:46Z</time>
      </trkpt>
      <trkpt lat="42.81765" lon="-0.29089">
        <ele>2165.5070800781</ele>
        <time>2015-09-08T07:50:50Z</time>
      </trkpt>
      <trkpt lat="42.81767" lon="-0.29075">
        <ele>2162.623046875</ele>
        <time>2015-09-08T07:51:04Z</time>
      </trkpt>
      <trkpt lat="42.81766" lon="-0.29068">
        <ele>2162.1423339844</ele>
        <time>2015-09-08T07:51:15Z</time>
      </trkpt>
      <trkpt lat="42.81766" lon="-0.2906">
        <ele>2159.7390136719</ele>
        <time>2015-09-08T07:51:22Z</time>
      </trkpt>
      <trkpt lat="42.81769" lon="-0.29047">
        <ele>2157.8166503906</ele>
        <time>2015-09-08T07:51:34Z</time>
      </trkpt>
      <trkpt lat="42.8177" lon="-0.2903">
        <ele>2155.8935546875</ele>
        <time>2015-09-08T07:51:47Z</time>
      </trkpt>
      <trkpt lat="42.8177" lon="-0.29027">
        <ele>2155.4130859375</ele>
        <time>2015-09-08T07:51:50Z</time>
      </trkpt>
      <trkpt lat="42.81771" lon="-0.29009">
        <ele>2153.9711914062</ele>
        <time>2015-09-08T07:52:05Z</time>
      </trkpt>
      <trkpt lat="42.81775" lon="-0.28996">
        <ele>2153.009765625</ele>
        <time>2015-09-08T07:52:24Z</time>
      </trkpt>
      <trkpt lat="42.81782" lon="-0.28985">
        <ele>2152.0483398438</ele>
        <time>2015-09-08T07:52:39Z</time>
      </trkpt>
      <trkpt lat="42.81773" lon="-0.28971">
        <ele>2151.5678710938</ele>
        <time>2015-09-08T07:52:57Z</time>
      </trkpt>
      <trkpt lat="42.81776" lon="-0.28969">
        <ele>2150.6064453125</ele>
        <time>2015-09-08T07:53:18Z</time>
      </trkpt>
      <trkpt lat="42.81769" lon="-0.28952">
        <ele>2149.6452636719</ele>
        <time>2015-09-08T07:53:33Z</time>
      </trkpt>
      <trkpt lat="42.81767" lon="-0.28948">
        <ele>2149.6452636719</ele>
        <time>2015-09-08T07:53:52Z</time>
      </trkpt>
      <trkpt lat="42.81766" lon="-0.28932">
        <ele>2148.6838378906</ele>
        <time>2015-09-08T07:54:07Z</time>
      </trkpt>
      <trkpt lat="42.81777" lon="-0.28924">
        <ele>2147.72265625</ele>
        <time>2015-09-08T07:54:33Z</time>
      </trkpt>
      <trkpt lat="42.81771" lon="-0.28918">
        <ele>2147.2419433594</ele>
        <time>2015-09-08T07:54:51Z</time>
      </trkpt>
      <trkpt lat="42.81769" lon="-0.28911">
        <ele>2146.7612304688</ele>
        <time>2015-09-08T07:55:15Z</time>
      </trkpt>
      <trkpt lat="42.81769" lon="-0.28899">
        <ele>2146.7612304688</ele>
        <time>2015-09-08T07:55:24Z</time>
      </trkpt>
      <trkpt lat="42.81764" lon="-0.28872">
        <ele>2146.7612304688</ele>
        <time>2015-09-08T07:55:43Z</time>
      </trkpt>
      <trkpt lat="42.81764" lon="-0.28869">
        <ele>2147.2419433594</ele>
        <time>2015-09-08T07:55:46Z</time>
      </trkpt>
      <trkpt lat="42.81753" lon="-0.28847">
        <ele>2147.72265625</ele>
        <time>2015-09-08T07:56:07Z</time>
      </trkpt>
      <trkpt lat="42.81751" lon="-0.28833">
        <ele>2149.1645507812</ele>
        <time>2015-09-08T07:56:27Z</time>
      </trkpt>
      <trkpt lat="42.81751" lon="-0.28828">
        <ele>2148.203125</ele>
        <time>2015-09-08T07:56:48Z</time>
      </trkpt>
      <trkpt lat="42.81752" lon="-0.28825">
        <ele>2149.1645507812</ele>
        <time>2015-09-08T07:57:09Z</time>
      </trkpt>
      <trkpt lat="42.81745" lon="-0.28812">
        <ele>2147.72265625</ele>
        <time>2015-09-08T07:57:22Z</time>
      </trkpt>
      <trkpt lat="42.81742" lon="-0.28811">
        <ele>2146.7612304688</ele>
        <time>2015-09-08T07:57:25Z</time>
      </trkpt>
      <trkpt lat="42.81716" lon="-0.28807">
        <ele>2148.6838378906</ele>
        <time>2015-09-08T07:57:45Z</time>
      </trkpt>
      <trkpt lat="42.81705" lon="-0.28786">
        <ele>2147.2419433594</ele>
        <time>2015-09-08T07:58:03Z</time>
      </trkpt>
      <trkpt lat="42.81699" lon="-0.28785">
        <ele>2146.2807617188</ele>
        <time>2015-09-08T07:58:09Z</time>
      </trkpt>
      <trkpt lat="42.81685" lon="-0.28778">
        <ele>2148.203125</ele>
        <time>2015-09-08T07:58:25Z</time>
      </trkpt>
      <trkpt lat="42.81683" lon="-0.28778">
        <ele>2147.72265625</ele>
        <time>2015-09-08T07:58:41Z</time>
      </trkpt>
      <trkpt lat="42.81678" lon="-0.28776">
        <ele>2147.72265625</ele>
        <time>2015-09-08T07:59:06Z</time>
      </trkpt>
      <trkpt lat="42.81678" lon="-0.28775">
        <ele>2146.7612304688</ele>
        <time>2015-09-08T07:59:29Z</time>
      </trkpt>
      <trkpt lat="42.8168" lon="-0.28774">
        <ele>2147.72265625</ele>
        <time>2015-09-08T08:03:53Z</time>
      </trkpt>
      <trkpt lat="42.81681" lon="-0.28777">
        <ele>2147.72265625</ele>
        <time>2015-09-08T08:04:16Z</time>
      </trkpt>
      <trkpt lat="42.81682" lon="-0.28777">
        <ele>2147.72265625</ele>
        <time>2015-09-08T08:05:38Z</time>
      </trkpt>
      <trkpt lat="42.81682" lon="-0.28777">
        <ele>2146.7612304688</ele>
        <time>2015-09-08T08:06:22Z</time>
      </trkpt>
      <trkpt lat="42.81682" lon="-0.28777">
        <ele>2146.7612304688</ele>
        <time>2015-09-08T08:07:22Z</time>
      </trkpt>
      <trkpt lat="42.81682" lon="-0.28777">
        <ele>2145.8000488281</ele>
        <time>2015-09-08T08:07:40Z</time>
      </trkpt>
      <trkpt lat="42.81682" lon="-0.28777">
        <ele>2146.2807617188</ele>
        <time>2015-09-08T08:10:30Z</time>
      </trkpt>
      <trkpt lat="42.81685" lon="-0.28776">
        <ele>2145.8000488281</ele>
        <time>2015-09-08T08:10:54Z</time>
      </trkpt>
      <trkpt lat="42.81682" lon="-0.28773">
        <ele>2146.2807617188</ele>
        <time>2015-09-08T08:11:14Z</time>
      </trkpt>
      <trkpt lat="42.81685" lon="-0.28775">
        <ele>2145.8000488281</ele>
        <time>2015-09-08T08:11:46Z</time>
      </trkpt>
      <trkpt lat="42.81684" lon="-0.28779">
        <ele>2146.2807617188</ele>
        <time>2015-09-08T08:11:59Z</time>
      </trkpt>
      <trkpt lat="42.81678" lon="-0.28788">
        <ele>2147.2419433594</ele>
        <time>2015-09-08T08:12:15Z</time>
      </trkpt>
      <trkpt lat="42.81682" lon="-0.28785">
        <ele>2146.7612304688</ele>
        <time>2015-09-08T08:12:39Z</time>
      </trkpt>
      <trkpt lat="42.81685" lon="-0.28775">
        <ele>2146.2807617188</ele>
        <time>2015-09-08T08:12:53Z</time>
      </trkpt>
      <trkpt lat="42.81694" lon="-0.28784">
        <ele>2145.3193359375</ele>
        <time>2015-09-08T08:13:07Z</time>
      </trkpt>
      <trkpt lat="42.81701" lon="-0.28785">
        <ele>2144.8386230469</ele>
        <time>2015-09-08T08:13:16Z</time>
      </trkpt>
      <trkpt lat="42.8171" lon="-0.28797">
        <ele>2147.2419433594</ele>
        <time>2015-09-08T08:13:30Z</time>
      </trkpt>
      <trkpt lat="42.81722" lon="-0.28811">
        <ele>2147.72265625</ele>
        <time>2015-09-08T08:13:49Z</time>
      </trkpt>
      <trkpt lat="42.81737" lon="-0.28811">
        <ele>2146.2807617188</ele>
        <time>2015-09-08T08:14:05Z</time>
      </trkpt>
      <trkpt lat="42.81744" lon="-0.28819">
        <ele>2146.7612304688</ele>
        <time>2015-09-08T08:14:17Z</time>
      </trkpt>
      <trkpt lat="42.8175" lon="-0.28818">
        <ele>2148.203125</ele>
        <time>2015-09-08T08:14:32Z</time>
      </trkpt>
      <trkpt lat="42.81759" lon="-0.28808">
        <ele>2151.0871582031</ele>
        <time>2015-09-08T08:14:48Z</time>
      </trkpt>
      <trkpt lat="42.81763" lon="-0.28803">
        <ele>2152.5290527344</ele>
        <time>2015-09-08T08:15:03Z</time>
      </trkpt>
      <trkpt lat="42.81765" lon="-0.28796">
        <ele>2153.9711914062</ele>
        <time>2015-09-08T08:15:17Z</time>
      </trkpt>
      <trkpt lat="42.81767" lon="-0.28787">
        <ele>2156.3745117188</ele>
        <time>2015-09-08T08:15:31Z</time>
      </trkpt>
      <trkpt lat="42.81773" lon="-0.2878">
        <ele>2157.8166503906</ele>
        <time>2015-09-08T08:15:47Z</time>
      </trkpt>
      <trkpt lat="42.81779" lon="-0.28776">
        <ele>2160.2197265625</ele>
        <time>2015-09-08T08:16:00Z</time>
      </trkpt>
      <trkpt lat="42.81781" lon="-0.2877">
        <ele>2161.6618652344</ele>
        <time>2015-09-08T08:16:11Z</time>
      </trkpt>
      <trkpt lat="42.81784" lon="-0.28764">
        <ele>2162.1423339844</ele>
        <time>2015-09-08T08:16:26Z</time>
      </trkpt>
      <trkpt lat="42.81789" lon="-0.2876">
        <ele>2163.5842285156</ele>
        <time>2015-09-08T08:16:39Z</time>
      </trkpt>
      <trkpt lat="42.81796" lon="-0.28755">
        <ele>2165.5070800781</ele>
        <time>2015-09-08T08:17:01Z</time>
      </trkpt>
      <trkpt lat="42.81798" lon="-0.28754">
        <ele>2168.3908691406</ele>
        <time>2015-09-08T08:17:14Z</time>
      </trkpt>
      <trkpt lat="42.81793" lon="-0.28742">
        <ele>2166.4682617188</ele>
        <time>2015-09-08T08:17:49Z</time>
      </trkpt>
      <trkpt lat="42.81789" lon="-0.28729">
        <ele>2167.91015625</ele>
        <time>2015-09-08T08:18:02Z</time>
      </trkpt>
      <trkpt lat="42.81783" lon="-0.28717">
        <ele>2168.3908691406</ele>
        <time>2015-09-08T08:18:17Z</time>
      </trkpt>
      <trkpt lat="42.81777" lon="-0.2871">
        <ele>2169.3522949219</ele>
        <time>2015-09-08T08:18:28Z</time>
      </trkpt>
      <trkpt lat="42.81766" lon="-0.28694">
        <ele>2170.7941894531</ele>
        <time>2015-09-08T08:18:47Z</time>
      </trkpt>
      <trkpt lat="42.81761" lon="-0.2868">
        <ele>2172.236328125</ele>
        <time>2015-09-08T08:19:01Z</time>
      </trkpt>
      <trkpt lat="42.81756" lon="-0.28662">
        <ele>2174.1589355469</ele>
        <time>2015-09-08T08:19:19Z</time>
      </trkpt>
      <trkpt lat="42.81752" lon="-0.28654">
        <ele>2175.6008300781</ele>
        <time>2015-09-08T08:19:35Z</time>
      </trkpt>
      <trkpt lat="42.81747" lon="-0.28641">
        <ele>2178.0041503906</ele>
        <time>2015-09-08T08:19:50Z</time>
      </trkpt>
      <trkpt lat="42.81746" lon="-0.28639">
        <ele>2178.4848632812</ele>
        <time>2015-09-08T08:19:52Z</time>
      </trkpt>
      <trkpt lat="42.81743" lon="-0.28621">
        <ele>2179.9267578125</ele>
        <time>2015-09-08T08:20:09Z</time>
      </trkpt>
      <trkpt lat="42.81739" lon="-0.28601">
        <ele>2181.8493652344</ele>
        <time>2015-09-08T08:20:26Z</time>
      </trkpt>
      <trkpt lat="42.81733" lon="-0.28589">
        <ele>2182.330078125</ele>
        <time>2015-09-08T08:20:41Z</time>
      </trkpt>
      <trkpt lat="42.81727" lon="-0.28595">
        <ele>2183.2912597656</ele>
        <time>2015-09-08T08:20:49Z</time>
      </trkpt>
      <trkpt lat="42.81709" lon="-0.28608">
        <ele>2184.2526855469</ele>
        <time>2015-09-08T08:21:05Z</time>
      </trkpt>
      <trkpt lat="42.81697" lon="-0.28602">
        <ele>2183.7719726562</ele>
        <time>2015-09-08T08:21:20Z</time>
      </trkpt>
      <trkpt lat="42.81683" lon="-0.28584">
        <ele>2182.810546875</ele>
        <time>2015-09-08T08:21:39Z</time>
      </trkpt>
      <trkpt lat="42.81672" lon="-0.28576">
        <ele>2182.330078125</ele>
        <time>2015-09-08T08:21:53Z</time>
      </trkpt>
      <trkpt lat="42.8166" lon="-0.28585">
        <ele>2182.330078125</ele>
        <time>2015-09-08T08:22:08Z</time>
      </trkpt>
      <trkpt lat="42.81652" lon="-0.28594">
        <ele>2182.330078125</ele>
        <time>2015-09-08T08:22:18Z</time>
      </trkpt>
      <trkpt lat="42.81653" lon="-0.28588">
        <ele>2181.8493652344</ele>
        <time>2015-09-08T08:22:35Z</time>
      </trkpt>
      <trkpt lat="42.8165" lon="-0.28584">
        <ele>2180.4074707031</ele>
        <time>2015-09-08T08:22:45Z</time>
      </trkpt>
      <trkpt lat="42.81647" lon="-0.28573">
        <ele>2179.4460449219</ele>
        <time>2015-09-08T08:22:57Z</time>
      </trkpt>
      <trkpt lat="42.81639" lon="-0.28557">
        <ele>2178.4848632812</ele>
        <time>2015-09-08T08:23:13Z</time>
      </trkpt>
      <trkpt lat="42.81632" lon="-0.28531">
        <ele>2178.4848632812</ele>
        <time>2015-09-08T08:23:33Z</time>
      </trkpt>
      <trkpt lat="42.81625" lon="-0.28506">
        <ele>2178.9653320312</ele>
        <time>2015-09-08T08:23:51Z</time>
      </trkpt>
      <trkpt lat="42.81619" lon="-0.2849">
        <ele>2178.4848632812</ele>
        <time>2015-09-08T08:24:08Z</time>
      </trkpt>
      <trkpt lat="42.81618" lon="-0.28463">
        <ele>2178.0041503906</ele>
        <time>2015-09-08T08:24:27Z</time>
      </trkpt>
      <trkpt lat="42.81615" lon="-0.28435">
        <ele>2178.9653320312</ele>
        <time>2015-09-08T08:24:47Z</time>
      </trkpt>
      <trkpt lat="42.81613" lon="-0.28424">
        <ele>2179.9267578125</ele>
        <time>2015-09-08T08:24:55Z</time>
      </trkpt>
      <trkpt lat="42.81614" lon="-0.28417">
        <ele>2179.9267578125</ele>
        <time>2015-09-08T08:25:00Z</time>
      </trkpt>
      <trkpt lat="42.81613" lon="-0.28407">
        <ele>2179.4460449219</ele>
        <time>2015-09-08T08:25:08Z</time>
      </trkpt>
      <trkpt lat="42.81603" lon="-0.28384">
        <ele>2177.04296875</ele>
        <time>2015-09-08T08:25:26Z</time>
      </trkpt>
      <trkpt lat="42.81597" lon="-0.28367">
        <ele>2176.5622558594</ele>
        <time>2015-09-08T08:25:39Z</time>
      </trkpt>
      <trkpt lat="42.81586" lon="-0.28361">
        <ele>2176.0815429688</ele>
        <time>2015-09-08T08:25:51Z</time>
      </trkpt>
      <trkpt lat="42.81587" lon="-0.28335">
        <ele>2174.6396484375</ele>
        <time>2015-09-08T08:26:07Z</time>
      </trkpt>
      <trkpt lat="42.8159" lon="-0.28311">
        <ele>2175.1201171875</ele>
        <time>2015-09-08T08:26:23Z</time>
      </trkpt>
      <trkpt lat="42.81579" lon="-0.28298">
        <ele>2175.1201171875</ele>
        <time>2015-09-08T08:26:34Z</time>
      </trkpt>
      <trkpt lat="42.81568" lon="-0.28289">
        <ele>2175.1201171875</ele>
        <time>2015-09-08T08:26:44Z</time>
      </trkpt>
      <trkpt lat="42.81556" lon="-0.28295">
        <ele>2175.6008300781</ele>
        <time>2015-09-08T08:26:55Z</time>
      </trkpt>
      <trkpt lat="42.81541" lon="-0.28293">
        <ele>2174.6396484375</ele>
        <time>2015-09-08T08:27:09Z</time>
      </trkpt>
      <trkpt lat="42.81535" lon="-0.28286">
        <ele>2175.1201171875</ele>
        <time>2015-09-08T08:27:18Z</time>
      </trkpt>
      <trkpt lat="42.81534" lon="-0.28282">
        <ele>2176.0815429688</ele>
        <time>2015-09-08T08:27:21Z</time>
      </trkpt>
      <trkpt lat="42.8153" lon="-0.28252">
        <ele>2176.0815429688</ele>
        <time>2015-09-08T08:27:43Z</time>
      </trkpt>
      <trkpt lat="42.81527" lon="-0.28238">
        <ele>2176.0815429688</ele>
        <time>2015-09-08T08:27:56Z</time>
      </trkpt>
      <trkpt lat="42.81524" lon="-0.2823">
        <ele>2174.6396484375</ele>
        <time>2015-09-08T08:28:11Z</time>
      </trkpt>
      <trkpt lat="42.81522" lon="-0.28222">
        <ele>2173.6782226562</ele>
        <time>2015-09-08T08:28:25Z</time>
      </trkpt>
      <trkpt lat="42.81515" lon="-0.2821">
        <ele>2170.7941894531</ele>
        <time>2015-09-08T08:28:43Z</time>
      </trkpt>
      <trkpt lat="42.8151" lon="-0.28196">
        <ele>2167.4294433594</ele>
        <time>2015-09-08T08:29:00Z</time>
      </trkpt>
      <trkpt lat="42.81507" lon="-0.2818">
        <ele>2165.9875488281</ele>
        <time>2015-09-08T08:29:17Z</time>
      </trkpt>
      <trkpt lat="42.81505" lon="-0.28168">
        <ele>2162.623046875</ele>
        <time>2015-09-08T08:29:27Z</time>
      </trkpt>
      <trkpt lat="42.815" lon="-0.28152">
        <ele>2160.7004394531</ele>
        <time>2015-09-08T08:29:43Z</time>
      </trkpt>
      <trkpt lat="42.81497" lon="-0.28139">
        <ele>2158.2971191406</ele>
        <time>2015-09-08T08:29:57Z</time>
      </trkpt>
      <trkpt lat="42.81492" lon="-0.28125">
        <ele>2154.9323730469</ele>
        <time>2015-09-08T08:30:10Z</time>
      </trkpt>
      <trkpt lat="42.81486" lon="-0.28098">
        <ele>2153.009765625</ele>
        <time>2015-09-08T08:30:30Z</time>
      </trkpt>
      <trkpt lat="42.81489" lon="-0.28091">
        <ele>2153.4904785156</ele>
        <time>2015-09-08T08:30:37Z</time>
      </trkpt>
      <trkpt lat="42.81486" lon="-0.28061">
        <ele>2155.4130859375</ele>
        <time>2015-09-08T08:30:58Z</time>
      </trkpt>
      <trkpt lat="42.81486" lon="-0.28043">
        <ele>2155.8935546875</ele>
        <time>2015-09-08T08:31:13Z</time>
      </trkpt>
      <trkpt lat="42.81488" lon="-0.28019">
        <ele>2156.8552246094</ele>
        <time>2015-09-08T08:31:32Z</time>
      </trkpt>
      <trkpt lat="42.8149" lon="-0.27997">
        <ele>2159.2585449219</ele>
        <time>2015-09-08T08:31:50Z</time>
      </trkpt>
      <trkpt lat="42.81489" lon="-0.27996">
        <ele>2159.2585449219</ele>
        <time>2015-09-08T08:31:51Z</time>
      </trkpt>
      <trkpt lat="42.81474" lon="-0.27985">
        <ele>2160.7004394531</ele>
        <time>2015-09-08T08:32:10Z</time>
      </trkpt>
      <trkpt lat="42.81461" lon="-0.27975">
        <ele>2162.1423339844</ele>
        <time>2015-09-08T08:32:26Z</time>
      </trkpt>
      <trkpt lat="42.81453" lon="-0.27966">
        <ele>2163.5842285156</ele>
        <time>2015-09-08T08:32:40Z</time>
      </trkpt>
      <trkpt lat="42.81441" lon="-0.27954">
        <ele>2166.4682617188</ele>
        <time>2015-09-08T08:32:56Z</time>
      </trkpt>
      <trkpt lat="42.81435" lon="-0.27954">
        <ele>2166.4682617188</ele>
        <time>2015-09-08T08:33:02Z</time>
      </trkpt>
      <trkpt lat="42.8142" lon="-0.27943">
        <ele>2168.8715820312</ele>
        <time>2015-09-08T08:33:21Z</time>
      </trkpt>
      <trkpt lat="42.81417" lon="-0.2793">
        <ele>2172.236328125</ele>
        <time>2015-09-08T08:33:33Z</time>
      </trkpt>
      <trkpt lat="42.81416" lon="-0.27921">
        <ele>2173.6782226562</ele>
        <time>2015-09-08T08:33:47Z</time>
      </trkpt>
      <trkpt lat="42.81429" lon="-0.27916">
        <ele>2176.0815429688</ele>
        <time>2015-09-08T08:34:20Z</time>
      </trkpt>
      <trkpt lat="42.81431" lon="-0.27914">
        <ele>2176.0815429688</ele>
        <time>2015-09-08T08:34:24Z</time>
      </trkpt>
      <trkpt lat="42.81445" lon="-0.2791">
        <ele>2178.0041503906</ele>
        <time>2015-09-08T08:34:40Z</time>
      </trkpt>
      <trkpt lat="42.81451" lon="-0.27907">
        <ele>2178.9653320312</ele>
        <time>2015-09-08T08:34:49Z</time>
      </trkpt>
      <trkpt lat="42.81463" lon="-0.27899">
        <ele>2180.4074707031</ele>
        <time>2015-09-08T08:35:03Z</time>
      </trkpt>
      <trkpt lat="42.81465" lon="-0.27876">
        <ele>2181.3686523438</ele>
        <time>2015-09-08T08:35:20Z</time>
      </trkpt>
      <trkpt lat="42.81459" lon="-0.27854">
        <ele>2181.3686523438</ele>
        <time>2015-09-08T08:35:37Z</time>
      </trkpt>
      <trkpt lat="42.81458" lon="-0.27851">
        <ele>2181.8493652344</ele>
        <time>2015-09-08T08:35:40Z</time>
      </trkpt>
      <trkpt lat="42.81442" lon="-0.27837">
        <ele>2182.810546875</ele>
        <time>2015-09-08T08:35:58Z</time>
      </trkpt>
      <trkpt lat="42.81438" lon="-0.27834">
        <ele>2182.810546875</ele>
        <time>2015-09-08T08:36:02Z</time>
      </trkpt>
      <trkpt lat="42.81424" lon="-0.27829">
        <ele>2184.7333984375</ele>
        <time>2015-09-08T08:36:18Z</time>
      </trkpt>
      <trkpt lat="42.81421" lon="-0.27815">
        <ele>2186.6557617188</ele>
        <time>2015-09-08T08:36:32Z</time>
      </trkpt>
      <trkpt lat="42.81415" lon="-0.27809">
        <ele>2187.1364746094</ele>
        <time>2015-09-08T08:36:45Z</time>
      </trkpt>
      <trkpt lat="42.81409" lon="-0.27816">
        <ele>2188.0981445312</ele>
        <time>2015-09-08T08:37:51Z</time>
      </trkpt>
      <trkpt lat="42.81409" lon="-0.27804">
        <ele>2187.1364746094</ele>
        <time>2015-09-08T08:38:10Z</time>
      </trkpt>
      <trkpt lat="42.81406" lon="-0.2779">
        <ele>2187.1364746094</ele>
        <time>2015-09-08T08:38:26Z</time>
      </trkpt>
      <trkpt lat="42.81407" lon="-0.27781">
        <ele>2186.6557617188</ele>
        <time>2015-09-08T08:38:40Z</time>
      </trkpt>
      <trkpt lat="42.81409" lon="-0.27774">
        <ele>2185.6945800781</ele>
        <time>2015-09-08T08:39:09Z</time>
      </trkpt>
      <trkpt lat="42.81411" lon="-0.27768">
        <ele>2184.2526855469</ele>
        <time>2015-09-08T08:39:17Z</time>
      </trkpt>
      <trkpt lat="42.8141" lon="-0.27759">
        <ele>2183.2912597656</ele>
        <time>2015-09-08T08:39:27Z</time>
      </trkpt>
      <trkpt lat="42.81413" lon="-0.27745">
        <ele>2181.8493652344</ele>
        <time>2015-09-08T08:39:40Z</time>
      </trkpt>
      <trkpt lat="42.81418" lon="-0.27734">
        <ele>2179.4460449219</ele>
        <time>2015-09-08T08:39:59Z</time>
      </trkpt>
      <trkpt lat="42.81418" lon="-0.27733">
        <ele>2179.4460449219</ele>
        <time>2015-09-08T08:40:00Z</time>
      </trkpt>
      <trkpt lat="42.81425" lon="-0.27723">
        <ele>2176.0815429688</ele>
        <time>2015-09-08T08:40:20Z</time>
      </trkpt>
      <trkpt lat="42.81427" lon="-0.27713">
        <ele>2174.1589355469</ele>
        <time>2015-09-08T08:40:30Z</time>
      </trkpt>
      <trkpt lat="42.81431" lon="-0.27701">
        <ele>2173.6782226562</ele>
        <time>2015-09-08T08:40:40Z</time>
      </trkpt>
      <trkpt lat="42.81434" lon="-0.27691">
        <ele>2172.7170410156</ele>
        <time>2015-09-08T08:40:52Z</time>
      </trkpt>
      <trkpt lat="42.81441" lon="-0.27676">
        <ele>2172.7170410156</ele>
        <time>2015-09-08T08:41:12Z</time>
      </trkpt>
      <trkpt lat="42.81449" lon="-0.27662">
        <ele>2172.7170410156</ele>
        <time>2015-09-08T08:41:26Z</time>
      </trkpt>
      <trkpt lat="42.81457" lon="-0.2765">
        <ele>2171.7553710938</ele>
        <time>2015-09-08T08:41:40Z</time>
      </trkpt>
      <trkpt lat="42.8146" lon="-0.27642">
        <ele>2171.2746582031</ele>
        <time>2015-09-08T08:42:01Z</time>
      </trkpt>
      <trkpt lat="42.81465" lon="-0.27638">
        <ele>2171.2746582031</ele>
        <time>2015-09-08T08:42:15Z</time>
      </trkpt>
      <trkpt lat="42.81456" lon="-0.27626">
        <ele>2168.8715820312</ele>
        <time>2015-09-08T08:42:33Z</time>
      </trkpt>
      <trkpt lat="42.81451" lon="-0.27621">
        <ele>2167.4294433594</ele>
        <time>2015-09-08T08:42:42Z</time>
      </trkpt>
      <trkpt lat="42.81443" lon="-0.27595">
        <ele>2165.0263671875</ele>
        <time>2015-09-08T08:43:01Z</time>
      </trkpt>
      <trkpt lat="42.81444" lon="-0.27568">
        <ele>2164.5456542969</ele>
        <time>2015-09-08T08:43:17Z</time>
      </trkpt>
      <trkpt lat="42.81443" lon="-0.27558">
        <ele>2165.9875488281</ele>
        <time>2015-09-08T08:43:23Z</time>
      </trkpt>
      <trkpt lat="42.81435" lon="-0.27533">
        <ele>2167.91015625</ele>
        <time>2015-09-08T08:43:41Z</time>
      </trkpt>
      <trkpt lat="42.81427" lon="-0.27512">
        <ele>2165.5070800781</ele>
        <time>2015-09-08T08:43:57Z</time>
      </trkpt>
      <trkpt lat="42.81417" lon="-0.27484">
        <ele>2163.1037597656</ele>
        <time>2015-09-08T08:44:18Z</time>
      </trkpt>
      <trkpt lat="42.81414" lon="-0.27461">
        <ele>2161.6618652344</ele>
        <time>2015-09-08T08:44:33Z</time>
      </trkpt>
      <trkpt lat="42.81405" lon="-0.27442">
        <ele>2161.1811523438</ele>
        <time>2015-09-08T08:44:47Z</time>
      </trkpt>
      <trkpt lat="42.81402" lon="-0.27434">
        <ele>2161.1811523438</ele>
        <time>2015-09-08T08:44:54Z</time>
      </trkpt>
      <trkpt lat="42.81395" lon="-0.27422">
        <ele>2160.7004394531</ele>
        <time>2015-09-08T08:45:11Z</time>
      </trkpt>
      <trkpt lat="42.81394" lon="-0.27411">
        <ele>2159.7390136719</ele>
        <time>2015-09-08T08:45:33Z</time>
      </trkpt>
      <trkpt lat="42.81388" lon="-0.27405">
        <ele>2160.7004394531</ele>
        <time>2015-09-08T08:45:45Z</time>
      </trkpt>
      <trkpt lat="42.81382" lon="-0.27393">
        <ele>2161.1811523438</ele>
        <time>2015-09-08T08:46:00Z</time>
      </trkpt>
      <trkpt lat="42.81382" lon="-0.27378">
        <ele>2161.6618652344</ele>
        <time>2015-09-08T08:46:18Z</time>
      </trkpt>
      <trkpt lat="42.81382" lon="-0.2737">
        <ele>2162.1423339844</ele>
        <time>2015-09-08T08:46:23Z</time>
      </trkpt>
      <trkpt lat="42.81378" lon="-0.27366">
        <ele>2162.1423339844</ele>
        <time>2015-09-08T08:46:27Z</time>
      </trkpt>
      <trkpt lat="42.81378" lon="-0.27361">
        <ele>2162.1423339844</ele>
        <time>2015-09-08T08:46:30Z</time>
      </trkpt>
      <trkpt lat="42.81374" lon="-0.27345">
        <ele>2162.1423339844</ele>
        <time>2015-09-08T08:46:41Z</time>
      </trkpt>
      <trkpt lat="42.81372" lon="-0.27337">
        <ele>2162.1423339844</ele>
        <time>2015-09-08T08:46:48Z</time>
      </trkpt>
      <trkpt lat="42.81373" lon="-0.27328">
        <ele>2162.623046875</ele>
        <time>2015-09-08T08:46:54Z</time>
      </trkpt>
      <trkpt lat="42.81375" lon="-0.27321">
        <ele>2163.5842285156</ele>
        <time>2015-09-08T08:46:59Z</time>
      </trkpt>
      <trkpt lat="42.81372" lon="-0.27297">
        <ele>2165.0263671875</ele>
        <time>2015-09-08T08:47:16Z</time>
      </trkpt>
      <trkpt lat="42.8137" lon="-0.27274">
        <ele>2166.4682617188</ele>
        <time>2015-09-08T08:47:32Z</time>
      </trkpt>
      <trkpt lat="42.8137" lon="-0.27266">
        <ele>2165.5070800781</ele>
        <time>2015-09-08T08:47:45Z</time>
      </trkpt>
      <trkpt lat="42.81369" lon="-0.27251">
        <ele>2164.5456542969</ele>
        <time>2015-09-08T08:48:01Z</time>
      </trkpt>
      <trkpt lat="42.81366" lon="-0.27244">
        <ele>2163.1037597656</ele>
        <time>2015-09-08T08:48:09Z</time>
      </trkpt>
      <trkpt lat="42.81363" lon="-0.2723">
        <ele>2161.6618652344</ele>
        <time>2015-09-08T08:48:25Z</time>
      </trkpt>
      <trkpt lat="42.81361" lon="-0.27219">
        <ele>2158.2971191406</ele>
        <time>2015-09-08T08:48:35Z</time>
      </trkpt>
      <trkpt lat="42.81362" lon="-0.27212">
        <ele>2157.3359375</ele>
        <time>2015-09-08T08:48:41Z</time>
      </trkpt>
      <trkpt lat="42.81364" lon="-0.272">
        <ele>2156.8552246094</ele>
        <time>2015-09-08T08:48:54Z</time>
      </trkpt>
      <trkpt lat="42.81369" lon="-0.27187">
        <ele>2154.4516601562</ele>
        <time>2015-09-08T08:49:11Z</time>
      </trkpt>
      <trkpt lat="42.81373" lon="-0.27164">
        <ele>2151.5678710938</ele>
        <time>2015-09-08T08:49:27Z</time>
      </trkpt>
      <trkpt lat="42.81373" lon="-0.27128">
        <ele>2150.1259765625</ele>
        <time>2015-09-08T08:49:48Z</time>
      </trkpt>
      <trkpt lat="42.81373" lon="-0.27106">
        <ele>2149.6452636719</ele>
        <time>2015-09-08T08:50:02Z</time>
      </trkpt>
      <trkpt lat="42.81372" lon="-0.27085">
        <ele>2149.6452636719</ele>
        <time>2015-09-08T08:50:17Z</time>
      </trkpt>
      <trkpt lat="42.81374" lon="-0.27057">
        <ele>2149.6452636719</ele>
        <time>2015-09-08T08:50:34Z</time>
      </trkpt>
      <trkpt lat="42.8138" lon="-0.27029">
        <ele>2151.0871582031</ele>
        <time>2015-09-08T08:50:52Z</time>
      </trkpt>
      <trkpt lat="42.81381" lon="-0.27024">
        <ele>2151.5678710938</ele>
        <time>2015-09-08T08:50:56Z</time>
      </trkpt>
      <trkpt lat="42.81389" lon="-0.27007">
        <ele>2151.0871582031</ele>
        <time>2015-09-08T08:51:11Z</time>
      </trkpt>
      <trkpt lat="42.81395" lon="-0.26999">
        <ele>2149.6452636719</ele>
        <time>2015-09-08T08:51:22Z</time>
      </trkpt>
      <trkpt lat="42.81401" lon="-0.26984">
        <ele>2150.1259765625</ele>
        <time>2015-09-08T08:51:37Z</time>
      </trkpt>
      <trkpt lat="42.81401" lon="-0.2697">
        <ele>2150.6064453125</ele>
        <time>2015-09-08T08:51:54Z</time>
      </trkpt>
      <trkpt lat="42.81404" lon="-0.26966">
        <ele>2151.0871582031</ele>
        <time>2015-09-08T08:52:06Z</time>
      </trkpt>
      <trkpt lat="42.81403" lon="-0.26971">
        <ele>2150.1259765625</ele>
        <time>2015-09-08T08:52:45Z</time>
      </trkpt>
      <trkpt lat="42.81405" lon="-0.26961">
        <ele>2150.6064453125</ele>
        <time>2015-09-08T08:54:18Z</time>
      </trkpt>
      <trkpt lat="42.81408" lon="-0.26952">
        <ele>2150.6064453125</ele>
        <time>2015-09-08T08:54:25Z</time>
      </trkpt>
      <trkpt lat="42.81417" lon="-0.26925">
        <ele>2151.0871582031</ele>
        <time>2015-09-08T08:54:47Z</time>
      </trkpt>
      <trkpt lat="42.81432" lon="-0.26902">
        <ele>2152.5290527344</ele>
        <time>2015-09-08T08:55:08Z</time>
      </trkpt>
      <trkpt lat="42.81444" lon="-0.26882">
        <ele>2153.4904785156</ele>
        <time>2015-09-08T08:55:27Z</time>
      </trkpt>
      <trkpt lat="42.81447" lon="-0.26864">
        <ele>2153.009765625</ele>
        <time>2015-09-08T08:55:43Z</time>
      </trkpt>
      <trkpt lat="42.81439" lon="-0.26864">
        <ele>2152.5290527344</ele>
        <time>2015-09-08T08:55:56Z</time>
      </trkpt>
      <trkpt lat="42.81422" lon="-0.26856">
        <ele>2152.5290527344</ele>
        <time>2015-09-08T08:56:14Z</time>
      </trkpt>
      <trkpt lat="42.81418" lon="-0.26855">
        <ele>2152.0483398438</ele>
        <time>2015-09-08T08:56:19Z</time>
      </trkpt>
      <trkpt lat="42.81416" lon="-0.26841">
        <ele>2155.4130859375</ele>
        <time>2015-09-08T08:56:30Z</time>
      </trkpt>
      <trkpt lat="42.81415" lon="-0.26818">
        <ele>2155.8935546875</ele>
        <time>2015-09-08T08:56:47Z</time>
      </trkpt>
      <trkpt lat="42.81414" lon="-0.26817">
        <ele>2156.3745117188</ele>
        <time>2015-09-08T08:56:49Z</time>
      </trkpt>
      <trkpt lat="42.81411" lon="-0.26814">
        <ele>2156.3745117188</ele>
        <time>2015-09-08T08:56:52Z</time>
      </trkpt>
      <trkpt lat="42.81408" lon="-0.26798">
        <ele>2155.8935546875</ele>
        <time>2015-09-08T08:57:03Z</time>
      </trkpt>
      <trkpt lat="42.81407" lon="-0.26772">
        <ele>2157.3359375</ele>
        <time>2015-09-08T08:57:20Z</time>
      </trkpt>
      <trkpt lat="42.81407" lon="-0.26743">
        <ele>2157.8166503906</ele>
        <time>2015-09-08T08:57:41Z</time>
      </trkpt>
      <trkpt lat="42.81405" lon="-0.26722">
        <ele>2159.7390136719</ele>
        <time>2015-09-08T08:57:57Z</time>
      </trkpt>
      <trkpt lat="42.81404" lon="-0.26717">
        <ele>2160.7004394531</ele>
        <time>2015-09-08T08:58:01Z</time>
      </trkpt>
      <trkpt lat="42.81404" lon="-0.26716">
        <ele>2161.1811523438</ele>
        <time>2015-09-08T08:58:02Z</time>
      </trkpt>
      <trkpt lat="42.81396" lon="-0.26701">
        <ele>2163.1037597656</ele>
        <time>2015-09-08T08:58:16Z</time>
      </trkpt>
      <trkpt lat="42.81393" lon="-0.2668">
        <ele>2164.0649414062</ele>
        <time>2015-09-08T08:58:35Z</time>
      </trkpt>
      <trkpt lat="42.81389" lon="-0.2667">
        <ele>2166.4682617188</ele>
        <time>2015-09-08T08:58:48Z</time>
      </trkpt>
      <trkpt lat="42.81385" lon="-0.26662">
        <ele>2167.91015625</ele>
        <time>2015-09-08T08:59:00Z</time>
      </trkpt>
      <trkpt lat="42.81383" lon="-0.26652">
        <ele>2168.3908691406</ele>
        <time>2015-09-08T08:59:14Z</time>
      </trkpt>
      <trkpt lat="42.81384" lon="-0.26642">
        <ele>2170.7941894531</ele>
        <time>2015-09-08T08:59:27Z</time>
      </trkpt>
      <trkpt lat="42.81379" lon="-0.26636">
        <ele>2172.7170410156</ele>
        <time>2015-09-08T08:59:40Z</time>
      </trkpt>
      <trkpt lat="42.81378" lon="-0.26631">
        <ele>2174.1589355469</ele>
        <time>2015-09-08T08:59:53Z</time>
      </trkpt>
      <trkpt lat="42.81379" lon="-0.26628">
        <ele>2175.6008300781</ele>
        <time>2015-09-08T08:59:56Z</time>
      </trkpt>
      <trkpt lat="42.81376" lon="-0.26621">
        <ele>2178.9653320312</ele>
        <time>2015-09-08T09:00:08Z</time>
      </trkpt>
      <trkpt lat="42.81376" lon="-0.26609">
        <ele>2179.9267578125</ele>
        <time>2015-09-08T09:00:26Z</time>
      </trkpt>
      <trkpt lat="42.81374" lon="-0.26599">
        <ele>2181.8493652344</ele>
        <time>2015-09-08T09:00:39Z</time>
      </trkpt>
      <trkpt lat="42.81378" lon="-0.26584">
        <ele>2183.7719726562</ele>
        <time>2015-09-08T09:00:55Z</time>
      </trkpt>
      <trkpt lat="42.81377" lon="-0.26577">
        <ele>2184.7333984375</ele>
        <time>2015-09-08T09:01:01Z</time>
      </trkpt>
      <trkpt lat="42.81379" lon="-0.26569">
        <ele>2185.2138671875</ele>
        <time>2015-09-08T09:01:17Z</time>
      </trkpt>
      <trkpt lat="42.81375" lon="-0.26547">
        <ele>2187.6171875</ele>
        <time>2015-09-08T09:01:36Z</time>
      </trkpt>
      <trkpt lat="42.81369" lon="-0.26524">
        <ele>2190.5012207031</ele>
        <time>2015-09-08T09:01:58Z</time>
      </trkpt>
      <trkpt lat="42.81365" lon="-0.26509">
        <ele>2192.9045410156</ele>
        <time>2015-09-08T09:02:15Z</time>
      </trkpt>
      <trkpt lat="42.81361" lon="-0.26503">
        <ele>2194.8271484375</ele>
        <time>2015-09-08T09:02:28Z</time>
      </trkpt>
      <trkpt lat="42.81361" lon="-0.265">
        <ele>2196.2692871094</ele>
        <time>2015-09-08T09:02:32Z</time>
      </trkpt>
      <trkpt lat="42.81361" lon="-0.26496">
        <ele>2197.23046875</ele>
        <time>2015-09-08T09:02:39Z</time>
      </trkpt>
      <trkpt lat="42.81359" lon="-0.26488">
        <ele>2198.6723632812</ele>
        <time>2015-09-08T09:02:53Z</time>
      </trkpt>
      <trkpt lat="42.81357" lon="-0.26483">
        <ele>2201.5563964844</ele>
        <time>2015-09-08T09:03:02Z</time>
      </trkpt>
      <trkpt lat="42.81352" lon="-0.26479">
        <ele>2203.9597167969</ele>
        <time>2015-09-08T09:03:16Z</time>
      </trkpt>
      <trkpt lat="42.81349" lon="-0.26473">
        <ele>2205.4018554688</ele>
        <time>2015-09-08T09:03:30Z</time>
      </trkpt>
      <trkpt lat="42.81346" lon="-0.26464">
        <ele>2206.3630371094</ele>
        <time>2015-09-08T09:03:40Z</time>
      </trkpt>
      <trkpt lat="42.81341" lon="-0.26453">
        <ele>2208.7663574219</ele>
        <time>2015-09-08T09:03:56Z</time>
      </trkpt>
      <trkpt lat="42.81337" lon="-0.26443">
        <ele>2211.650390625</ele>
        <time>2015-09-08T09:04:08Z</time>
      </trkpt>
      <trkpt lat="42.81334" lon="-0.26429">
        <ele>2213.5727539062</ele>
        <time>2015-09-08T09:04:24Z</time>
      </trkpt>
      <trkpt lat="42.81334" lon="-0.26425">
        <ele>2214.0534667969</ele>
        <time>2015-09-08T09:04:42Z</time>
      </trkpt>
      <trkpt lat="42.81332" lon="-0.26412">
        <ele>2215.4956054688</ele>
        <time>2015-09-08T09:04:59Z</time>
      </trkpt>
      <trkpt lat="42.81328" lon="-0.26391">
        <ele>2215.0148925781</ele>
        <time>2015-09-08T09:05:17Z</time>
      </trkpt>
      <trkpt lat="42.81318" lon="-0.26371">
        <ele>2217.41796875</ele>
        <time>2015-09-08T09:05:38Z</time>
      </trkpt>
      <trkpt lat="42.81317" lon="-0.26349">
        <ele>2216.9375</ele>
        <time>2015-09-08T09:05:56Z</time>
      </trkpt>
      <trkpt lat="42.81316" lon="-0.26341">
        <ele>2216.4567871094</ele>
        <time>2015-09-08T09:06:05Z</time>
      </trkpt>
      <trkpt lat="42.81312" lon="-0.2633">
        <ele>2215.4956054688</ele>
        <time>2015-09-08T09:06:13Z</time>
      </trkpt>
      <trkpt lat="42.8131" lon="-0.26322">
        <ele>2216.4567871094</ele>
        <time>2015-09-08T09:06:20Z</time>
      </trkpt>
      <trkpt lat="42.81304" lon="-0.26301">
        <ele>2215.4956054688</ele>
        <time>2015-09-08T09:06:37Z</time>
      </trkpt>
      <trkpt lat="42.81299" lon="-0.26295">
        <ele>2218.8601074219</ele>
        <time>2015-09-08T09:06:52Z</time>
      </trkpt>
      <trkpt lat="42.81294" lon="-0.26281">
        <ele>2219.3408203125</ele>
        <time>2015-09-08T09:07:07Z</time>
      </trkpt>
      <trkpt lat="42.81288" lon="-0.26263">
        <ele>2219.8212890625</ele>
        <time>2015-09-08T09:07:26Z</time>
      </trkpt>
      <trkpt lat="42.81285" lon="-0.26256">
        <ele>2222.2248535156</ele>
        <time>2015-09-08T09:07:36Z</time>
      </trkpt>
      <trkpt lat="42.81285" lon="-0.26254">
        <ele>2222.7055664062</ele>
        <time>2015-09-08T09:07:38Z</time>
      </trkpt>
      <trkpt lat="42.81281" lon="-0.2624">
        <ele>2224.1474609375</ele>
        <time>2015-09-08T09:07:53Z</time>
      </trkpt>
      <trkpt lat="42.81277" lon="-0.26224">
        <ele>2223.1862792969</ele>
        <time>2015-09-08T09:08:09Z</time>
      </trkpt>
      <trkpt lat="42.8127" lon="-0.26211">
        <ele>2224.1474609375</ele>
        <time>2015-09-08T09:08:22Z</time>
      </trkpt>
      <trkpt lat="42.81262" lon="-0.26198">
        <ele>2227.0314941406</ele>
        <time>2015-09-08T09:08:39Z</time>
      </trkpt>
      <trkpt lat="42.81262" lon="-0.26185">
        <ele>2228.4733886719</ele>
        <time>2015-09-08T09:08:53Z</time>
      </trkpt>
      <trkpt lat="42.81264" lon="-0.26165">
        <ele>2229.4345703125</ele>
        <time>2015-09-08T09:09:10Z</time>
      </trkpt>
      <trkpt lat="42.81262" lon="-0.26147">
        <ele>2230.8767089844</ele>
        <time>2015-09-08T09:09:27Z</time>
      </trkpt>
      <trkpt lat="42.81262" lon="-0.26132">
        <ele>2232.3186035156</ele>
        <time>2015-09-08T09:09:42Z</time>
      </trkpt>
      <trkpt lat="42.81263" lon="-0.26127">
        <ele>2233.2797851562</ele>
        <time>2015-09-08T09:09:48Z</time>
      </trkpt>
      <trkpt lat="42.81263" lon="-0.26124">
        <ele>2234.2412109375</ele>
        <time>2015-09-08T09:09:50Z</time>
      </trkpt>
      <trkpt lat="42.81263" lon="-0.26115">
        <ele>2235.6831054688</ele>
        <time>2015-09-08T09:10:04Z</time>
      </trkpt>
      <trkpt lat="42.81258" lon="-0.26104">
        <ele>2237.1252441406</ele>
        <time>2015-09-08T09:10:17Z</time>
      </trkpt>
      <trkpt lat="42.81253" lon="-0.26097">
        <ele>2236.64453125</ele>
        <time>2015-09-08T09:10:26Z</time>
      </trkpt>
      <trkpt lat="42.81248" lon="-0.26084">
        <ele>2240.0092773438</ele>
        <time>2015-09-08T09:10:41Z</time>
      </trkpt>
      <trkpt lat="42.8124" lon="-0.26072">
        <ele>2242.4125976562</ele>
        <time>2015-09-08T09:10:58Z</time>
      </trkpt>
      <trkpt lat="42.81233" lon="-0.2606">
        <ele>2243.8544921875</ele>
        <time>2015-09-08T09:11:14Z</time>
      </trkpt>
      <trkpt lat="42.81228" lon="-0.26052">
        <ele>2245.7770996094</ele>
        <time>2015-09-08T09:11:27Z</time>
      </trkpt>
      <trkpt lat="42.81228" lon="-0.2605">
        <ele>2246.2578125</ele>
        <time>2015-09-08T09:11:28Z</time>
      </trkpt>
      <trkpt lat="42.81227" lon="-0.26022">
        <ele>2247.6997070312</ele>
        <time>2015-09-08T09:11:48Z</time>
      </trkpt>
      <trkpt lat="42.81221" lon="-0.26003">
        <ele>2246.73828125</ele>
        <time>2015-09-08T09:12:03Z</time>
      </trkpt>
      <trkpt lat="42.81224" lon="-0.25988">
        <ele>2247.6997070312</ele>
        <time>2015-09-08T09:12:18Z</time>
      </trkpt>
      <trkpt lat="42.81217" lon="-0.25968">
        <ele>2250.1030273438</ele>
        <time>2015-09-08T09:12:38Z</time>
      </trkpt>
      <trkpt lat="42.81217" lon="-0.25951">
        <ele>2252.0256347656</ele>
        <time>2015-09-08T09:12:52Z</time>
      </trkpt>
      <trkpt lat="42.81217" lon="-0.25934">
        <ele>2252.0256347656</ele>
        <time>2015-09-08T09:13:07Z</time>
      </trkpt>
      <trkpt lat="42.81216" lon="-0.25918">
        <ele>2248.1801757812</ele>
        <time>2015-09-08T09:13:19Z</time>
      </trkpt>
      <trkpt lat="42.81212" lon="-0.25896">
        <ele>2247.6997070312</ele>
        <time>2015-09-08T09:13:36Z</time>
      </trkpt>
      <trkpt lat="42.81211" lon="-0.25868">
        <ele>2247.6997070312</ele>
        <time>2015-09-08T09:13:56Z</time>
      </trkpt>
      <trkpt lat="42.8121" lon="-0.25859">
        <ele>2249.1416015625</ele>
        <time>2015-09-08T09:14:03Z</time>
      </trkpt>
      <trkpt lat="42.8121" lon="-0.25859">
        <ele>2249.6223144531</ele>
        <time>2015-09-08T09:14:04Z</time>
      </trkpt>
      <trkpt lat="42.812" lon="-0.25846">
        <ele>2252.0256347656</ele>
        <time>2015-09-08T09:14:20Z</time>
      </trkpt>
      <trkpt lat="42.81197" lon="-0.25833">
        <ele>2252.9870605469</ele>
        <time>2015-09-08T09:14:35Z</time>
      </trkpt>
      <trkpt lat="42.81194" lon="-0.25819">
        <ele>2254.4289550781</ele>
        <time>2015-09-08T09:14:50Z</time>
      </trkpt>
      <trkpt lat="42.81193" lon="-0.25804">
        <ele>2255.3903808594</ele>
        <time>2015-09-08T09:15:05Z</time>
      </trkpt>
      <trkpt lat="42.81187" lon="-0.25793">
        <ele>2257.3129882812</ele>
        <time>2015-09-08T09:15:21Z</time>
      </trkpt>
      <trkpt lat="42.81183" lon="-0.25784">
        <ele>2257.7937011719</ele>
        <time>2015-09-08T09:15:33Z</time>
      </trkpt>
      <trkpt lat="42.81182" lon="-0.25774">
        <ele>2257.3129882812</ele>
        <time>2015-09-08T09:15:44Z</time>
      </trkpt>
      <trkpt lat="42.81183" lon="-0.25767">
        <ele>2258.2741699219</ele>
        <time>2015-09-08T09:15:52Z</time>
      </trkpt>
      <trkpt lat="42.81179" lon="-0.25757">
        <ele>2261.6389160156</ele>
        <time>2015-09-08T09:16:06Z</time>
      </trkpt>
      <trkpt lat="42.81176" lon="-0.25756">
        <ele>2261.6389160156</ele>
        <time>2015-09-08T09:16:25Z</time>
      </trkpt>
      <trkpt lat="42.8117" lon="-0.25744">
        <ele>2263.5612792969</ele>
        <time>2015-09-08T09:16:50Z</time>
      </trkpt>
      <trkpt lat="42.81165" lon="-0.25725">
        <ele>2263.5612792969</ele>
        <time>2015-09-08T09:17:09Z</time>
      </trkpt>
      <trkpt lat="42.81162" lon="-0.25714">
        <ele>2264.5227050781</ele>
        <time>2015-09-08T09:17:22Z</time>
      </trkpt>
      <trkpt lat="42.81161" lon="-0.25708">
        <ele>2265.4841308594</ele>
        <time>2015-09-08T09:17:29Z</time>
      </trkpt>
      <trkpt lat="42.81157" lon="-0.25706">
        <ele>2267.8872070312</ele>
        <time>2015-09-08T09:17:40Z</time>
      </trkpt>
      <trkpt lat="42.81152" lon="-0.25692">
        <ele>2268.8488769531</ele>
        <time>2015-09-08T09:17:55Z</time>
      </trkpt>
      <trkpt lat="42.81146" lon="-0.25687">
        <ele>2269.3295898438</ele>
        <time>2015-09-08T09:18:08Z</time>
      </trkpt>
      <trkpt lat="42.81145" lon="-0.25678">
        <ele>2270.2907714844</ele>
        <time>2015-09-08T09:18:24Z</time>
      </trkpt>
      <trkpt lat="42.81143" lon="-0.2567">
        <ele>2271.7326660156</ele>
        <time>2015-09-08T09:18:35Z</time>
      </trkpt>
      <trkpt lat="42.81143" lon="-0.2566">
        <ele>2270.2907714844</ele>
        <time>2015-09-08T09:18:47Z</time>
      </trkpt>
      <trkpt lat="42.81143" lon="-0.25652">
        <ele>2272.2133789062</ele>
        <time>2015-09-08T09:19:06Z</time>
      </trkpt>
      <trkpt lat="42.8114" lon="-0.25637">
        <ele>2275.0971679688</ele>
        <time>2015-09-08T09:19:24Z</time>
      </trkpt>
      <trkpt lat="42.81138" lon="-0.25628">
        <ele>2277.5004882812</ele>
        <time>2015-09-08T09:19:40Z</time>
      </trkpt>
      <trkpt lat="42.81136" lon="-0.25617">
        <ele>2278.4619140625</ele>
        <time>2015-09-08T09:20:00Z</time>
      </trkpt>
      <trkpt lat="42.81133" lon="-0.25614">
        <ele>2279.9038085938</ele>
        <time>2015-09-08T09:20:10Z</time>
      </trkpt>
      <trkpt lat="42.8113" lon="-0.25607">
        <ele>2282.7875976562</ele>
        <time>2015-09-08T09:20:21Z</time>
      </trkpt>
      <trkpt lat="42.81128" lon="-0.25597">
        <ele>2284.7106933594</ele>
        <time>2015-09-08T09:20:35Z</time>
      </trkpt>
      <trkpt lat="42.81123" lon="-0.25592">
        <ele>2284.7106933594</ele>
        <time>2015-09-08T09:20:53Z</time>
      </trkpt>
      <trkpt lat="42.81115" lon="-0.25586">
        <ele>2284.7106933594</ele>
        <time>2015-09-08T09:21:05Z</time>
      </trkpt>
      <trkpt lat="42.81111" lon="-0.25579">
        <ele>2284.7106933594</ele>
        <time>2015-09-08T09:21:17Z</time>
      </trkpt>
      <trkpt lat="42.81112" lon="-0.25566">
        <ele>2284.7106933594</ele>
        <time>2015-09-08T09:21:30Z</time>
      </trkpt>
      <trkpt lat="42.81113" lon="-0.25553">
        <ele>2285.1911621094</ele>
        <time>2015-09-08T09:21:42Z</time>
      </trkpt>
      <trkpt lat="42.81112" lon="-0.25543">
        <ele>2285.1911621094</ele>
        <time>2015-09-08T09:21:57Z</time>
      </trkpt>
      <trkpt lat="42.81113" lon="-0.25538">
        <ele>2283.7490234375</ele>
        <time>2015-09-08T09:22:11Z</time>
      </trkpt>
      <trkpt lat="42.81112" lon="-0.25529">
        <ele>2285.671875</ele>
        <time>2015-09-08T09:22:26Z</time>
      </trkpt>
      <trkpt lat="42.81112" lon="-0.25529">
        <ele>2286.1525878906</ele>
        <time>2015-09-08T09:22:27Z</time>
      </trkpt>
      <trkpt lat="42.81115" lon="-0.2552">
        <ele>2283.7490234375</ele>
        <time>2015-09-08T09:22:41Z</time>
      </trkpt>
      <trkpt lat="42.81118" lon="-0.2551">
        <ele>2283.2683105469</ele>
        <time>2015-09-08T09:22:55Z</time>
      </trkpt>
      <trkpt lat="42.81113" lon="-0.25508">
        <ele>2284.2299804688</ele>
        <time>2015-09-08T09:23:09Z</time>
      </trkpt>
      <trkpt lat="42.81112" lon="-0.25508">
        <ele>2289.9978027344</ele>
        <time>2015-09-08T09:23:10Z</time>
      </trkpt>
      <trkpt lat="42.81112" lon="-0.25508">
        <ele>2285.671875</ele>
        <time>2015-09-08T09:23:11Z</time>
      </trkpt>
      <trkpt lat="42.81112" lon="-0.25508">
        <ele>2283.7490234375</ele>
        <time>2015-09-08T09:23:13Z</time>
      </trkpt>
      <trkpt lat="42.81112" lon="-0.25509">
        <ele>2288.5559082031</ele>
        <time>2015-09-08T09:23:22Z</time>
      </trkpt>
      <trkpt lat="42.81111" lon="-0.2551">
        <ele>2285.1911621094</ele>
        <time>2015-09-08T09:23:23Z</time>
      </trkpt>
      <trkpt lat="42.81113" lon="-0.25508">
        <ele>2281.345703125</ele>
        <time>2015-09-08T09:23:35Z</time>
      </trkpt>
      <trkpt lat="42.81114" lon="-0.25508">
        <ele>2283.7490234375</ele>
        <time>2015-09-08T09:23:38Z</time>
      </trkpt>
      <trkpt lat="42.81115" lon="-0.25508">
        <ele>2289.5170898438</ele>
        <time>2015-09-08T09:23:40Z</time>
      </trkpt>
      <trkpt lat="42.81115" lon="-0.25507">
        <ele>2284.7106933594</ele>
        <time>2015-09-08T09:23:41Z</time>
      </trkpt>
      <trkpt lat="42.81115" lon="-0.25501">
        <ele>2285.671875</ele>
        <time>2015-09-08T09:24:00Z</time>
      </trkpt>
      <trkpt lat="42.81117" lon="-0.25489">
        <ele>2286.6330566406</ele>
        <time>2015-09-08T09:24:13Z</time>
      </trkpt>
      <trkpt lat="42.81119" lon="-0.25475">
        <ele>2288.5559082031</ele>
        <time>2015-09-08T09:24:27Z</time>
      </trkpt>
      <trkpt lat="42.81117" lon="-0.25468">
        <ele>2289.5170898438</ele>
        <time>2015-09-08T09:24:40Z</time>
      </trkpt>
      <trkpt lat="42.81116" lon="-0.25461">
        <ele>2292.8815917969</ele>
        <time>2015-09-08T09:24:50Z</time>
      </trkpt>
      <trkpt lat="42.8112" lon="-0.2545">
        <ele>2293.8430175781</ele>
        <time>2015-09-08T09:25:04Z</time>
      </trkpt>
      <trkpt lat="42.81121" lon="-0.25436">
        <ele>2294.8041992188</ele>
        <time>2015-09-08T09:25:20Z</time>
      </trkpt>
      <trkpt lat="42.81121" lon="-0.25425">
        <ele>2296.2463378906</ele>
        <time>2015-09-08T09:25:34Z</time>
      </trkpt>
      <trkpt lat="42.81118" lon="-0.25417">
        <ele>2298.1687011719</ele>
        <time>2015-09-08T09:25:49Z</time>
      </trkpt>
      <trkpt lat="42.81116" lon="-0.25406">
        <ele>2299.1301269531</ele>
        <time>2015-09-08T09:26:03Z</time>
      </trkpt>
      <trkpt lat="42.81118" lon="-0.25392">
        <ele>2301.0529785156</ele>
        <time>2015-09-08T09:26:19Z</time>
      </trkpt>
      <trkpt lat="42.81122" lon="-0.25385">
        <ele>2303.4562988281</ele>
        <time>2015-09-08T09:26:37Z</time>
      </trkpt>
      <trkpt lat="42.81116" lon="-0.25384">
        <ele>2306.8208007812</ele>
        <time>2015-09-08T09:26:56Z</time>
      </trkpt>
      <trkpt lat="42.81115" lon="-0.25378">
        <ele>2306.8208007812</ele>
        <time>2015-09-08T09:27:13Z</time>
      </trkpt>
      <trkpt lat="42.81116" lon="-0.25371">
        <ele>2306.8208007812</ele>
        <time>2015-09-08T09:27:38Z</time>
      </trkpt>
      <trkpt lat="42.81113" lon="-0.25361">
        <ele>2305.37890625</ele>
        <time>2015-09-08T09:27:53Z</time>
      </trkpt>
      <trkpt lat="42.81111" lon="-0.25353">
        <ele>2307.3015136719</ele>
        <time>2015-09-08T09:28:06Z</time>
      </trkpt>
      <trkpt lat="42.8111" lon="-0.25343">
        <ele>2309.7045898438</ele>
        <time>2015-09-08T09:28:20Z</time>
      </trkpt>
      <trkpt lat="42.8111" lon="-0.25335">
        <ele>2310.666015625</ele>
        <time>2015-09-08T09:28:32Z</time>
      </trkpt>
      <trkpt lat="42.8111" lon="-0.25331">
        <ele>2312.1079101562</ele>
        <time>2015-09-08T09:28:48Z</time>
      </trkpt>
      <trkpt lat="42.81108" lon="-0.2532">
        <ele>2314.5112304688</ele>
        <time>2015-09-08T09:29:05Z</time>
      </trkpt>
      <trkpt lat="42.8111" lon="-0.25312">
        <ele>2316.4340820312</ele>
        <time>2015-09-08T09:29:17Z</time>
      </trkpt>
      <trkpt lat="42.81109" lon="-0.25304">
        <ele>2317.3952636719</ele>
        <time>2015-09-08T09:29:31Z</time>
      </trkpt>
      <trkpt lat="42.81117" lon="-0.25299">
        <ele>2318.3566894531</ele>
        <time>2015-09-08T09:29:58Z</time>
      </trkpt>
      <trkpt lat="42.81112" lon="-0.25291">
        <ele>2320.279296875</ele>
        <time>2015-09-08T09:30:22Z</time>
      </trkpt>
      <trkpt lat="42.81108" lon="-0.2529">
        <ele>2323.1633300781</ele>
        <time>2015-09-08T09:30:40Z</time>
      </trkpt>
      <trkpt lat="42.81109" lon="-0.25282">
        <ele>2324.6052246094</ele>
        <time>2015-09-08T09:30:55Z</time>
      </trkpt>
      <trkpt lat="42.81109" lon="-0.25278">
        <ele>2325.0856933594</ele>
        <time>2015-09-08T09:31:07Z</time>
      </trkpt>
      <trkpt lat="42.8111" lon="-0.25274">
        <ele>2327.0085449219</ele>
        <time>2015-09-08T09:31:18Z</time>
      </trkpt>
      <trkpt lat="42.81109" lon="-0.25261">
        <ele>2328.9309082031</ele>
        <time>2015-09-08T09:31:43Z</time>
      </trkpt>
      <trkpt lat="42.81107" lon="-0.25255">
        <ele>2328.4504394531</ele>
        <time>2015-09-08T09:31:57Z</time>
      </trkpt>
      <trkpt lat="42.81111" lon="-0.25253">
        <ele>2328.9309082031</ele>
        <time>2015-09-08T09:32:19Z</time>
      </trkpt>
      <trkpt lat="42.8111" lon="-0.25256">
        <ele>2328.4504394531</ele>
        <time>2015-09-08T09:33:21Z</time>
      </trkpt>
      <trkpt lat="42.81109" lon="-0.25256">
        <ele>2327.4890136719</ele>
        <time>2015-09-08T09:34:04Z</time>
      </trkpt>
      <trkpt lat="42.81116" lon="-0.25249">
        <ele>2327.4890136719</ele>
        <time>2015-09-08T09:35:34Z</time>
      </trkpt>
      <trkpt lat="42.8111" lon="-0.25246">
        <ele>2328.4504394531</ele>
        <time>2015-09-08T09:36:23Z</time>
      </trkpt>
      <trkpt lat="42.8111" lon="-0.25228">
        <ele>2330.373046875</ele>
        <time>2015-09-08T09:36:39Z</time>
      </trkpt>
      <trkpt lat="42.81112" lon="-0.25218">
        <ele>2329.4116210938</ele>
        <time>2015-09-08T09:36:50Z</time>
      </trkpt>
      <trkpt lat="42.81111" lon="-0.25208">
        <ele>2331.3342285156</ele>
        <time>2015-09-08T09:37:01Z</time>
      </trkpt>
      <trkpt lat="42.81109" lon="-0.252">
        <ele>2333.2570800781</ele>
        <time>2015-09-08T09:37:18Z</time>
      </trkpt>
      <trkpt lat="42.81107" lon="-0.25195">
        <ele>2334.69921875</ele>
        <time>2015-09-08T09:37:30Z</time>
      </trkpt>
      <trkpt lat="42.81105" lon="-0.25195">
        <ele>2337.1022949219</ele>
        <time>2015-09-08T09:37:44Z</time>
      </trkpt>
      <trkpt lat="42.81103" lon="-0.25188">
        <ele>2339.0249023438</ele>
        <time>2015-09-08T09:37:58Z</time>
      </trkpt>
      <trkpt lat="42.81097" lon="-0.2518">
        <ele>2339.5056152344</ele>
        <time>2015-09-08T09:38:15Z</time>
      </trkpt>
      <trkpt lat="42.81094" lon="-0.25164">
        <ele>2339.986328125</ele>
        <time>2015-09-08T09:38:31Z</time>
      </trkpt>
      <trkpt lat="42.81096" lon="-0.25151">
        <ele>2338.0637207031</ele>
        <time>2015-09-08T09:38:50Z</time>
      </trkpt>
      <trkpt lat="42.81094" lon="-0.25141">
        <ele>2338.0637207031</ele>
        <time>2015-09-08T09:39:05Z</time>
      </trkpt>
      <trkpt lat="42.81093" lon="-0.25133">
        <ele>2340.466796875</ele>
        <time>2015-09-08T09:39:17Z</time>
      </trkpt>
      <trkpt lat="42.81094" lon="-0.25125">
        <ele>2342.8701171875</ele>
        <time>2015-09-08T09:39:33Z</time>
      </trkpt>
      <trkpt lat="42.81093" lon="-0.25117">
        <ele>2344.3120117188</ele>
        <time>2015-09-08T09:39:51Z</time>
      </trkpt>
      <trkpt lat="42.81092" lon="-0.25104">
        <ele>2347.1960449219</ele>
        <time>2015-09-08T09:40:07Z</time>
      </trkpt>
      <trkpt lat="42.81094" lon="-0.251">
        <ele>2349.1188964844</ele>
        <time>2015-09-08T09:40:28Z</time>
      </trkpt>
      <trkpt lat="42.81095" lon="-0.2509">
        <ele>2352.9641113281</ele>
        <time>2015-09-08T09:40:45Z</time>
      </trkpt>
      <trkpt lat="42.81092" lon="-0.25082">
        <ele>2354.4060058594</ele>
        <time>2015-09-08T09:41:00Z</time>
      </trkpt>
      <trkpt lat="42.81092" lon="-0.25075">
        <ele>2356.3286132812</ele>
        <time>2015-09-08T09:41:12Z</time>
      </trkpt>
      <trkpt lat="42.81091" lon="-0.25065">
        <ele>2356.8093261719</ele>
        <time>2015-09-08T09:41:34Z</time>
      </trkpt>
      <trkpt lat="42.81095" lon="-0.25058">
        <ele>2358.7319335938</ele>
        <time>2015-09-08T09:41:46Z</time>
      </trkpt>
      <trkpt lat="42.81099" lon="-0.25052">
        <ele>2359.2126464844</ele>
        <time>2015-09-08T09:41:59Z</time>
      </trkpt>
      <trkpt lat="42.811" lon="-0.25042">
        <ele>2361.6159667969</ele>
        <time>2015-09-08T09:42:14Z</time>
      </trkpt>
      <trkpt lat="42.81101" lon="-0.25039">
        <ele>2362.5771484375</ele>
        <time>2015-09-08T09:42:28Z</time>
      </trkpt>
      <trkpt lat="42.81099" lon="-0.25026">
        <ele>2365.4614257812</ele>
        <time>2015-09-08T09:42:54Z</time>
      </trkpt>
      <trkpt lat="42.81099" lon="-0.25019">
        <ele>2367.8645019531</ele>
        <time>2015-09-08T09:43:09Z</time>
      </trkpt>
      <trkpt lat="42.81098" lon="-0.25013">
        <ele>2370.7485351562</ele>
        <time>2015-09-08T09:43:29Z</time>
      </trkpt>
      <trkpt lat="42.81098" lon="-0.2501">
        <ele>2372.1904296875</ele>
        <time>2015-09-08T09:43:32Z</time>
      </trkpt>
      <trkpt lat="42.81099" lon="-0.24996">
        <ele>2374.1130371094</ele>
        <time>2015-09-08T09:43:52Z</time>
      </trkpt>
      <trkpt lat="42.81098" lon="-0.2499">
        <ele>2375.5549316406</ele>
        <time>2015-09-08T09:44:10Z</time>
      </trkpt>
      <trkpt lat="42.81104" lon="-0.2499">
        <ele>2376.9970703125</ele>
        <time>2015-09-08T09:44:24Z</time>
      </trkpt>
      <trkpt lat="42.81099" lon="-0.24979">
        <ele>2377.9582519531</ele>
        <time>2015-09-08T09:44:40Z</time>
      </trkpt>
      <trkpt lat="42.81104" lon="-0.24974">
        <ele>2381.3229980469</ele>
        <time>2015-09-08T09:44:54Z</time>
      </trkpt>
      <trkpt lat="42.81108" lon="-0.24962">
        <ele>2383.7263183594</ele>
        <time>2015-09-08T09:45:12Z</time>
      </trkpt>
      <trkpt lat="42.81106" lon="-0.24958">
        <ele>2384.6877441406</ele>
        <time>2015-09-08T09:45:24Z</time>
      </trkpt>
      <trkpt lat="42.81101" lon="-0.24949">
        <ele>2386.6101074219</ele>
        <time>2015-09-08T09:45:52Z</time>
      </trkpt>
      <trkpt lat="42.811" lon="-0.24939">
        <ele>2388.0522460938</ele>
        <time>2015-09-08T09:46:05Z</time>
      </trkpt>
      <trkpt lat="42.811" lon="-0.2493">
        <ele>2389.9748535156</ele>
        <time>2015-09-08T09:46:20Z</time>
      </trkpt>
      <trkpt lat="42.81104" lon="-0.24923">
        <ele>2391.4167480469</ele>
        <time>2015-09-08T09:46:35Z</time>
      </trkpt>
      <trkpt lat="42.81106" lon="-0.24916">
        <ele>2392.3781738281</ele>
        <time>2015-09-08T09:46:46Z</time>
      </trkpt>
      <trkpt lat="42.81108" lon="-0.24911">
        <ele>2393.3393554688</ele>
        <time>2015-09-08T09:47:06Z</time>
      </trkpt>
      <trkpt lat="42.81113" lon="-0.24916">
        <ele>2394.3005371094</ele>
        <time>2015-09-08T09:47:35Z</time>
      </trkpt>
      <trkpt lat="42.81111" lon="-0.24915">
        <ele>2393.8200683594</ele>
        <time>2015-09-08T09:48:13Z</time>
      </trkpt>
      <trkpt lat="42.81113" lon="-0.24907">
        <ele>2395.2619628906</ele>
        <time>2015-09-08T09:48:29Z</time>
      </trkpt>
      <trkpt lat="42.8111" lon="-0.24897">
        <ele>2398.1459960938</ele>
        <time>2015-09-08T09:48:43Z</time>
      </trkpt>
      <trkpt lat="42.81116" lon="-0.24894">
        <ele>2399.107421875</ele>
        <time>2015-09-08T09:48:59Z</time>
      </trkpt>
      <trkpt lat="42.81121" lon="-0.24887">
        <ele>2399.5881347656</ele>
        <time>2015-09-08T09:49:28Z</time>
      </trkpt>
      <trkpt lat="42.81118" lon="-0.24877">
        <ele>2401.0300292969</ele>
        <time>2015-09-08T09:49:39Z</time>
      </trkpt>
      <trkpt lat="42.81117" lon="-0.24871">
        <ele>2403.9140625</ele>
        <time>2015-09-08T09:49:57Z</time>
      </trkpt>
      <trkpt lat="42.81113" lon="-0.24869">
        <ele>2404.8752441406</ele>
        <time>2015-09-08T09:50:09Z</time>
      </trkpt>
      <trkpt lat="42.81108" lon="-0.24869">
        <ele>2408.2397460938</ele>
        <time>2015-09-08T09:50:22Z</time>
      </trkpt>
      <trkpt lat="42.81106" lon="-0.24863">
        <ele>2410.1623535156</ele>
        <time>2015-09-08T09:50:36Z</time>
      </trkpt>
      <trkpt lat="42.81103" lon="-0.24852">
        <ele>2411.1237792969</ele>
        <time>2015-09-08T09:50:58Z</time>
      </trkpt>
      <trkpt lat="42.81105" lon="-0.24846">
        <ele>2413.5270996094</ele>
        <time>2015-09-08T09:51:12Z</time>
      </trkpt>
      <trkpt lat="42.81103" lon="-0.24838">
        <ele>2414.9692382812</ele>
        <time>2015-09-08T09:51:25Z</time>
      </trkpt>
      <trkpt lat="42.81103" lon="-0.24829">
        <ele>2416.8918457031</ele>
        <time>2015-09-08T09:51:40Z</time>
      </trkpt>
      <trkpt lat="42.81106" lon="-0.24822">
        <ele>2418.3337402344</ele>
        <time>2015-09-08T09:51:52Z</time>
      </trkpt>
      <trkpt lat="42.81106" lon="-0.24818">
        <ele>2419.2951660156</ele>
        <time>2015-09-08T09:52:10Z</time>
      </trkpt>
      <trkpt lat="42.81106" lon="-0.24808">
        <ele>2421.6982421875</ele>
        <time>2015-09-08T09:52:27Z</time>
      </trkpt>
      <trkpt lat="42.81107" lon="-0.24804">
        <ele>2424.5822753906</ele>
        <time>2015-09-08T09:52:41Z</time>
      </trkpt>
      <trkpt lat="42.81107" lon="-0.24799">
        <ele>2427.4660644531</ele>
        <time>2015-09-08T09:52:54Z</time>
      </trkpt>
      <trkpt lat="42.81106" lon="-0.24793">
        <ele>2428.427734375</ele>
        <time>2015-09-08T09:53:09Z</time>
      </trkpt>
      <trkpt lat="42.81107" lon="-0.24788">
        <ele>2431.3115234375</ele>
        <time>2015-09-08T09:53:36Z</time>
      </trkpt>
      <trkpt lat="42.81109" lon="-0.24782">
        <ele>2433.71484375</ele>
        <time>2015-09-08T09:53:51Z</time>
      </trkpt>
      <trkpt lat="42.81111" lon="-0.2478">
        <ele>2434.1955566406</ele>
        <time>2015-09-08T09:54:09Z</time>
      </trkpt>
      <trkpt lat="42.81114" lon="-0.24778">
        <ele>2435.1567382812</ele>
        <time>2015-09-08T09:54:51Z</time>
      </trkpt>
      <trkpt lat="42.81112" lon="-0.24772">
        <ele>2437.0793457031</ele>
        <time>2015-09-08T09:55:06Z</time>
      </trkpt>
      <trkpt lat="42.81113" lon="-0.24767">
        <ele>2439.4826660156</ele>
        <time>2015-09-08T09:55:17Z</time>
      </trkpt>
      <trkpt lat="42.81115" lon="-0.2476">
        <ele>2441.8859863281</ele>
        <time>2015-09-08T09:55:31Z</time>
      </trkpt>
      <trkpt lat="42.81114" lon="-0.24753">
        <ele>2443.80859375</ele>
        <time>2015-09-08T09:55:50Z</time>
      </trkpt>
      <trkpt lat="42.81112" lon="-0.24752">
        <ele>2446.6926269531</ele>
        <time>2015-09-08T09:56:07Z</time>
      </trkpt>
      <trkpt lat="42.81114" lon="-0.24745">
        <ele>2448.615234375</ele>
        <time>2015-09-08T09:56:22Z</time>
      </trkpt>
      <trkpt lat="42.81113" lon="-0.24739">
        <ele>2450.5378417969</ele>
        <time>2015-09-08T09:56:36Z</time>
      </trkpt>
      <trkpt lat="42.81111" lon="-0.24738">
        <ele>2451.9797363281</ele>
        <time>2015-09-08T09:56:51Z</time>
      </trkpt>
      <trkpt lat="42.81114" lon="-0.24733">
        <ele>2454.3830566406</ele>
        <time>2015-09-08T09:57:04Z</time>
      </trkpt>
      <trkpt lat="42.81117" lon="-0.24726">
        <ele>2455.8249511719</ele>
        <time>2015-09-08T09:57:24Z</time>
      </trkpt>
      <trkpt lat="42.8112" lon="-0.2472">
        <ele>2457.2670898438</ele>
        <time>2015-09-08T09:57:37Z</time>
      </trkpt>
      <trkpt lat="42.81123" lon="-0.24711">
        <ele>2459.6701660156</ele>
        <time>2015-09-08T09:57:53Z</time>
      </trkpt>
      <trkpt lat="42.81123" lon="-0.24702">
        <ele>2462.0737304688</ele>
        <time>2015-09-08T09:58:09Z</time>
      </trkpt>
      <trkpt lat="42.81127" lon="-0.247">
        <ele>2461.5932617188</ele>
        <time>2015-09-08T09:58:25Z</time>
      </trkpt>
      <trkpt lat="42.81126" lon="-0.24696">
        <ele>2463.9963378906</ele>
        <time>2015-09-08T09:58:52Z</time>
      </trkpt>
      <trkpt lat="42.81128" lon="-0.24692">
        <ele>2465.4384765625</ele>
        <time>2015-09-08T09:59:04Z</time>
      </trkpt>
      <trkpt lat="42.81131" lon="-0.24686">
        <ele>2467.3608398438</ele>
        <time>2015-09-08T09:59:19Z</time>
      </trkpt>
      <trkpt lat="42.81132" lon="-0.2468">
        <ele>2469.2836914062</ele>
        <time>2015-09-08T09:59:34Z</time>
      </trkpt>
      <trkpt lat="42.81134" lon="-0.24675">
        <ele>2470.7255859375</ele>
        <time>2015-09-08T09:59:52Z</time>
      </trkpt>
      <trkpt lat="42.81134" lon="-0.24668">
        <ele>2472.6481933594</ele>
        <time>2015-09-08T10:00:04Z</time>
      </trkpt>
      <trkpt lat="42.8114" lon="-0.24662">
        <ele>2475.0512695312</ele>
        <time>2015-09-08T10:00:21Z</time>
      </trkpt>
      <trkpt lat="42.81143" lon="-0.24662">
        <ele>2476.4936523438</ele>
        <time>2015-09-08T10:00:44Z</time>
      </trkpt>
      <trkpt lat="42.81146" lon="-0.24658">
        <ele>2478.4162597656</ele>
        <time>2015-09-08T10:00:58Z</time>
      </trkpt>
      <trkpt lat="42.81142" lon="-0.24656">
        <ele>2480.3388671875</ele>
        <time>2015-09-08T10:01:11Z</time>
      </trkpt>
      <trkpt lat="42.81137" lon="-0.24654">
        <ele>2481.7807617188</ele>
        <time>2015-09-08T10:01:28Z</time>
      </trkpt>
      <trkpt lat="42.81142" lon="-0.24647">
        <ele>2483.7033691406</ele>
        <time>2015-09-08T10:01:48Z</time>
      </trkpt>
      <trkpt lat="42.81146" lon="-0.24643">
        <ele>2484.1840820312</ele>
        <time>2015-09-08T10:02:00Z</time>
      </trkpt>
      <trkpt lat="42.81147" lon="-0.24635">
        <ele>2486.1066894531</ele>
        <time>2015-09-08T10:02:12Z</time>
      </trkpt>
      <trkpt lat="42.81148" lon="-0.24637">
        <ele>2487.0678710938</ele>
        <time>2015-09-08T10:02:32Z</time>
      </trkpt>
      <trkpt lat="42.81145" lon="-0.24631">
        <ele>2488.9904785156</ele>
        <time>2015-09-08T10:02:45Z</time>
      </trkpt>
      <trkpt lat="42.81145" lon="-0.24629">
        <ele>2489.4711914062</ele>
        <time>2015-09-08T10:02:47Z</time>
      </trkpt>
      <trkpt lat="42.81145" lon="-0.24622">
        <ele>2491.8745117188</ele>
        <time>2015-09-08T10:02:59Z</time>
      </trkpt>
      <trkpt lat="42.81144" lon="-0.24615">
        <ele>2494.2778320312</ele>
        <time>2015-09-08T10:03:14Z</time>
      </trkpt>
      <trkpt lat="42.81145" lon="-0.2461">
        <ele>2495.7199707031</ele>
        <time>2015-09-08T10:03:36Z</time>
      </trkpt>
      <trkpt lat="42.81145" lon="-0.24604">
        <ele>2499.0844726562</ele>
        <time>2015-09-08T10:03:50Z</time>
      </trkpt>
      <trkpt lat="42.81144" lon="-0.246">
        <ele>2500.5263671875</ele>
        <time>2015-09-08T10:04:02Z</time>
      </trkpt>
      <trkpt lat="42.81144" lon="-0.24596">
        <ele>2503.4104003906</ele>
        <time>2015-09-08T10:04:27Z</time>
      </trkpt>
      <trkpt lat="42.81144" lon="-0.24586">
        <ele>2506.7749023438</ele>
        <time>2015-09-08T10:04:43Z</time>
      </trkpt>
      <trkpt lat="42.81144" lon="-0.24579">
        <ele>2509.1784667969</ele>
        <time>2015-09-08T10:05:04Z</time>
      </trkpt>
      <trkpt lat="42.81146" lon="-0.24574">
        <ele>2509.6589355469</ele>
        <time>2015-09-08T10:05:16Z</time>
      </trkpt>
      <trkpt lat="42.81148" lon="-0.24577">
        <ele>2512.0622558594</ele>
        <time>2015-09-08T10:06:05Z</time>
      </trkpt>
      <trkpt lat="42.81147" lon="-0.24574">
        <ele>2510.1396484375</ele>
        <time>2015-09-08T10:06:27Z</time>
      </trkpt>
      <trkpt lat="42.8115" lon="-0.24568">
        <ele>2509.1784667969</ele>
        <time>2015-09-08T10:06:47Z</time>
      </trkpt>
      <trkpt lat="42.81158" lon="-0.24557">
        <ele>2509.1784667969</ele>
        <time>2015-09-08T10:07:04Z</time>
      </trkpt>
      <trkpt lat="42.81164" lon="-0.24548">
        <ele>2508.2170410156</ele>
        <time>2015-09-08T10:07:21Z</time>
      </trkpt>
      <trkpt lat="42.81165" lon="-0.2453">
        <ele>2508.2170410156</ele>
        <time>2015-09-08T10:07:38Z</time>
      </trkpt>
      <trkpt lat="42.81165" lon="-0.24516">
        <ele>2508.6977539062</ele>
        <time>2015-09-08T10:07:55Z</time>
      </trkpt>
      <trkpt lat="42.81164" lon="-0.24508">
        <ele>2508.6977539062</ele>
        <time>2015-09-08T10:08:13Z</time>
      </trkpt>
      <trkpt lat="42.81162" lon="-0.24501">
        <ele>2509.6589355469</ele>
        <time>2015-09-08T10:08:26Z</time>
      </trkpt>
      <trkpt lat="42.81159" lon="-0.24497">
        <ele>2510.1396484375</ele>
        <time>2015-09-08T10:08:42Z</time>
      </trkpt>
      <trkpt lat="42.81157" lon="-0.24488">
        <ele>2509.1784667969</ele>
        <time>2015-09-08T10:09:01Z</time>
      </trkpt>
      <trkpt lat="42.81156" lon="-0.24483">
        <ele>2511.1010742188</ele>
        <time>2015-09-08T10:09:15Z</time>
      </trkpt>
      <trkpt lat="42.81153" lon="-0.2447">
        <ele>2513.5041503906</ele>
        <time>2015-09-08T10:09:30Z</time>
      </trkpt>
      <trkpt lat="42.81154" lon="-0.24463">
        <ele>2513.9848632812</ele>
        <time>2015-09-08T10:09:43Z</time>
      </trkpt>
      <trkpt lat="42.81151" lon="-0.24464">
        <ele>2517.3493652344</ele>
        <time>2015-09-08T10:09:53Z</time>
      </trkpt>
      <trkpt lat="42.81145" lon="-0.2446">
        <ele>2517.830078125</ele>
        <time>2015-09-08T10:10:09Z</time>
      </trkpt>
      <trkpt lat="42.81144" lon="-0.24465">
        <ele>2519.7526855469</ele>
        <time>2015-09-08T10:10:20Z</time>
      </trkpt>
      <trkpt lat="42.81135" lon="-0.24453">
        <ele>2519.2722167969</ele>
        <time>2015-09-08T10:10:34Z</time>
      </trkpt>
      <trkpt lat="42.8113" lon="-0.24438">
        <ele>2521.1945800781</ele>
        <time>2015-09-08T10:10:49Z</time>
      </trkpt>
      <trkpt lat="42.81127" lon="-0.24429">
        <ele>2521.6752929688</ele>
        <time>2015-09-08T10:11:00Z</time>
      </trkpt>
      <trkpt lat="42.81126" lon="-0.2442">
        <ele>2521.6752929688</ele>
        <time>2015-09-08T10:11:16Z</time>
      </trkpt>
      <trkpt lat="42.81131" lon="-0.2441">
        <ele>2522.63671875</ele>
        <time>2015-09-08T10:11:27Z</time>
      </trkpt>
      <trkpt lat="42.8113" lon="-0.24399">
        <ele>2522.63671875</ele>
        <time>2015-09-08T10:11:37Z</time>
      </trkpt>
      <trkpt lat="42.81128" lon="-0.24388">
        <ele>2521.6752929688</ele>
        <time>2015-09-08T10:11:49Z</time>
      </trkpt>
      <trkpt lat="42.81125" lon="-0.24373">
        <ele>2523.1174316406</ele>
        <time>2015-09-08T10:12:02Z</time>
      </trkpt>
      <trkpt lat="42.81126" lon="-0.24361">
        <ele>2523.5979003906</ele>
        <time>2015-09-08T10:12:16Z</time>
      </trkpt>
      <trkpt lat="42.81128" lon="-0.24352">
        <ele>2524.5595703125</ele>
        <time>2015-09-08T10:12:33Z</time>
      </trkpt>
      <trkpt lat="42.81129" lon="-0.24342">
        <ele>2526.0014648438</ele>
        <time>2015-09-08T10:12:47Z</time>
      </trkpt>
      <trkpt lat="42.81133" lon="-0.24325">
        <ele>2527.443359375</ele>
        <time>2015-09-08T10:13:06Z</time>
      </trkpt>
      <trkpt lat="42.81137" lon="-0.24315">
        <ele>2527.9240722656</ele>
        <time>2015-09-08T10:13:21Z</time>
      </trkpt>
      <trkpt lat="42.81143" lon="-0.24308">
        <ele>2529.3659667969</ele>
        <time>2015-09-08T10:13:36Z</time>
      </trkpt>
      <trkpt lat="42.81147" lon="-0.24301">
        <ele>2531.2885742188</ele>
        <time>2015-09-08T10:13:48Z</time>
      </trkpt>
      <trkpt lat="42.81154" lon="-0.24296">
        <ele>2531.7692871094</ele>
        <time>2015-09-08T10:14:04Z</time>
      </trkpt>
      <trkpt lat="42.81155" lon="-0.24287">
        <ele>2533.2111816406</ele>
        <time>2015-09-08T10:14:16Z</time>
      </trkpt>
      <trkpt lat="42.81162" lon="-0.24283">
        <ele>2533.6918945312</ele>
        <time>2015-09-08T10:14:32Z</time>
      </trkpt>
      <trkpt lat="42.81169" lon="-0.24276">
        <ele>2534.1726074219</ele>
        <time>2015-09-08T10:14:47Z</time>
      </trkpt>
      <trkpt lat="42.81172" lon="-0.24266">
        <ele>2536.0952148438</ele>
        <time>2015-09-08T10:15:00Z</time>
      </trkpt>
      <trkpt lat="42.81181" lon="-0.24264">
        <ele>2535.6145019531</ele>
        <time>2015-09-08T10:15:18Z</time>
      </trkpt>
      <trkpt lat="42.81185" lon="-0.24263">
        <ele>2536.0952148438</ele>
        <time>2015-09-08T10:15:51Z</time>
      </trkpt>
      <trkpt lat="42.81188" lon="-0.24253">
        <ele>2538.0178222656</ele>
        <time>2015-09-08T10:16:07Z</time>
      </trkpt>
      <trkpt lat="42.81193" lon="-0.24247">
        <ele>2540.4211425781</ele>
        <time>2015-09-08T10:16:21Z</time>
      </trkpt>
      <trkpt lat="42.81193" lon="-0.24239">
        <ele>2543.3051757812</ele>
        <time>2015-09-08T10:16:34Z</time>
      </trkpt>
      <trkpt lat="42.81195" lon="-0.24236">
        <ele>2543.7858886719</ele>
        <time>2015-09-08T10:16:58Z</time>
      </trkpt>
      <trkpt lat="42.81199" lon="-0.24228">
        <ele>2546.1892089844</ele>
        <time>2015-09-08T10:17:15Z</time>
      </trkpt>
      <trkpt lat="42.81204" lon="-0.24226">
        <ele>2548.1115722656</ele>
        <time>2015-09-08T10:17:28Z</time>
      </trkpt>
      <trkpt lat="42.81204" lon="-0.24222">
        <ele>2550.5148925781</ele>
        <time>2015-09-08T10:17:42Z</time>
      </trkpt>
      <trkpt lat="42.81203" lon="-0.24222">
        <ele>2550.5148925781</ele>
        <time>2015-09-08T10:17:46Z</time>
      </trkpt>
      <trkpt lat="42.81205" lon="-0.24215">
        <ele>2551.9567871094</ele>
        <time>2015-09-08T10:18:00Z</time>
      </trkpt>
      <trkpt lat="42.81211" lon="-0.24212">
        <ele>2553.8796386719</ele>
        <time>2015-09-08T10:18:22Z</time>
      </trkpt>
      <trkpt lat="42.81214" lon="-0.24212">
        <ele>2556.763671875</ele>
        <time>2015-09-08T10:18:40Z</time>
      </trkpt>
      <trkpt lat="42.81215" lon="-0.24205">
        <ele>2558.6862792969</ele>
        <time>2015-09-08T10:18:53Z</time>
      </trkpt>
      <trkpt lat="42.81219" lon="-0.24206">
        <ele>2561.5703125</ele>
        <time>2015-09-08T10:19:07Z</time>
      </trkpt>
      <trkpt lat="42.81221" lon="-0.24197">
        <ele>2563.9733886719</ele>
        <time>2015-09-08T10:19:35Z</time>
      </trkpt>
      <trkpt lat="42.81222" lon="-0.24191">
        <ele>2567.337890625</ele>
        <time>2015-09-08T10:19:55Z</time>
      </trkpt>
      <trkpt lat="42.81226" lon="-0.2419">
        <ele>2568.7800292969</ele>
        <time>2015-09-08T10:20:01Z</time>
      </trkpt>
      <trkpt lat="42.81222" lon="-0.24192">
        <ele>2571.6638183594</ele>
        <time>2015-09-08T10:20:18Z</time>
      </trkpt>
      <trkpt lat="42.81222" lon="-0.24185">
        <ele>2572.6254882812</ele>
        <time>2015-09-08T10:20:35Z</time>
      </trkpt>
      <trkpt lat="42.81219" lon="-0.24184">
        <ele>2574.5480957031</ele>
        <time>2015-09-08T10:21:03Z</time>
      </trkpt>
      <trkpt lat="42.81225" lon="-0.24177">
        <ele>2575.9899902344</ele>
        <time>2015-09-08T10:21:13Z</time>
      </trkpt>
      <trkpt lat="42.81226" lon="-0.24178">
        <ele>2577.4318847656</ele>
        <time>2015-09-08T10:21:15Z</time>
      </trkpt>
      <trkpt lat="42.81226" lon="-0.24171">
        <ele>2578.8737792969</ele>
        <time>2015-09-08T10:21:32Z</time>
      </trkpt>
      <trkpt lat="42.81225" lon="-0.24163">
        <ele>2580.7966308594</ele>
        <time>2015-09-08T10:21:48Z</time>
      </trkpt>
      <trkpt lat="42.81236" lon="-0.24159">
        <ele>2584.1611328125</ele>
        <time>2015-09-08T10:22:08Z</time>
      </trkpt>
      <trkpt lat="42.81231" lon="-0.2416">
        <ele>2584.1611328125</ele>
        <time>2015-09-08T10:22:15Z</time>
      </trkpt>
      <trkpt lat="42.81229" lon="-0.24156">
        <ele>2587.044921875</ele>
        <time>2015-09-08T10:22:37Z</time>
      </trkpt>
      <trkpt lat="42.81232" lon="-0.24151">
        <ele>2588.9677734375</ele>
        <time>2015-09-08T10:22:52Z</time>
      </trkpt>
      <trkpt lat="42.81233" lon="-0.24151">
        <ele>2590.8903808594</ele>
        <time>2015-09-08T10:23:15Z</time>
      </trkpt>
      <trkpt lat="42.81236" lon="-0.24148">
        <ele>2593.2937011719</ele>
        <time>2015-09-08T10:23:25Z</time>
      </trkpt>
      <trkpt lat="42.81235" lon="-0.24147">
        <ele>2594.7355957031</ele>
        <time>2015-09-08T10:23:28Z</time>
      </trkpt>
      <trkpt lat="42.81231" lon="-0.24143">
        <ele>2597.138671875</ele>
        <time>2015-09-08T10:23:37Z</time>
      </trkpt>
      <trkpt lat="42.81232" lon="-0.24139">
        <ele>2598.1000976562</ele>
        <time>2015-09-08T10:23:54Z</time>
      </trkpt>
      <trkpt lat="42.81229" lon="-0.24133">
        <ele>2599.5419921875</ele>
        <time>2015-09-08T10:24:07Z</time>
      </trkpt>
      <trkpt lat="42.81225" lon="-0.24125">
        <ele>2601.9453125</ele>
        <time>2015-09-08T10:24:21Z</time>
      </trkpt>
      <trkpt lat="42.81226" lon="-0.2412">
        <ele>2602.9067382812</ele>
        <time>2015-09-08T10:24:43Z</time>
      </trkpt>
      <trkpt lat="42.81228" lon="-0.24115">
        <ele>2606.271484375</ele>
        <time>2015-09-08T10:24:51Z</time>
      </trkpt>
      <trkpt lat="42.81229" lon="-0.24106">
        <ele>2607.7133789062</ele>
        <time>2015-09-08T10:25:04Z</time>
      </trkpt>
      <trkpt lat="42.81231" lon="-0.24106">
        <ele>2608.1938476562</ele>
        <time>2015-09-08T10:25:24Z</time>
      </trkpt>
      <trkpt lat="42.81233" lon="-0.24106">
        <ele>2608.1938476562</ele>
        <time>2015-09-08T10:25:59Z</time>
      </trkpt>
      <trkpt lat="42.81232" lon="-0.24107">
        <ele>2610.1166992188</ele>
        <time>2015-09-08T10:31:00Z</time>
      </trkpt>
      <trkpt lat="42.81232" lon="-0.24103">
        <ele>2610.1166992188</ele>
        <time>2015-09-08T10:31:51Z</time>
      </trkpt>
      <trkpt lat="42.81231" lon="-0.24094">
        <ele>2612.0395507812</ele>
        <time>2015-09-08T10:32:21Z</time>
      </trkpt>
      <trkpt lat="42.8123" lon="-0.24086">
        <ele>2613.0009765625</ele>
        <time>2015-09-08T10:32:34Z</time>
      </trkpt>
      <trkpt lat="42.81231" lon="-0.24077">
        <ele>2614.9233398438</ele>
        <time>2015-09-08T10:32:49Z</time>
      </trkpt>
      <trkpt lat="42.81234" lon="-0.24071">
        <ele>2616.8461914062</ele>
        <time>2015-09-08T10:33:02Z</time>
      </trkpt>
      <trkpt lat="42.8123" lon="-0.24065">
        <ele>2619.7299804688</ele>
        <time>2015-09-08T10:33:14Z</time>
      </trkpt>
      <trkpt lat="42.81229" lon="-0.2406">
        <ele>2621.171875</ele>
        <time>2015-09-08T10:33:29Z</time>
      </trkpt>
      <trkpt lat="42.81231" lon="-0.24054">
        <ele>2622.1333007812</ele>
        <time>2015-09-08T10:33:45Z</time>
      </trkpt>
      <trkpt lat="42.81235" lon="-0.24045">
        <ele>2623.5751953125</ele>
        <time>2015-09-08T10:33:59Z</time>
      </trkpt>
      <trkpt lat="42.81238" lon="-0.24036">
        <ele>2626.458984375</ele>
        <time>2015-09-08T10:34:16Z</time>
      </trkpt>
      <trkpt lat="42.81239" lon="-0.24031">
        <ele>2627.4204101562</ele>
        <time>2015-09-08T10:34:36Z</time>
      </trkpt>
      <trkpt lat="42.81242" lon="-0.24023">
        <ele>2627.4204101562</ele>
        <time>2015-09-08T10:34:49Z</time>
      </trkpt>
      <trkpt lat="42.8125" lon="-0.24019">
        <ele>2626.9399414062</ele>
        <time>2015-09-08T10:35:05Z</time>
      </trkpt>
      <trkpt lat="42.81249" lon="-0.24016">
        <ele>2626.9399414062</ele>
        <time>2015-09-08T10:35:11Z</time>
      </trkpt>
      <trkpt lat="42.81252" lon="-0.24012">
        <ele>2628.8623046875</ele>
        <time>2015-09-08T10:35:25Z</time>
      </trkpt>
      <trkpt lat="42.81252" lon="-0.24006">
        <ele>2629.8237304688</ele>
        <time>2015-09-08T10:35:45Z</time>
      </trkpt>
      <trkpt lat="42.81253" lon="-0.24002">
        <ele>2633.1884765625</ele>
        <time>2015-09-08T10:36:00Z</time>
      </trkpt>
      <trkpt lat="42.81251" lon="-0.24">
        <ele>2635.1108398438</ele>
        <time>2015-09-08T10:36:27Z</time>
      </trkpt>
      <trkpt lat="42.81251" lon="-0.23986">
        <ele>2637.5141601562</ele>
        <time>2015-09-08T10:36:40Z</time>
      </trkpt>
      <trkpt lat="42.81254" lon="-0.2398">
        <ele>2639.9174804688</ele>
        <time>2015-09-08T10:36:51Z</time>
      </trkpt>
      <trkpt lat="42.81249" lon="-0.23972">
        <ele>2642.3208007812</ele>
        <time>2015-09-08T10:37:02Z</time>
      </trkpt>
      <trkpt lat="42.8125" lon="-0.23971">
        <ele>2642.8012695312</ele>
        <time>2015-09-08T10:37:03Z</time>
      </trkpt>
      <trkpt lat="42.81255" lon="-0.2397">
        <ele>2643.2817382812</ele>
        <time>2015-09-08T10:37:22Z</time>
      </trkpt>
      <trkpt lat="42.81256" lon="-0.23964">
        <ele>2646.1665039062</ele>
        <time>2015-09-08T10:37:37Z</time>
      </trkpt>
      <trkpt lat="42.81257" lon="-0.23963">
        <ele>2647.1279296875</ele>
        <time>2015-09-08T10:37:50Z</time>
      </trkpt>
      <trkpt lat="42.81258" lon="-0.23958">
        <ele>2648.5698242188</ele>
        <time>2015-09-08T10:38:03Z</time>
      </trkpt>
      <trkpt lat="42.81258" lon="-0.23949">
        <ele>2650.4921875</ele>
        <time>2015-09-08T10:38:15Z</time>
      </trkpt>
      <trkpt lat="42.81265" lon="-0.23948">
        <ele>2652.4150390625</ele>
        <time>2015-09-08T10:38:28Z</time>
      </trkpt>
      <trkpt lat="42.81268" lon="-0.23946">
        <ele>2653.3759765625</ele>
        <time>2015-09-08T10:38:42Z</time>
      </trkpt>
      <trkpt lat="42.81266" lon="-0.23937">
        <ele>2655.298828125</ele>
        <time>2015-09-08T10:38:58Z</time>
      </trkpt>
      <trkpt lat="42.81268" lon="-0.2393">
        <ele>2658.6630859375</ele>
        <time>2015-09-08T10:39:10Z</time>
      </trkpt>
      <trkpt lat="42.8127" lon="-0.23917">
        <ele>2659.6245117188</ele>
        <time>2015-09-08T10:39:25Z</time>
      </trkpt>
      <trkpt lat="42.81269" lon="-0.23903">
        <ele>2660.10546875</ele>
        <time>2015-09-08T10:39:39Z</time>
      </trkpt>
      <trkpt lat="42.81272" lon="-0.23898">
        <ele>2660.10546875</ele>
        <time>2015-09-08T10:39:56Z</time>
      </trkpt>
      <trkpt lat="42.81272" lon="-0.23895">
        <ele>2661.06640625</ele>
        <time>2015-09-08T10:40:14Z</time>
      </trkpt>
      <trkpt lat="42.81272" lon="-0.23896">
        <ele>2661.5473632812</ele>
        <time>2015-09-08T10:40:32Z</time>
      </trkpt>
      <trkpt lat="42.81273" lon="-0.23888">
        <ele>2660.10546875</ele>
        <time>2015-09-08T10:40:50Z</time>
      </trkpt>
      <trkpt lat="42.81274" lon="-0.2388">
        <ele>2658.6630859375</ele>
        <time>2015-09-08T10:41:07Z</time>
      </trkpt>
      <trkpt lat="42.81277" lon="-0.23873">
        <ele>2655.298828125</ele>
        <time>2015-09-08T10:41:17Z</time>
      </trkpt>
      <trkpt lat="42.81276" lon="-0.23866">
        <ele>2655.779296875</ele>
        <time>2015-09-08T10:41:30Z</time>
      </trkpt>
      <trkpt lat="42.81279" lon="-0.23864">
        <ele>2653.3759765625</ele>
        <time>2015-09-08T10:41:41Z</time>
      </trkpt>
      <trkpt lat="42.81282" lon="-0.23856">
        <ele>2650.97265625</ele>
        <time>2015-09-08T10:42:00Z</time>
      </trkpt>
      <trkpt lat="42.81285" lon="-0.23853">
        <ele>2649.5307617188</ele>
        <time>2015-09-08T10:42:19Z</time>
      </trkpt>
      <trkpt lat="42.81282" lon="-0.2386">
        <ele>2652.8955078125</ele>
        <time>2015-09-08T10:42:36Z</time>
      </trkpt>
      <trkpt lat="42.81279" lon="-0.23872">
        <ele>2656.2602539062</ele>
        <time>2015-09-08T10:42:52Z</time>
      </trkpt>
      <trkpt lat="42.81273" lon="-0.23884">
        <ele>2659.1440429688</ele>
        <time>2015-09-08T10:43:08Z</time>
      </trkpt>
      <trkpt lat="42.81273" lon="-0.2389">
        <ele>2661.5473632812</ele>
        <time>2015-09-08T10:43:21Z</time>
      </trkpt>
      <trkpt lat="42.81276" lon="-0.23904">
        <ele>2662.9892578125</ele>
        <time>2015-09-08T10:43:36Z</time>
      </trkpt>
      <trkpt lat="42.81283" lon="-0.23914">
        <ele>2663.9506835938</ele>
        <time>2015-09-08T10:43:51Z</time>
      </trkpt>
      <trkpt lat="42.81285" lon="-0.23914">
        <ele>2665.392578125</ele>
        <time>2015-09-08T10:43:55Z</time>
      </trkpt>
      <trkpt lat="42.81291" lon="-0.23928">
        <ele>2666.8344726562</ele>
        <time>2015-09-08T10:44:12Z</time>
      </trkpt>
      <trkpt lat="42.81294" lon="-0.2392">
        <ele>2666.8344726562</ele>
        <time>2015-09-08T10:44:29Z</time>
      </trkpt>
      <trkpt lat="42.81302" lon="-0.23921">
        <ele>2666.353515625</ele>
        <time>2015-09-08T10:44:48Z</time>
      </trkpt>
      <trkpt lat="42.8131" lon="-0.23916">
        <ele>2665.392578125</ele>
        <time>2015-09-08T10:44:58Z</time>
      </trkpt>
      <trkpt lat="42.81322" lon="-0.23921">
        <ele>2663.4697265625</ele>
        <time>2015-09-08T10:45:13Z</time>
      </trkpt>
      <trkpt lat="42.81325" lon="-0.23914">
        <ele>2662.5087890625</ele>
        <time>2015-09-08T10:45:28Z</time>
      </trkpt>
      <trkpt lat="42.81318" lon="-0.239">
        <ele>2659.6245117188</ele>
        <time>2015-09-08T10:45:47Z</time>
      </trkpt>
      <trkpt lat="42.81315" lon="-0.23891">
        <ele>2656.2602539062</ele>
        <time>2015-09-08T10:45:58Z</time>
      </trkpt>
      <trkpt lat="42.81313" lon="-0.23872">
        <ele>2653.8569335938</ele>
        <time>2015-09-08T10:46:16Z</time>
      </trkpt>
      <trkpt lat="42.81312" lon="-0.23863">
        <ele>2651.4536132812</ele>
        <time>2015-09-08T10:46:25Z</time>
      </trkpt>
      <trkpt lat="42.81311" lon="-0.23852">
        <ele>2648.0888671875</ele>
        <time>2015-09-08T10:46:38Z</time>
      </trkpt>
      <trkpt lat="42.81311" lon="-0.23851">
        <ele>2648.0888671875</ele>
        <time>2015-09-08T10:46:39Z</time>
      </trkpt>
      <trkpt lat="42.8131" lon="-0.23846">
        <ele>2644.724609375</ele>
        <time>2015-09-08T10:46:46Z</time>
      </trkpt>
      <trkpt lat="42.81305" lon="-0.23823">
        <ele>2642.3208007812</ele>
        <time>2015-09-08T10:47:10Z</time>
      </trkpt>
      <trkpt lat="42.81304" lon="-0.23818">
        <ele>2641.359375</ele>
        <time>2015-09-08T10:47:15Z</time>
      </trkpt>
      <trkpt lat="42.81304" lon="-0.2381">
        <ele>2639.9174804688</ele>
        <time>2015-09-08T10:47:21Z</time>
      </trkpt>
      <trkpt lat="42.81305" lon="-0.23803">
        <ele>2637.9946289062</ele>
        <time>2015-09-08T10:47:35Z</time>
      </trkpt>
      <trkpt lat="42.81303" lon="-0.23792">
        <ele>2634.1494140625</ele>
        <time>2015-09-08T10:47:50Z</time>
      </trkpt>
      <trkpt lat="42.81303" lon="-0.23791">
        <ele>2634.1494140625</ele>
        <time>2015-09-08T10:47:51Z</time>
      </trkpt>
      <trkpt lat="42.81302" lon="-0.23784">
        <ele>2632.2270507812</ele>
        <time>2015-09-08T10:48:01Z</time>
      </trkpt>
      <trkpt lat="42.81301" lon="-0.23779">
        <ele>2631.7465820312</ele>
        <time>2015-09-08T10:48:06Z</time>
      </trkpt>
      <trkpt lat="42.81298" lon="-0.23763">
        <ele>2628.8623046875</ele>
        <time>2015-09-08T10:48:21Z</time>
      </trkpt>
      <trkpt lat="42.81294" lon="-0.23746">
        <ele>2626.9399414062</ele>
        <time>2015-09-08T10:48:38Z</time>
      </trkpt>
      <trkpt lat="42.81293" lon="-0.23733">
        <ele>2624.5366210938</ele>
        <time>2015-09-08T10:48:54Z</time>
      </trkpt>
      <trkpt lat="42.81291" lon="-0.23728">
        <ele>2621.171875</ele>
        <time>2015-09-08T10:49:04Z</time>
      </trkpt>
      <trkpt lat="42.81286" lon="-0.23719">
        <ele>2618.7685546875</ele>
        <time>2015-09-08T10:49:21Z</time>
      </trkpt>
      <trkpt lat="42.81284" lon="-0.23713">
        <ele>2618.2880859375</ele>
        <time>2015-09-08T10:49:26Z</time>
      </trkpt>
      <trkpt lat="42.81284" lon="-0.23705">
        <ele>2618.2880859375</ele>
        <time>2015-09-08T10:49:31Z</time>
      </trkpt>
      <trkpt lat="42.81285" lon="-0.23677">
        <ele>2617.8076171875</ele>
        <time>2015-09-08T10:49:49Z</time>
      </trkpt>
      <trkpt lat="42.81286" lon="-0.23654">
        <ele>2616.3657226562</ele>
        <time>2015-09-08T10:50:07Z</time>
      </trkpt>
      <trkpt lat="42.81283" lon="-0.23645">
        <ele>2614.4428710938</ele>
        <time>2015-09-08T10:50:23Z</time>
      </trkpt>
      <trkpt lat="42.81282" lon="-0.23635">
        <ele>2611.55859375</ele>
        <time>2015-09-08T10:50:34Z</time>
      </trkpt>
      <trkpt lat="42.8128" lon="-0.23626">
        <ele>2608.1938476562</ele>
        <time>2015-09-08T10:50:47Z</time>
      </trkpt>
      <trkpt lat="42.81281" lon="-0.23612">
        <ele>2606.751953125</ele>
        <time>2015-09-08T10:51:03Z</time>
      </trkpt>
      <trkpt lat="42.81279" lon="-0.23605">
        <ele>2603.3872070312</ele>
        <time>2015-09-08T10:51:12Z</time>
      </trkpt>
      <trkpt lat="42.81275" lon="-0.2359">
        <ele>2600.0229492188</ele>
        <time>2015-09-08T10:51:28Z</time>
      </trkpt>
      <trkpt lat="42.81275" lon="-0.23572">
        <ele>2599.0615234375</ele>
        <time>2015-09-08T10:51:42Z</time>
      </trkpt>
      <trkpt lat="42.81274" lon="-0.23558">
        <ele>2598.1000976562</ele>
        <time>2015-09-08T10:51:57Z</time>
      </trkpt>
      <trkpt lat="42.81274" lon="-0.23553">
        <ele>2596.658203125</ele>
        <time>2015-09-08T10:52:11Z</time>
      </trkpt>
      <trkpt lat="42.81274" lon="-0.23549">
        <ele>2593.2937011719</ele>
        <time>2015-09-08T10:52:22Z</time>
      </trkpt>
      <trkpt lat="42.81273" lon="-0.23544">
        <ele>2591.37109375</ele>
        <time>2015-09-08T10:52:32Z</time>
      </trkpt>
      <trkpt lat="42.81274" lon="-0.23532">
        <ele>2588.9677734375</ele>
        <time>2015-09-08T10:52:46Z</time>
      </trkpt>
      <trkpt lat="42.81272" lon="-0.23523">
        <ele>2587.5256347656</ele>
        <time>2015-09-08T10:53:01Z</time>
      </trkpt>
      <trkpt lat="42.81272" lon="-0.23515">
        <ele>2585.6030273438</ele>
        <time>2015-09-08T10:53:07Z</time>
      </trkpt>
      <trkpt lat="42.81274" lon="-0.23508">
        <ele>2583.1997070312</ele>
        <time>2015-09-08T10:53:24Z</time>
      </trkpt>
      <trkpt lat="42.81278" lon="-0.23494">
        <ele>2581.7578125</ele>
        <time>2015-09-08T10:53:39Z</time>
      </trkpt>
      <trkpt lat="42.81277" lon="-0.23483">
        <ele>2579.8352050781</ele>
        <time>2015-09-08T10:53:51Z</time>
      </trkpt>
      <trkpt lat="42.81278" lon="-0.2348">
        <ele>2578.8737792969</ele>
        <time>2015-09-08T10:53:54Z</time>
      </trkpt>
      <trkpt lat="42.81281" lon="-0.23466">
        <ele>2576.9514160156</ele>
        <time>2015-09-08T10:54:09Z</time>
      </trkpt>
      <trkpt lat="42.81281" lon="-0.23461">
        <ele>2575.9899902344</ele>
        <time>2015-09-08T10:54:14Z</time>
      </trkpt>
      <trkpt lat="42.81279" lon="-0.2345">
        <ele>2573.1062011719</ele>
        <time>2015-09-08T10:54:24Z</time>
      </trkpt>
      <trkpt lat="42.81276" lon="-0.23433">
        <ele>2571.1831054688</ele>
        <time>2015-09-08T10:54:41Z</time>
      </trkpt>
      <trkpt lat="42.81277" lon="-0.23423">
        <ele>2568.2993164062</ele>
        <time>2015-09-08T10:54:54Z</time>
      </trkpt>
      <trkpt lat="42.81275" lon="-0.23409">
        <ele>2565.4155273438</ele>
        <time>2015-09-08T10:55:10Z</time>
      </trkpt>
      <trkpt lat="42.81276" lon="-0.23398">
        <ele>2563.4926757812</ele>
        <time>2015-09-08T10:55:25Z</time>
      </trkpt>
      <trkpt lat="42.81276" lon="-0.23395">
        <ele>2562.05078125</ele>
        <time>2015-09-08T10:55:28Z</time>
      </trkpt>
      <trkpt lat="42.81276" lon="-0.23383">
        <ele>2559.6474609375</ele>
        <time>2015-09-08T10:55:44Z</time>
      </trkpt>
      <trkpt lat="42.81275" lon="-0.23376">
        <ele>2557.7250976562</ele>
        <time>2015-09-08T10:55:59Z</time>
      </trkpt>
      <trkpt lat="42.81276" lon="-0.23366">
        <ele>2554.8408203125</ele>
        <time>2015-09-08T10:56:16Z</time>
      </trkpt>
      <trkpt lat="42.81276" lon="-0.23357">
        <ele>2551.9567871094</ele>
        <time>2015-09-08T10:56:27Z</time>
      </trkpt>
      <trkpt lat="42.8128" lon="-0.23341">
        <ele>2549.5537109375</ele>
        <time>2015-09-08T10:56:44Z</time>
      </trkpt>
      <trkpt lat="42.81277" lon="-0.23333">
        <ele>2546.6696777344</ele>
        <time>2015-09-08T10:56:57Z</time>
      </trkpt>
      <trkpt lat="42.81277" lon="-0.23332">
        <ele>2546.6696777344</ele>
        <time>2015-09-08T10:56:58Z</time>
      </trkpt>
      <trkpt lat="42.81274" lon="-0.2332">
        <ele>2544.7470703125</ele>
        <time>2015-09-08T10:57:15Z</time>
      </trkpt>
      <trkpt lat="42.81272" lon="-0.23313">
        <ele>2543.3051757812</ele>
        <time>2015-09-08T10:57:34Z</time>
      </trkpt>
      <trkpt lat="42.81268" lon="-0.23308">
        <ele>2541.3825683594</ele>
        <time>2015-09-08T10:57:42Z</time>
      </trkpt>
      <trkpt lat="42.81272" lon="-0.233">
        <ele>2540.4211425781</ele>
        <time>2015-09-08T10:57:55Z</time>
      </trkpt>
      <trkpt lat="42.81267" lon="-0.2329">
        <ele>2539.9404296875</ele>
        <time>2015-09-08T10:58:10Z</time>
      </trkpt>
      <trkpt lat="42.81267" lon="-0.23284">
        <ele>2538.9790039062</ele>
        <time>2015-09-08T10:58:27Z</time>
      </trkpt>
      <trkpt lat="42.81266" lon="-0.23282">
        <ele>2537.537109375</ele>
        <time>2015-09-08T10:58:43Z</time>
      </trkpt>
      <trkpt lat="42.81273" lon="-0.23288">
        <ele>2538.4985351562</ele>
        <time>2015-09-08T10:59:02Z</time>
      </trkpt>
      <trkpt lat="42.81279" lon="-0.2329">
        <ele>2537.537109375</ele>
        <time>2015-09-08T10:59:16Z</time>
      </trkpt>
      <trkpt lat="42.81282" lon="-0.23283">
        <ele>2536.5756835938</ele>
        <time>2015-09-08T10:59:31Z</time>
      </trkpt>
      <trkpt lat="42.81285" lon="-0.2327">
        <ele>2534.6533203125</ele>
        <time>2015-09-08T10:59:46Z</time>
      </trkpt>
      <trkpt lat="42.81284" lon="-0.2326">
        <ele>2533.6918945312</ele>
        <time>2015-09-08T11:00:01Z</time>
      </trkpt>
      <trkpt lat="42.81285" lon="-0.23251">
        <ele>2530.3273925781</ele>
        <time>2015-09-08T11:00:13Z</time>
      </trkpt>
      <trkpt lat="42.81287" lon="-0.23245">
        <ele>2527.9240722656</ele>
        <time>2015-09-08T11:00:26Z</time>
      </trkpt>
      <trkpt lat="42.81287" lon="-0.23232">
        <ele>2526.4821777344</ele>
        <time>2015-09-08T11:00:42Z</time>
      </trkpt>
      <trkpt lat="42.81283" lon="-0.23222">
        <ele>2523.5979003906</ele>
        <time>2015-09-08T11:00:54Z</time>
      </trkpt>
      <trkpt lat="42.81281" lon="-0.23207">
        <ele>2522.63671875</ele>
        <time>2015-09-08T11:01:11Z</time>
      </trkpt>
      <trkpt lat="42.8128" lon="-0.23196">
        <ele>2518.7915039062</ele>
        <time>2015-09-08T11:01:25Z</time>
      </trkpt>
      <trkpt lat="42.81278" lon="-0.23183">
        <ele>2518.3107910156</ele>
        <time>2015-09-08T11:01:44Z</time>
      </trkpt>
      <trkpt lat="42.81276" lon="-0.23178">
        <ele>2515.4270019531</ele>
        <time>2015-09-08T11:01:57Z</time>
      </trkpt>
      <trkpt lat="42.81274" lon="-0.23173">
        <ele>2513.9848632812</ele>
        <time>2015-09-08T11:02:07Z</time>
      </trkpt>
      <trkpt lat="42.81271" lon="-0.23167">
        <ele>2511.5817871094</ele>
        <time>2015-09-08T11:02:19Z</time>
      </trkpt>
      <trkpt lat="42.81276" lon="-0.23153">
        <ele>2508.2170410156</ele>
        <time>2015-09-08T11:02:34Z</time>
      </trkpt>
      <trkpt lat="42.81277" lon="-0.23148">
        <ele>2508.2170410156</ele>
        <time>2015-09-08T11:02:38Z</time>
      </trkpt>
      <trkpt lat="42.81282" lon="-0.23129">
        <ele>2504.8522949219</ele>
        <time>2015-09-08T11:02:57Z</time>
      </trkpt>
      <trkpt lat="42.81281" lon="-0.23117">
        <ele>2502.9296875</ele>
        <time>2015-09-08T11:03:07Z</time>
      </trkpt>
      <trkpt lat="42.81283" lon="-0.23106">
        <ele>2501.4877929688</ele>
        <time>2015-09-08T11:03:25Z</time>
      </trkpt>
      <trkpt lat="42.8128" lon="-0.23096">
        <ele>2500.0458984375</ele>
        <time>2015-09-08T11:03:36Z</time>
      </trkpt>
      <trkpt lat="42.81282" lon="-0.2308">
        <ele>2497.1618652344</ele>
        <time>2015-09-08T11:03:54Z</time>
      </trkpt>
      <trkpt lat="42.81289" lon="-0.23068">
        <ele>2494.2778320312</ele>
        <time>2015-09-08T11:04:12Z</time>
      </trkpt>
      <trkpt lat="42.8129" lon="-0.23058">
        <ele>2490.9130859375</ele>
        <time>2015-09-08T11:04:26Z</time>
      </trkpt>
      <trkpt lat="42.81291" lon="-0.23053">
        <ele>2490.4323730469</ele>
        <time>2015-09-08T11:04:33Z</time>
      </trkpt>
      <trkpt lat="42.81292" lon="-0.2304">
        <ele>2487.0678710938</ele>
        <time>2015-09-08T11:04:48Z</time>
      </trkpt>
      <trkpt lat="42.81294" lon="-0.23029">
        <ele>2484.6647949219</ele>
        <time>2015-09-08T11:05:05Z</time>
      </trkpt>
      <trkpt lat="42.81297" lon="-0.23027">
        <ele>2482.7419433594</ele>
        <time>2015-09-08T11:05:11Z</time>
      </trkpt>
      <trkpt lat="42.81298" lon="-0.23025">
        <ele>2481.3000488281</ele>
        <time>2015-09-08T11:05:14Z</time>
      </trkpt>
      <trkpt lat="42.81301" lon="-0.23015">
        <ele>2480.8195800781</ele>
        <time>2015-09-08T11:05:23Z</time>
      </trkpt>
      <trkpt lat="42.81303" lon="-0.23007">
        <ele>2479.8581542969</ele>
        <time>2015-09-08T11:05:30Z</time>
      </trkpt>
      <trkpt lat="42.81307" lon="-0.22992">
        <ele>2476.9743652344</ele>
        <time>2015-09-08T11:05:43Z</time>
      </trkpt>
      <trkpt lat="42.81307" lon="-0.22982">
        <ele>2476.0129394531</ele>
        <time>2015-09-08T11:05:53Z</time>
      </trkpt>
      <trkpt lat="42.81307" lon="-0.22977">
        <ele>2475.0512695312</ele>
        <time>2015-09-08T11:05:58Z</time>
      </trkpt>
      <trkpt lat="42.81306" lon="-0.22975">
        <ele>2474.5708007812</ele>
        <time>2015-09-08T11:06:00Z</time>
      </trkpt>
      <trkpt lat="42.81309" lon="-0.2296">
        <ele>2472.6481933594</ele>
        <time>2015-09-08T11:06:15Z</time>
      </trkpt>
      <trkpt lat="42.81306" lon="-0.22947">
        <ele>2469.2836914062</ele>
        <time>2015-09-08T11:06:28Z</time>
      </trkpt>
      <trkpt lat="42.81307" lon="-0.2293">
        <ele>2466.8803710938</ele>
        <time>2015-09-08T11:06:46Z</time>
      </trkpt>
      <trkpt lat="42.8131" lon="-0.2291">
        <ele>2464.4770507812</ele>
        <time>2015-09-08T11:07:01Z</time>
      </trkpt>
      <trkpt lat="42.81313" lon="-0.22884">
        <ele>2464.4770507812</ele>
        <time>2015-09-08T11:07:18Z</time>
      </trkpt>
      <trkpt lat="42.81314" lon="-0.22866">
        <ele>2467.8415527344</ele>
        <time>2015-09-08T11:07:33Z</time>
      </trkpt>
      <trkpt lat="42.81315" lon="-0.22856">
        <ele>2467.8415527344</ele>
        <time>2015-09-08T11:07:48Z</time>
      </trkpt>
      <trkpt lat="42.81316" lon="-0.22844">
        <ele>2467.3608398438</ele>
        <time>2015-09-08T11:07:57Z</time>
      </trkpt>
      <trkpt lat="42.81319" lon="-0.22827">
        <ele>2466.3996582031</ele>
        <time>2015-09-08T11:08:15Z</time>
      </trkpt>
      <trkpt lat="42.81321" lon="-0.22812">
        <ele>2465.9189453125</ele>
        <time>2015-09-08T11:08:32Z</time>
      </trkpt>
      <trkpt lat="42.81321" lon="-0.22798">
        <ele>2464.9577636719</ele>
        <time>2015-09-08T11:08:45Z</time>
      </trkpt>
      <trkpt lat="42.8132" lon="-0.22796">
        <ele>2464.4770507812</ele>
        <time>2015-09-08T11:08:47Z</time>
      </trkpt>
      <trkpt lat="42.81314" lon="-0.22781">
        <ele>2464.4770507812</ele>
        <time>2015-09-08T11:09:02Z</time>
      </trkpt>
      <trkpt lat="42.81313" lon="-0.22779">
        <ele>2463.515625</ele>
        <time>2015-09-08T11:09:05Z</time>
      </trkpt>
      <trkpt lat="42.81308" lon="-0.22758">
        <ele>2464.9577636719</ele>
        <time>2015-09-08T11:09:20Z</time>
      </trkpt>
      <trkpt lat="42.81305" lon="-0.22725">
        <ele>2465.4384765625</ele>
        <time>2015-09-08T11:09:41Z</time>
      </trkpt>
      <trkpt lat="42.813" lon="-0.22697">
        <ele>2464.9577636719</ele>
        <time>2015-09-08T11:09:58Z</time>
      </trkpt>
      <trkpt lat="42.81297" lon="-0.22687">
        <ele>2464.4770507812</ele>
        <time>2015-09-08T11:10:05Z</time>
      </trkpt>
      <trkpt lat="42.81296" lon="-0.22681">
        <ele>2465.4384765625</ele>
        <time>2015-09-08T11:10:25Z</time>
      </trkpt>
      <trkpt lat="42.81294" lon="-0.22678">
        <ele>2464.9577636719</ele>
        <time>2015-09-08T11:10:40Z</time>
      </trkpt>
      <trkpt lat="42.81296" lon="-0.22651">
        <ele>2464.9577636719</ele>
        <time>2015-09-08T11:10:59Z</time>
      </trkpt>
      <trkpt lat="42.813" lon="-0.22625">
        <ele>2464.9577636719</ele>
        <time>2015-09-08T11:11:16Z</time>
      </trkpt>
      <trkpt lat="42.81302" lon="-0.22621">
        <ele>2464.9577636719</ele>
        <time>2015-09-08T11:11:19Z</time>
      </trkpt>
      <trkpt lat="42.81311" lon="-0.22594">
        <ele>2464.4770507812</ele>
        <time>2015-09-08T11:11:40Z</time>
      </trkpt>
      <trkpt lat="42.81319" lon="-0.22586">
        <ele>2464.4770507812</ele>
        <time>2015-09-08T11:11:54Z</time>
      </trkpt>
      <trkpt lat="42.81329" lon="-0.22578">
        <ele>2463.515625</ele>
        <time>2015-09-08T11:12:11Z</time>
      </trkpt>
      <trkpt lat="42.81332" lon="-0.22577">
        <ele>2463.515625</ele>
        <time>2015-09-08T11:12:15Z</time>
      </trkpt>
      <trkpt lat="42.81339" lon="-0.22575">
        <ele>2463.03515625</ele>
        <time>2015-09-08T11:12:23Z</time>
      </trkpt>
      <trkpt lat="42.81345" lon="-0.22568">
        <ele>2463.515625</ele>
        <time>2015-09-08T11:12:38Z</time>
      </trkpt>
      <trkpt lat="42.8135" lon="-0.22559">
        <ele>2462.0737304688</ele>
        <time>2015-09-08T11:12:54Z</time>
      </trkpt>
      <trkpt lat="42.81352" lon="-0.22555">
        <ele>2460.6318359375</ele>
        <time>2015-09-08T11:12:59Z</time>
      </trkpt>
      <trkpt lat="42.8136" lon="-0.22541">
        <ele>2457.7478027344</ele>
        <time>2015-09-08T11:13:13Z</time>
      </trkpt>
      <trkpt lat="42.81364" lon="-0.22534">
        <ele>2457.2670898438</ele>
        <time>2015-09-08T11:13:20Z</time>
      </trkpt>
      <trkpt lat="42.81377" lon="-0.22507">
        <ele>2455.8249511719</ele>
        <time>2015-09-08T11:13:42Z</time>
      </trkpt>
      <trkpt lat="42.8138" lon="-0.2249">
        <ele>2454.8637695312</ele>
        <time>2015-09-08T11:13:59Z</time>
      </trkpt>
      <trkpt lat="42.81383" lon="-0.2248">
        <ele>2451.9797363281</ele>
        <time>2015-09-08T11:14:15Z</time>
      </trkpt>
      <trkpt lat="42.81376" lon="-0.22477">
        <ele>2450.5378417969</ele>
        <time>2015-09-08T11:14:30Z</time>
      </trkpt>
      <trkpt lat="42.81371" lon="-0.22463">
        <ele>2446.6926269531</ele>
        <time>2015-09-08T11:14:47Z</time>
      </trkpt>
      <trkpt lat="42.8137" lon="-0.22457">
        <ele>2447.1733398438</ele>
        <time>2015-09-08T11:15:07Z</time>
      </trkpt>
      <trkpt lat="42.81372" lon="-0.22461">
        <ele>2446.6926269531</ele>
        <time>2015-09-08T11:15:30Z</time>
      </trkpt>
      <trkpt lat="42.81372" lon="-0.22461">
        <ele>2445.7314453125</ele>
        <time>2015-09-08T11:15:51Z</time>
      </trkpt>
      <trkpt lat="42.81371" lon="-0.22462">
        <ele>2447.1733398438</ele>
        <time>2015-09-08T11:16:11Z</time>
      </trkpt>
      <trkpt lat="42.8137" lon="-0.22465">
        <ele>2445.7314453125</ele>
        <time>2015-09-08T11:17:29Z</time>
      </trkpt>
      <trkpt lat="42.8137" lon="-0.22464">
        <ele>2447.6540527344</ele>
        <time>2015-09-08T11:18:38Z</time>
      </trkpt>
      <trkpt lat="42.81371" lon="-0.22463">
        <ele>2447.6540527344</ele>
        <time>2015-09-08T11:30:45Z</time>
      </trkpt>
      <trkpt lat="42.81371" lon="-0.22463">
        <ele>2448.615234375</ele>
        <time>2015-09-08T11:31:41Z</time>
      </trkpt>
      <trkpt lat="42.8137" lon="-0.22467">
        <ele>2448.1345214844</ele>
        <time>2015-09-08T11:38:36Z</time>
      </trkpt>
      <trkpt lat="42.81372" lon="-0.22464">
        <ele>2447.6540527344</ele>
        <time>2015-09-08T11:39:37Z</time>
      </trkpt>
      <trkpt lat="42.8137" lon="-0.22462">
        <ele>2449.5766601562</ele>
        <time>2015-09-08T11:43:44Z</time>
      </trkpt>
      <trkpt lat="42.81368" lon="-0.22464">
        <ele>2449.0959472656</ele>
        <time>2015-09-08T11:44:03Z</time>
      </trkpt>
      <trkpt lat="42.81371" lon="-0.22464">
        <ele>2449.5766601562</ele>
        <time>2015-09-08T11:44:21Z</time>
      </trkpt>
      <trkpt lat="42.81373" lon="-0.22459">
        <ele>2448.1345214844</ele>
        <time>2015-09-08T11:45:06Z</time>
      </trkpt>
      <trkpt lat="42.8137" lon="-0.22446">
        <ele>2448.1345214844</ele>
        <time>2015-09-08T11:45:18Z</time>
      </trkpt>
      <trkpt lat="42.81364" lon="-0.22425">
        <ele>2448.1345214844</ele>
        <time>2015-09-08T11:45:35Z</time>
      </trkpt>
      <trkpt lat="42.81364" lon="-0.22422">
        <ele>2448.1345214844</ele>
        <time>2015-09-08T11:45:38Z</time>
      </trkpt>
      <trkpt lat="42.81366" lon="-0.22402">
        <ele>2447.6540527344</ele>
        <time>2015-09-08T11:45:54Z</time>
      </trkpt>
      <trkpt lat="42.81373" lon="-0.22384">
        <ele>2450.0573730469</ele>
        <time>2015-09-08T11:46:12Z</time>
      </trkpt>
      <trkpt lat="42.81376" lon="-0.2237">
        <ele>2451.0185546875</ele>
        <time>2015-09-08T11:46:32Z</time>
      </trkpt>
      <trkpt lat="42.81373" lon="-0.22387">
        <ele>2451.4992675781</ele>
        <time>2015-09-08T11:46:50Z</time>
      </trkpt>
      <trkpt lat="42.8137" lon="-0.22393">
        <ele>2449.0959472656</ele>
        <time>2015-09-08T11:46:58Z</time>
      </trkpt>
      <trkpt lat="42.81363" lon="-0.22417">
        <ele>2448.1345214844</ele>
        <time>2015-09-08T11:47:17Z</time>
      </trkpt>
      <trkpt lat="42.81365" lon="-0.22424">
        <ele>2448.615234375</ele>
        <time>2015-09-08T11:47:24Z</time>
      </trkpt>
      <trkpt lat="42.81367" lon="-0.22437">
        <ele>2446.6926269531</ele>
        <time>2015-09-08T11:47:32Z</time>
      </trkpt>
      <trkpt lat="42.81371" lon="-0.22451">
        <ele>2447.1733398438</ele>
        <time>2015-09-08T11:47:43Z</time>
      </trkpt>
      <trkpt lat="42.81377" lon="-0.22461">
        <ele>2448.1345214844</ele>
        <time>2015-09-08T11:47:55Z</time>
      </trkpt>
      <trkpt lat="42.81382" lon="-0.22468">
        <ele>2449.5766601562</ele>
        <time>2015-09-08T11:48:06Z</time>
      </trkpt>
      <trkpt lat="42.81386" lon="-0.22459">
        <ele>2449.0959472656</ele>
        <time>2015-09-08T11:48:20Z</time>
      </trkpt>
      <trkpt lat="42.81388" lon="-0.2244">
        <ele>2446.2121582031</ele>
        <time>2015-09-08T11:48:38Z</time>
      </trkpt>
      <trkpt lat="42.81394" lon="-0.22432">
        <ele>2444.2893066406</ele>
        <time>2015-09-08T11:48:54Z</time>
      </trkpt>
      <trkpt lat="42.81402" lon="-0.22428">
        <ele>2443.3278808594</ele>
        <time>2015-09-08T11:49:07Z</time>
      </trkpt>
      <trkpt lat="42.81418" lon="-0.22423">
        <ele>2441.4052734375</ele>
        <time>2015-09-08T11:49:24Z</time>
      </trkpt>
      <trkpt lat="42.81421" lon="-0.2242">
        <ele>2440.9245605469</ele>
        <time>2015-09-08T11:49:28Z</time>
      </trkpt>
      <trkpt lat="42.8143" lon="-0.22407">
        <ele>2441.4052734375</ele>
        <time>2015-09-08T11:49:44Z</time>
      </trkpt>
      <trkpt lat="42.81438" lon="-0.22383">
        <ele>2439.001953125</ele>
        <time>2015-09-08T11:50:03Z</time>
      </trkpt>
      <trkpt lat="42.8144" lon="-0.22371">
        <ele>2438.521484375</ele>
        <time>2015-09-08T11:50:14Z</time>
      </trkpt>
      <trkpt lat="42.81441" lon="-0.22367">
        <ele>2439.001953125</ele>
        <time>2015-09-08T11:50:17Z</time>
      </trkpt>
      <trkpt lat="42.81456" lon="-0.22354">
        <ele>2440.9245605469</ele>
        <time>2015-09-08T11:50:34Z</time>
      </trkpt>
      <trkpt lat="42.81462" lon="-0.22328">
        <ele>2437.0793457031</ele>
        <time>2015-09-08T11:50:53Z</time>
      </trkpt>
      <trkpt lat="42.81464" lon="-0.22311">
        <ele>2435.1567382812</ele>
        <time>2015-09-08T11:51:10Z</time>
      </trkpt>
      <trkpt lat="42.81465" lon="-0.22288">
        <ele>2433.71484375</ele>
        <time>2015-09-08T11:51:28Z</time>
      </trkpt>
      <trkpt lat="42.81466" lon="-0.22279">
        <ele>2432.2729492188</ele>
        <time>2015-09-08T11:51:49Z</time>
      </trkpt>
      <trkpt lat="42.8147" lon="-0.2227">
        <ele>2430.8310546875</ele>
        <time>2015-09-08T11:52:04Z</time>
      </trkpt>
      <trkpt lat="42.81474" lon="-0.22271">
        <ele>2429.8696289062</ele>
        <time>2015-09-08T11:52:16Z</time>
      </trkpt>
      <trkpt lat="42.81482" lon="-0.22268">
        <ele>2427.4660644531</ele>
        <time>2015-09-08T11:52:33Z</time>
      </trkpt>
      <trkpt lat="42.81488" lon="-0.22258">
        <ele>2425.0627441406</ele>
        <time>2015-09-08T11:52:51Z</time>
      </trkpt>
      <trkpt lat="42.81486" lon="-0.22253">
        <ele>2423.1403808594</ele>
        <time>2015-09-08T11:53:01Z</time>
      </trkpt>
      <trkpt lat="42.81485" lon="-0.2225">
        <ele>2420.7370605469</ele>
        <time>2015-09-08T11:53:09Z</time>
      </trkpt>
      <trkpt lat="42.81486" lon="-0.22238">
        <ele>2418.814453125</ele>
        <time>2015-09-08T11:53:25Z</time>
      </trkpt>
      <trkpt lat="42.81488" lon="-0.22228">
        <ele>2415.4499511719</ele>
        <time>2015-09-08T11:53:36Z</time>
      </trkpt>
      <trkpt lat="42.81487" lon="-0.22216">
        <ele>2412.5659179688</ele>
        <time>2015-09-08T11:53:48Z</time>
      </trkpt>
      <trkpt lat="42.81487" lon="-0.22215">
        <ele>2412.0852050781</ele>
        <time>2015-09-08T11:53:49Z</time>
      </trkpt>
      <trkpt lat="42.81488" lon="-0.22202">
        <ele>2408.2397460938</ele>
        <time>2015-09-08T11:54:02Z</time>
      </trkpt>
      <trkpt lat="42.81489" lon="-0.22202">
        <ele>2408.2397460938</ele>
        <time>2015-09-08T11:54:03Z</time>
      </trkpt>
      <trkpt lat="42.8149" lon="-0.22195">
        <ele>2408.2397460938</ele>
        <time>2015-09-08T11:54:16Z</time>
      </trkpt>
      <trkpt lat="42.8149" lon="-0.22181">
        <ele>2405.8364257812</ele>
        <time>2015-09-08T11:54:30Z</time>
      </trkpt>
      <trkpt lat="42.81493" lon="-0.2217">
        <ele>2402.4719238281</ele>
        <time>2015-09-08T11:54:43Z</time>
      </trkpt>
      <trkpt lat="42.81493" lon="-0.2216">
        <ele>2400.0688476562</ele>
        <time>2015-09-08T11:55:00Z</time>
      </trkpt>
      <trkpt lat="42.81495" lon="-0.22154">
        <ele>2398.1459960938</ele>
        <time>2015-09-08T11:55:14Z</time>
      </trkpt>
      <trkpt lat="42.81496" lon="-0.22151">
        <ele>2397.1848144531</ele>
        <time>2015-09-08T11:55:19Z</time>
      </trkpt>
      <trkpt lat="42.81498" lon="-0.22145">
        <ele>2394.78125</ele>
        <time>2015-09-08T11:55:26Z</time>
      </trkpt>
      <trkpt lat="42.81498" lon="-0.22138">
        <ele>2392.8586425781</ele>
        <time>2015-09-08T11:55:34Z</time>
      </trkpt>
      <trkpt lat="42.81502" lon="-0.22129">
        <ele>2390.4553222656</ele>
        <time>2015-09-08T11:55:46Z</time>
      </trkpt>
      <trkpt lat="42.81504" lon="-0.22118">
        <ele>2388.0522460938</ele>
        <time>2015-09-08T11:55:59Z</time>
      </trkpt>
      <trkpt lat="42.81507" lon="-0.22107">
        <ele>2387.5715332031</ele>
        <time>2015-09-08T11:56:14Z</time>
      </trkpt>
      <trkpt lat="42.81508" lon="-0.22093">
        <ele>2384.20703125</ele>
        <time>2015-09-08T11:56:30Z</time>
      </trkpt>
      <trkpt lat="42.8151" lon="-0.22075">
        <ele>2380.3618164062</ele>
        <time>2015-09-08T11:56:47Z</time>
      </trkpt>
      <trkpt lat="42.8151" lon="-0.22073">
        <ele>2380.3618164062</ele>
        <time>2015-09-08T11:56:48Z</time>
      </trkpt>
      <trkpt lat="42.81508" lon="-0.22071">
        <ele>2378.4389648438</ele>
        <time>2015-09-08T11:57:00Z</time>
      </trkpt>
      <trkpt lat="42.81505" lon="-0.22076">
        <ele>2375.5549316406</ele>
        <time>2015-09-08T11:57:15Z</time>
      </trkpt>
      <trkpt lat="42.81507" lon="-0.22063">
        <ele>2373.6323242188</ele>
        <time>2015-09-08T11:57:28Z</time>
      </trkpt>
      <trkpt lat="42.81509" lon="-0.22053">
        <ele>2371.7097167969</ele>
        <time>2015-09-08T11:57:40Z</time>
      </trkpt>
      <trkpt lat="42.8151" lon="-0.2204">
        <ele>2368.3452148438</ele>
        <time>2015-09-08T11:57:50Z</time>
      </trkpt>
      <trkpt lat="42.81512" lon="-0.22032">
        <ele>2368.8259277344</ele>
        <time>2015-09-08T11:57:55Z</time>
      </trkpt>
      <trkpt lat="42.81513" lon="-0.2203">
        <ele>2367.3837890625</ele>
        <time>2015-09-08T11:58:08Z</time>
      </trkpt>
      <trkpt lat="42.81515" lon="-0.22007">
        <ele>2364.9807128906</ele>
        <time>2015-09-08T11:58:27Z</time>
      </trkpt>
      <trkpt lat="42.81515" lon="-0.21998">
        <ele>2362.0964355469</ele>
        <time>2015-09-08T11:58:42Z</time>
      </trkpt>
      <trkpt lat="42.81515" lon="-0.21979">
        <ele>2358.7319335938</ele>
        <time>2015-09-08T11:58:54Z</time>
      </trkpt>
      <trkpt lat="42.81518" lon="-0.21963">
        <ele>2356.3286132812</ele>
        <time>2015-09-08T11:59:11Z</time>
      </trkpt>
      <trkpt lat="42.81521" lon="-0.21947">
        <ele>2353.4448242188</ele>
        <time>2015-09-08T11:59:26Z</time>
      </trkpt>
      <trkpt lat="42.81522" lon="-0.21942">
        <ele>2351.0415039062</ele>
        <time>2015-09-08T11:59:33Z</time>
      </trkpt>
      <trkpt lat="42.81524" lon="-0.21929">
        <ele>2349.1188964844</ele>
        <time>2015-09-08T11:59:49Z</time>
      </trkpt>
      <trkpt lat="42.8152" lon="-0.21924">
        <ele>2348.6381835938</ele>
        <time>2015-09-08T11:59:57Z</time>
      </trkpt>
      <trkpt lat="42.81518" lon="-0.21919">
        <ele>2347.6767578125</ele>
        <time>2015-09-08T12:00:02Z</time>
      </trkpt>
      <trkpt lat="42.81514" lon="-0.21897">
        <ele>2344.7927246094</ele>
        <time>2015-09-08T12:00:19Z</time>
      </trkpt>
      <trkpt lat="42.81515" lon="-0.21892">
        <ele>2344.7927246094</ele>
        <time>2015-09-08T12:00:48Z</time>
      </trkpt>
      <trkpt lat="42.81515" lon="-0.21877">
        <ele>2341.9089355469</ele>
        <time>2015-09-08T12:01:04Z</time>
      </trkpt>
      <trkpt lat="42.81515" lon="-0.21873">
        <ele>2340.466796875</ele>
        <time>2015-09-08T12:01:09Z</time>
      </trkpt>
      <trkpt lat="42.81517" lon="-0.21856">
        <ele>2338.5444335938</ele>
        <time>2015-09-08T12:01:25Z</time>
      </trkpt>
      <trkpt lat="42.81517" lon="-0.21853">
        <ele>2337.5830078125</ele>
        <time>2015-09-08T12:01:27Z</time>
      </trkpt>
      <trkpt lat="42.81521" lon="-0.21841">
        <ele>2334.69921875</ele>
        <time>2015-09-08T12:01:40Z</time>
      </trkpt>
      <trkpt lat="42.81524" lon="-0.21831">
        <ele>2332.7763671875</ele>
        <time>2015-09-08T12:01:49Z</time>
      </trkpt>
      <trkpt lat="42.81528" lon="-0.21819">
        <ele>2331.3342285156</ele>
        <time>2015-09-08T12:02:00Z</time>
      </trkpt>
      <trkpt lat="42.81531" lon="-0.21806">
        <ele>2329.4116210938</ele>
        <time>2015-09-08T12:02:11Z</time>
      </trkpt>
      <trkpt lat="42.81532" lon="-0.21801">
        <ele>2328.9309082031</ele>
        <time>2015-09-08T12:02:15Z</time>
      </trkpt>
      <trkpt lat="42.81534" lon="-0.21776">
        <ele>2328.4504394531</ele>
        <time>2015-09-08T12:02:33Z</time>
      </trkpt>
      <trkpt lat="42.81537" lon="-0.21759">
        <ele>2325.0856933594</ele>
        <time>2015-09-08T12:02:52Z</time>
      </trkpt>
      <trkpt lat="42.8154" lon="-0.21752">
        <ele>2322.2019042969</ele>
        <time>2015-09-08T12:03:10Z</time>
      </trkpt>
      <trkpt lat="42.81543" lon="-0.21743">
        <ele>2319.7985839844</ele>
        <time>2015-09-08T12:03:22Z</time>
      </trkpt>
      <trkpt lat="42.81543" lon="-0.21741">
        <ele>2318.8374023438</ele>
        <time>2015-09-08T12:03:43Z</time>
      </trkpt>
      <trkpt lat="42.81546" lon="-0.21733">
        <ele>2315.953125</ele>
        <time>2015-09-08T12:04:02Z</time>
      </trkpt>
      <trkpt lat="42.81549" lon="-0.21725">
        <ele>2313.0693359375</ele>
        <time>2015-09-08T12:04:13Z</time>
      </trkpt>
      <trkpt lat="42.8155" lon="-0.2171">
        <ele>2311.1467285156</ele>
        <time>2015-09-08T12:04:26Z</time>
      </trkpt>
      <trkpt lat="42.81549" lon="-0.21697">
        <ele>2307.7822265625</ele>
        <time>2015-09-08T12:04:39Z</time>
      </trkpt>
      <trkpt lat="42.81549" lon="-0.21694">
        <ele>2306.3400878906</ele>
        <time>2015-09-08T12:04:41Z</time>
      </trkpt>
      <trkpt lat="42.8155" lon="-0.21686">
        <ele>2303.4562988281</ele>
        <time>2015-09-08T12:04:57Z</time>
      </trkpt>
      <trkpt lat="42.81547" lon="-0.21676">
        <ele>2302.9755859375</ele>
        <time>2015-09-08T12:05:13Z</time>
      </trkpt>
      <trkpt lat="42.81545" lon="-0.21667">
        <ele>2301.0529785156</ele>
        <time>2015-09-08T12:05:22Z</time>
      </trkpt>
      <trkpt lat="42.81539" lon="-0.21656">
        <ele>2298.1687011719</ele>
        <time>2015-09-08T12:05:32Z</time>
      </trkpt>
      <trkpt lat="42.81537" lon="-0.21645">
        <ele>2296.2463378906</ele>
        <time>2015-09-08T12:05:42Z</time>
      </trkpt>
      <trkpt lat="42.81537" lon="-0.21641">
        <ele>2296.7268066406</ele>
        <time>2015-09-08T12:05:45Z</time>
      </trkpt>
      <trkpt lat="42.81532" lon="-0.2162">
        <ele>2295.765625</ele>
        <time>2015-09-08T12:06:00Z</time>
      </trkpt>
      <trkpt lat="42.81523" lon="-0.21593">
        <ele>2293.3623046875</ele>
        <time>2015-09-08T12:06:20Z</time>
      </trkpt>
      <trkpt lat="42.81522" lon="-0.21564">
        <ele>2291.9204101562</ele>
        <time>2015-09-08T12:06:39Z</time>
      </trkpt>
      <trkpt lat="42.81526" lon="-0.21541">
        <ele>2290.958984375</ele>
        <time>2015-09-08T12:06:55Z</time>
      </trkpt>
      <trkpt lat="42.81534" lon="-0.21515">
        <ele>2290.958984375</ele>
        <time>2015-09-08T12:07:13Z</time>
      </trkpt>
      <trkpt lat="42.81547" lon="-0.215">
        <ele>2287.1137695312</ele>
        <time>2015-09-08T12:07:30Z</time>
      </trkpt>
      <trkpt lat="42.81548" lon="-0.21499">
        <ele>2287.1137695312</ele>
        <time>2015-09-08T12:07:31Z</time>
      </trkpt>
      <trkpt lat="42.81555" lon="-0.21493">
        <ele>2284.7106933594</ele>
        <time>2015-09-08T12:07:43Z</time>
      </trkpt>
      <trkpt lat="42.81562" lon="-0.2149">
        <ele>2283.7490234375</ele>
        <time>2015-09-08T12:08:01Z</time>
      </trkpt>
      <trkpt lat="42.81572" lon="-0.21489">
        <ele>2280.3845214844</ele>
        <time>2015-09-08T12:08:13Z</time>
      </trkpt>
      <trkpt lat="42.81589" lon="-0.21483">
        <ele>2277.0200195312</ele>
        <time>2015-09-08T12:08:32Z</time>
      </trkpt>
      <trkpt lat="42.81594" lon="-0.21479">
        <ele>2276.05859375</ele>
        <time>2015-09-08T12:08:39Z</time>
      </trkpt>
      <trkpt lat="42.81599" lon="-0.21474">
        <ele>2273.6552734375</ele>
        <time>2015-09-08T12:08:47Z</time>
      </trkpt>
      <trkpt lat="42.81597" lon="-0.21462">
        <ele>2271.7326660156</ele>
        <time>2015-09-08T12:09:01Z</time>
      </trkpt>
      <trkpt lat="42.81592" lon="-0.21453">
        <ele>2269.3295898438</ele>
        <time>2015-09-08T12:09:12Z</time>
      </trkpt>
      <trkpt lat="42.81595" lon="-0.21445">
        <ele>2267.8872070312</ele>
        <time>2015-09-08T12:09:21Z</time>
      </trkpt>
      <trkpt lat="42.81598" lon="-0.21445">
        <ele>2265.9645996094</ele>
        <time>2015-09-08T12:09:24Z</time>
      </trkpt>
      <trkpt lat="42.8161" lon="-0.21445">
        <ele>2264.0419921875</ele>
        <time>2015-09-08T12:09:38Z</time>
      </trkpt>
      <trkpt lat="42.81621" lon="-0.21443">
        <ele>2260.6774902344</ele>
        <time>2015-09-08T12:09:51Z</time>
      </trkpt>
      <trkpt lat="42.81624" lon="-0.21439">
        <ele>2260.1967773438</ele>
        <time>2015-09-08T12:10:03Z</time>
      </trkpt>
      <trkpt lat="42.81623" lon="-0.21429">
        <ele>2257.3129882812</ele>
        <time>2015-09-08T12:10:17Z</time>
      </trkpt>
      <trkpt lat="42.81621" lon="-0.21414">
        <ele>2253.9484863281</ele>
        <time>2015-09-08T12:10:31Z</time>
      </trkpt>
      <trkpt lat="42.81617" lon="-0.21407">
        <ele>2251.0642089844</ele>
        <time>2015-09-08T12:10:40Z</time>
      </trkpt>
      <trkpt lat="42.81616" lon="-0.21402">
        <ele>2249.1416015625</ele>
        <time>2015-09-08T12:10:46Z</time>
      </trkpt>
      <trkpt lat="42.81614" lon="-0.21387">
        <ele>2246.2578125</ele>
        <time>2015-09-08T12:11:07Z</time>
      </trkpt>
      <trkpt lat="42.81615" lon="-0.21384">
        <ele>2244.3349609375</ele>
        <time>2015-09-08T12:11:14Z</time>
      </trkpt>
      <trkpt lat="42.81614" lon="-0.21378">
        <ele>2242.4125976562</ele>
        <time>2015-09-08T12:11:20Z</time>
      </trkpt>
      <trkpt lat="42.81613" lon="-0.21363">
        <ele>2239.0478515625</ele>
        <time>2015-09-08T12:11:33Z</time>
      </trkpt>
      <trkpt lat="42.81615" lon="-0.21352">
        <ele>2237.1252441406</ele>
        <time>2015-09-08T12:11:50Z</time>
      </trkpt>
      <trkpt lat="42.81614" lon="-0.21346">
        <ele>2234.2412109375</ele>
        <time>2015-09-08T12:11:57Z</time>
      </trkpt>
      <trkpt lat="42.81615" lon="-0.21342">
        <ele>2233.7604980469</ele>
        <time>2015-09-08T12:12:01Z</time>
      </trkpt>
      <trkpt lat="42.81617" lon="-0.21331">
        <ele>2229.9152832031</ele>
        <time>2015-09-08T12:12:11Z</time>
      </trkpt>
      <trkpt lat="42.81622" lon="-0.21327">
        <ele>2228.4733886719</ele>
        <time>2015-09-08T12:12:28Z</time>
      </trkpt>
      <trkpt lat="42.81627" lon="-0.2131">
        <ele>2227.9926757812</ele>
        <time>2015-09-08T12:12:44Z</time>
      </trkpt>
      <trkpt lat="42.81627" lon="-0.21304">
        <ele>2226.55078125</ele>
        <time>2015-09-08T12:12:48Z</time>
      </trkpt>
      <trkpt lat="42.81627" lon="-0.21287">
        <ele>2224.1474609375</ele>
        <time>2015-09-08T12:13:00Z</time>
      </trkpt>
      <trkpt lat="42.8163" lon="-0.21284">
        <ele>2222.2248535156</ele>
        <time>2015-09-08T12:13:04Z</time>
      </trkpt>
      <trkpt lat="42.81647" lon="-0.21271">
        <ele>2220.3022460938</ele>
        <time>2015-09-08T12:13:22Z</time>
      </trkpt>
      <trkpt lat="42.81654" lon="-0.21263">
        <ele>2218.3793945312</ele>
        <time>2015-09-08T12:13:32Z</time>
      </trkpt>
      <trkpt lat="42.81655" lon="-0.2126">
        <ele>2218.8601074219</ele>
        <time>2015-09-08T12:13:34Z</time>
      </trkpt>
      <trkpt lat="42.81656" lon="-0.21254">
        <ele>2217.41796875</ele>
        <time>2015-09-08T12:13:38Z</time>
      </trkpt>
      <trkpt lat="42.81669" lon="-0.21246">
        <ele>2215.0148925781</ele>
        <time>2015-09-08T12:13:55Z</time>
      </trkpt>
      <trkpt lat="42.81679" lon="-0.21246">
        <ele>2212.6115722656</ele>
        <time>2015-09-08T12:14:07Z</time>
      </trkpt>
      <trkpt lat="42.81689" lon="-0.21249">
        <ele>2211.1696777344</ele>
        <time>2015-09-08T12:14:20Z</time>
      </trkpt>
      <trkpt lat="42.81692" lon="-0.21235">
        <ele>2209.2470703125</ele>
        <time>2015-09-08T12:14:36Z</time>
      </trkpt>
      <trkpt lat="42.81693" lon="-0.21222">
        <ele>2207.8051757812</ele>
        <time>2015-09-08T12:14:47Z</time>
      </trkpt>
      <trkpt lat="42.81694" lon="-0.21218">
        <ele>2206.84375</ele>
        <time>2015-09-08T12:14:50Z</time>
      </trkpt>
      <trkpt lat="42.81697" lon="-0.21191">
        <ele>2205.8823242188</ele>
        <time>2015-09-08T12:15:07Z</time>
      </trkpt>
      <trkpt lat="42.81697" lon="-0.21176">
        <ele>2204.4404296875</ele>
        <time>2015-09-08T12:15:25Z</time>
      </trkpt>
      <trkpt lat="42.817" lon="-0.21171">
        <ele>2203.9597167969</ele>
        <time>2015-09-08T12:15:40Z</time>
      </trkpt>
      <trkpt lat="42.81701" lon="-0.21167">
        <ele>2203.4790039062</ele>
        <time>2015-09-08T12:16:14Z</time>
      </trkpt>
      <trkpt lat="42.81701" lon="-0.21166">
        <ele>2202.517578125</ele>
        <time>2015-09-08T12:16:16Z</time>
      </trkpt>
      <trkpt lat="42.817" lon="-0.21162">
        <ele>2201.0756835938</ele>
        <time>2015-09-08T12:16:34Z</time>
      </trkpt>
      <trkpt lat="42.81698" lon="-0.21151">
        <ele>2198.6723632812</ele>
        <time>2015-09-08T12:16:50Z</time>
      </trkpt>
      <trkpt lat="42.81699" lon="-0.2114">
        <ele>2194.8271484375</ele>
        <time>2015-09-08T12:17:04Z</time>
      </trkpt>
      <trkpt lat="42.81698" lon="-0.21125">
        <ele>2192.4240722656</ele>
        <time>2015-09-08T12:17:19Z</time>
      </trkpt>
      <trkpt lat="42.81699" lon="-0.21108">
        <ele>2190.0207519531</ele>
        <time>2015-09-08T12:17:35Z</time>
      </trkpt>
      <trkpt lat="42.817" lon="-0.21094">
        <ele>2186.6557617188</ele>
        <time>2015-09-08T12:17:50Z</time>
      </trkpt>
      <trkpt lat="42.81705" lon="-0.21088">
        <ele>2185.6945800781</ele>
        <time>2015-09-08T12:17:58Z</time>
      </trkpt>
      <trkpt lat="42.81708" lon="-0.21072">
        <ele>2184.7333984375</ele>
        <time>2015-09-08T12:18:14Z</time>
      </trkpt>
      <trkpt lat="42.8171" lon="-0.21057">
        <ele>2182.810546875</ele>
        <time>2015-09-08T12:18:28Z</time>
      </trkpt>
      <trkpt lat="42.81711" lon="-0.21042">
        <ele>2179.9267578125</ele>
        <time>2015-09-08T12:18:42Z</time>
      </trkpt>
      <trkpt lat="42.81714" lon="-0.2103">
        <ele>2176.5622558594</ele>
        <time>2015-09-08T12:18:54Z</time>
      </trkpt>
      <trkpt lat="42.81716" lon="-0.21018">
        <ele>2173.6782226562</ele>
        <time>2015-09-08T12:19:07Z</time>
      </trkpt>
      <trkpt lat="42.81715" lon="-0.21013">
        <ele>2173.1977539062</ele>
        <time>2015-09-08T12:19:16Z</time>
      </trkpt>
      <trkpt lat="42.81706" lon="-0.21026">
        <ele>2171.7553710938</ele>
        <time>2015-09-08T12:19:28Z</time>
      </trkpt>
      <trkpt lat="42.81697" lon="-0.21035">
        <ele>2168.3908691406</ele>
        <time>2015-09-08T12:19:41Z</time>
      </trkpt>
      <trkpt lat="42.81696" lon="-0.21035">
        <ele>2168.3908691406</ele>
        <time>2015-09-08T12:19:42Z</time>
      </trkpt>
      <trkpt lat="42.8169" lon="-0.21043">
        <ele>2166.4682617188</ele>
        <time>2015-09-08T12:19:52Z</time>
      </trkpt>
      <trkpt lat="42.81688" lon="-0.21045">
        <ele>2165.0263671875</ele>
        <time>2015-09-08T12:19:55Z</time>
      </trkpt>
      <trkpt lat="42.81678" lon="-0.21055">
        <ele>2163.1037597656</ele>
        <time>2015-09-08T12:20:11Z</time>
      </trkpt>
      <trkpt lat="42.81667" lon="-0.21063">
        <ele>2160.2197265625</ele>
        <time>2015-09-08T12:20:26Z</time>
      </trkpt>
      <trkpt lat="42.81662" lon="-0.21062">
        <ele>2157.3359375</ele>
        <time>2015-09-08T12:20:40Z</time>
      </trkpt>
      <trkpt lat="42.81666" lon="-0.21052">
        <ele>2155.8935546875</ele>
        <time>2015-09-08T12:20:55Z</time>
      </trkpt>
      <trkpt lat="42.81666" lon="-0.2105">
        <ele>2156.3745117188</ele>
        <time>2015-09-08T12:20:56Z</time>
      </trkpt>
      <trkpt lat="42.81672" lon="-0.21033">
        <ele>2153.4904785156</ele>
        <time>2015-09-08T12:21:14Z</time>
      </trkpt>
      <trkpt lat="42.81675" lon="-0.2102">
        <ele>2151.5678710938</ele>
        <time>2015-09-08T12:21:29Z</time>
      </trkpt>
      <trkpt lat="42.81675" lon="-0.21017">
        <ele>2149.6452636719</ele>
        <time>2015-09-08T12:21:34Z</time>
      </trkpt>
      <trkpt lat="42.81677" lon="-0.21004">
        <ele>2147.72265625</ele>
        <time>2015-09-08T12:21:48Z</time>
      </trkpt>
      <trkpt lat="42.81679" lon="-0.20994">
        <ele>2144.8386230469</ele>
        <time>2015-09-08T12:22:02Z</time>
      </trkpt>
      <trkpt lat="42.81679" lon="-0.20993">
        <ele>2144.3579101562</ele>
        <time>2015-09-08T12:22:03Z</time>
      </trkpt>
      <trkpt lat="42.81683" lon="-0.20982">
        <ele>2140.9934082031</ele>
        <time>2015-09-08T12:22:14Z</time>
      </trkpt>
      <trkpt lat="42.81689" lon="-0.20966">
        <ele>2138.109375</ele>
        <time>2015-09-08T12:22:29Z</time>
      </trkpt>
      <trkpt lat="42.81688" lon="-0.20959">
        <ele>2136.6672363281</ele>
        <time>2015-09-08T12:22:43Z</time>
      </trkpt>
      <trkpt lat="42.81694" lon="-0.20947">
        <ele>2134.7448730469</ele>
        <time>2015-09-08T12:23:00Z</time>
      </trkpt>
      <trkpt lat="42.81692" lon="-0.20945">
        <ele>2133.302734375</ele>
        <time>2015-09-08T12:23:20Z</time>
      </trkpt>
      <trkpt lat="42.8169" lon="-0.20946">
        <ele>2133.302734375</ele>
        <time>2015-09-08T12:23:28Z</time>
      </trkpt>
      <trkpt lat="42.81678" lon="-0.20955">
        <ele>2130.4189453125</ele>
        <time>2015-09-08T12:23:42Z</time>
      </trkpt>
      <trkpt lat="42.81676" lon="-0.20956">
        <ele>2130.8996582031</ele>
        <time>2015-09-08T12:23:44Z</time>
      </trkpt>
      <trkpt lat="42.81661" lon="-0.20971">
        <ele>2128.015625</ele>
        <time>2015-09-08T12:24:01Z</time>
      </trkpt>
      <trkpt lat="42.81655" lon="-0.20975">
        <ele>2124.6511230469</ele>
        <time>2015-09-08T12:24:11Z</time>
      </trkpt>
      <trkpt lat="42.8166" lon="-0.2096">
        <ele>2121.7668457031</ele>
        <time>2015-09-08T12:24:25Z</time>
      </trkpt>
      <trkpt lat="42.81665" lon="-0.20948">
        <ele>2119.3637695312</ele>
        <time>2015-09-08T12:24:37Z</time>
      </trkpt>
      <trkpt lat="42.81668" lon="-0.20939">
        <ele>2117.4409179688</ele>
        <time>2015-09-08T12:24:51Z</time>
      </trkpt>
      <trkpt lat="42.81671" lon="-0.20929">
        <ele>2115.5185546875</ele>
        <time>2015-09-08T12:25:06Z</time>
      </trkpt>
      <trkpt lat="42.81672" lon="-0.20922">
        <ele>2113.595703125</ele>
        <time>2015-09-08T12:25:12Z</time>
      </trkpt>
      <trkpt lat="42.81678" lon="-0.209">
        <ele>2110.2312011719</ele>
        <time>2015-09-08T12:25:28Z</time>
      </trkpt>
      <trkpt lat="42.81681" lon="-0.20889">
        <ele>2107.3471679688</ele>
        <time>2015-09-08T12:25:37Z</time>
      </trkpt>
      <trkpt lat="42.81686" lon="-0.20867">
        <ele>2103.9826660156</ele>
        <time>2015-09-08T12:25:54Z</time>
      </trkpt>
      <trkpt lat="42.81688" lon="-0.20852">
        <ele>2102.0598144531</ele>
        <time>2015-09-08T12:26:09Z</time>
      </trkpt>
      <trkpt lat="42.81691" lon="-0.20842">
        <ele>2099.1760253906</ele>
        <time>2015-09-08T12:26:20Z</time>
      </trkpt>
      <trkpt lat="42.81698" lon="-0.20824">
        <ele>2097.2534179688</ele>
        <time>2015-09-08T12:26:38Z</time>
      </trkpt>
      <trkpt lat="42.817" lon="-0.20822">
        <ele>2095.8115234375</ele>
        <time>2015-09-08T12:26:40Z</time>
      </trkpt>
      <trkpt lat="42.81705" lon="-0.20805">
        <ele>2093.408203125</ele>
        <time>2015-09-08T12:26:56Z</time>
      </trkpt>
      <trkpt lat="42.81706" lon="-0.20798">
        <ele>2091.9660644531</ele>
        <time>2015-09-08T12:27:12Z</time>
      </trkpt>
      <trkpt lat="42.81704" lon="-0.20799">
        <ele>2090.5239257812</ele>
        <time>2015-09-08T12:27:14Z</time>
      </trkpt>
      <trkpt lat="42.81698" lon="-0.20804">
        <ele>2089.5627441406</ele>
        <time>2015-09-08T12:27:21Z</time>
      </trkpt>
      <trkpt lat="42.81695" lon="-0.20806">
        <ele>2089.5627441406</ele>
        <time>2015-09-08T12:27:24Z</time>
      </trkpt>
      <trkpt lat="42.81686" lon="-0.2081">
        <ele>2088.1208496094</ele>
        <time>2015-09-08T12:27:36Z</time>
      </trkpt>
      <trkpt lat="42.81675" lon="-0.20817">
        <ele>2084.7563476562</ele>
        <time>2015-09-08T12:27:48Z</time>
      </trkpt>
      <trkpt lat="42.81664" lon="-0.20823">
        <ele>2081.3916015625</ele>
        <time>2015-09-08T12:28:01Z</time>
      </trkpt>
      <trkpt lat="42.81656" lon="-0.20828">
        <ele>2079.4689941406</ele>
        <time>2015-09-08T12:28:10Z</time>
      </trkpt>
      <trkpt lat="42.81638" lon="-0.20836">
        <ele>2077.5463867188</ele>
        <time>2015-09-08T12:28:29Z</time>
      </trkpt>
      <trkpt lat="42.81626" lon="-0.20842">
        <ele>2073.7009277344</ele>
        <time>2015-09-08T12:28:42Z</time>
      </trkpt>
      <trkpt lat="42.81619" lon="-0.20846">
        <ele>2071.2976074219</ele>
        <time>2015-09-08T12:28:50Z</time>
      </trkpt>
      <trkpt lat="42.81618" lon="-0.20845">
        <ele>2070.3364257812</ele>
        <time>2015-09-08T12:28:53Z</time>
      </trkpt>
      <trkpt lat="42.81621" lon="-0.20826">
        <ele>2068.4138183594</ele>
        <time>2015-09-08T12:29:06Z</time>
      </trkpt>
      <trkpt lat="42.81626" lon="-0.20813">
        <ele>2065.0493164062</ele>
        <time>2015-09-08T12:29:16Z</time>
      </trkpt>
      <trkpt lat="42.81632" lon="-0.20794">
        <ele>2061.2041015625</ele>
        <time>2015-09-08T12:29:32Z</time>
      </trkpt>
      <trkpt lat="42.81632" lon="-0.20792">
        <ele>2061.2041015625</ele>
        <time>2015-09-08T12:29:33Z</time>
      </trkpt>
      <trkpt lat="42.81632" lon="-0.2078">
        <ele>2060.7233886719</ele>
        <time>2015-09-08T12:29:48Z</time>
      </trkpt>
      <trkpt lat="42.81635" lon="-0.2077">
        <ele>2058.3198242188</ele>
        <time>2015-09-08T12:29:58Z</time>
      </trkpt>
      <trkpt lat="42.8164" lon="-0.20752">
        <ele>2054.9553222656</ele>
        <time>2015-09-08T12:30:13Z</time>
      </trkpt>
      <trkpt lat="42.81655" lon="-0.20739">
        <ele>2053.0327148438</ele>
        <time>2015-09-08T12:30:31Z</time>
      </trkpt>
      <trkpt lat="42.8166" lon="-0.20738">
        <ele>2052.5520019531</ele>
        <time>2015-09-08T12:30:36Z</time>
      </trkpt>
      <trkpt lat="42.81676" lon="-0.20726">
        <ele>2050.1489257812</ele>
        <time>2015-09-08T12:30:54Z</time>
      </trkpt>
      <trkpt lat="42.81687" lon="-0.20716">
        <ele>2048.2260742188</ele>
        <time>2015-09-08T12:31:09Z</time>
      </trkpt>
      <trkpt lat="42.81699" lon="-0.20704">
        <ele>2046.3037109375</ele>
        <time>2015-09-08T12:31:27Z</time>
      </trkpt>
      <trkpt lat="42.81709" lon="-0.20688">
        <ele>2043.9001464844</ele>
        <time>2015-09-08T12:31:46Z</time>
      </trkpt>
      <trkpt lat="42.81712" lon="-0.20682">
        <ele>2042.4582519531</ele>
        <time>2015-09-08T12:32:01Z</time>
      </trkpt>
      <trkpt lat="42.81714" lon="-0.20677">
        <ele>2041.4968261719</ele>
        <time>2015-09-08T12:32:06Z</time>
      </trkpt>
      <trkpt lat="42.81725" lon="-0.20659">
        <ele>2038.6130371094</ele>
        <time>2015-09-08T12:32:25Z</time>
      </trkpt>
      <trkpt lat="42.81732" lon="-0.20649">
        <ele>2035.2482910156</ele>
        <time>2015-09-08T12:32:38Z</time>
      </trkpt>
      <trkpt lat="42.81741" lon="-0.20637">
        <ele>2033.8063964844</ele>
        <time>2015-09-08T12:32:55Z</time>
      </trkpt>
      <trkpt lat="42.81743" lon="-0.20633">
        <ele>2030.9226074219</ele>
        <time>2015-09-08T12:33:01Z</time>
      </trkpt>
      <trkpt lat="42.81751" lon="-0.20621">
        <ele>2027.5576171875</ele>
        <time>2015-09-08T12:33:16Z</time>
      </trkpt>
      <trkpt lat="42.81753" lon="-0.20615">
        <ele>2027.5576171875</ele>
        <time>2015-09-08T12:33:32Z</time>
      </trkpt>
      <trkpt lat="42.81761" lon="-0.20604">
        <ele>2025.154296875</ele>
        <time>2015-09-08T12:33:51Z</time>
      </trkpt>
      <trkpt lat="42.81767" lon="-0.20597">
        <ele>2021.7897949219</ele>
        <time>2015-09-08T12:34:07Z</time>
      </trkpt>
      <trkpt lat="42.81773" lon="-0.20588">
        <ele>2019.8671875</ele>
        <time>2015-09-08T12:34:23Z</time>
      </trkpt>
      <trkpt lat="42.81776" lon="-0.20579">
        <ele>2018.4252929688</ele>
        <time>2015-09-08T12:34:37Z</time>
      </trkpt>
      <trkpt lat="42.81783" lon="-0.20569">
        <ele>2016.9833984375</ele>
        <time>2015-09-08T12:34:51Z</time>
      </trkpt>
      <trkpt lat="42.81787" lon="-0.20556">
        <ele>2015.5415039062</ele>
        <time>2015-09-08T12:35:04Z</time>
      </trkpt>
      <trkpt lat="42.81791" lon="-0.20544">
        <ele>2013.6186523438</ele>
        <time>2015-09-08T12:35:22Z</time>
      </trkpt>
      <trkpt lat="42.81797" lon="-0.20535">
        <ele>2014.0993652344</ele>
        <time>2015-09-08T12:35:35Z</time>
      </trkpt>
      <trkpt lat="42.81803" lon="-0.20525">
        <ele>2011.2153320312</ele>
        <time>2015-09-08T12:35:50Z</time>
      </trkpt>
      <trkpt lat="42.81797" lon="-0.20523">
        <ele>2009.7731933594</ele>
        <time>2015-09-08T12:36:04Z</time>
      </trkpt>
      <trkpt lat="42.81788" lon="-0.20529">
        <ele>2007.3701171875</ele>
        <time>2015-09-08T12:36:17Z</time>
      </trkpt>
      <trkpt lat="42.8178" lon="-0.20535">
        <ele>2004.966796875</ele>
        <time>2015-09-08T12:36:29Z</time>
      </trkpt>
      <trkpt lat="42.81773" lon="-0.20543">
        <ele>2002.5634765625</ele>
        <time>2015-09-08T12:36:41Z</time>
      </trkpt>
      <trkpt lat="42.81769" lon="-0.20547">
        <ele>2001.6022949219</ele>
        <time>2015-09-08T12:36:46Z</time>
      </trkpt>
      <trkpt lat="42.81754" lon="-0.20558">
        <ele>2000.1604003906</ele>
        <time>2015-09-08T12:37:04Z</time>
      </trkpt>
      <trkpt lat="42.8176" lon="-0.20547">
        <ele>1997.2763671875</ele>
        <time>2015-09-08T12:37:20Z</time>
      </trkpt>
      <trkpt lat="42.81766" lon="-0.20533">
        <ele>1993.4309082031</ele>
        <time>2015-09-08T12:37:37Z</time>
      </trkpt>
      <trkpt lat="42.81765" lon="-0.20526">
        <ele>1991.9890136719</ele>
        <time>2015-09-08T12:37:53Z</time>
      </trkpt>
      <trkpt lat="42.81764" lon="-0.20517">
        <ele>1989.1049804688</ele>
        <time>2015-09-08T12:38:12Z</time>
      </trkpt>
      <trkpt lat="42.8176" lon="-0.20515">
        <ele>1986.2211914062</ele>
        <time>2015-09-08T12:38:23Z</time>
      </trkpt>
      <trkpt lat="42.81757" lon="-0.20509">
        <ele>1983.8178710938</ele>
        <time>2015-09-08T12:38:39Z</time>
      </trkpt>
      <trkpt lat="42.81752" lon="-0.2051">
        <ele>1981.4145507812</ele>
        <time>2015-09-08T12:38:53Z</time>
      </trkpt>
      <trkpt lat="42.81737" lon="-0.20509">
        <ele>1978.0498046875</ele>
        <time>2015-09-08T12:39:12Z</time>
      </trkpt>
      <trkpt lat="42.81727" lon="-0.20509">
        <ele>1974.6853027344</ele>
        <time>2015-09-08T12:39:26Z</time>
      </trkpt>
      <trkpt lat="42.81719" lon="-0.20509">
        <ele>1973.2434082031</ele>
        <time>2015-09-08T12:39:39Z</time>
      </trkpt>
      <trkpt lat="42.81706" lon="-0.20507">
        <ele>1970.8400878906</ele>
        <time>2015-09-08T12:39:57Z</time>
      </trkpt>
      <trkpt lat="42.81698" lon="-0.20505">
        <ele>1968.9174804688</ele>
        <time>2015-09-08T12:40:05Z</time>
      </trkpt>
      <trkpt lat="42.8169" lon="-0.20505">
        <ele>1967.4753417969</ele>
        <time>2015-09-08T12:40:15Z</time>
      </trkpt>
      <trkpt lat="42.81688" lon="-0.20506">
        <ele>1967.4753417969</ele>
        <time>2015-09-08T12:40:17Z</time>
      </trkpt>
      <trkpt lat="42.81678" lon="-0.20503">
        <ele>1967.4753417969</ele>
        <time>2015-09-08T12:40:26Z</time>
      </trkpt>
      <trkpt lat="42.81676" lon="-0.20495">
        <ele>1966.9948730469</ele>
        <time>2015-09-08T12:40:33Z</time>
      </trkpt>
      <trkpt lat="42.81682" lon="-0.20471">
        <ele>1964.1108398438</ele>
        <time>2015-09-08T12:40:51Z</time>
      </trkpt>
      <trkpt lat="42.81686" lon="-0.20455">
        <ele>1961.7075195312</ele>
        <time>2015-09-08T12:41:03Z</time>
      </trkpt>
      <trkpt lat="42.81676" lon="-0.20439">
        <ele>1958.8234863281</ele>
        <time>2015-09-08T12:41:17Z</time>
      </trkpt>
      <trkpt lat="42.81666" lon="-0.20433">
        <ele>1956.4201660156</ele>
        <time>2015-09-08T12:41:30Z</time>
      </trkpt>
      <trkpt lat="42.8166" lon="-0.2042">
        <ele>1953.5363769531</ele>
        <time>2015-09-08T12:41:45Z</time>
      </trkpt>
      <trkpt lat="42.81644" lon="-0.20416">
        <ele>1950.171875</ele>
        <time>2015-09-08T12:42:01Z</time>
      </trkpt>
      <trkpt lat="42.81629" lon="-0.20421">
        <ele>1947.2875976562</ele>
        <time>2015-09-08T12:42:19Z</time>
      </trkpt>
      <trkpt lat="42.81628" lon="-0.20422">
        <ele>1940.5583496094</ele>
        <time>2015-09-08T12:42:35Z</time>
      </trkpt>
      <trkpt lat="42.81628" lon="-0.20422">
        <ele>1943.4423828125</ele>
        <time>2015-09-08T12:42:36Z</time>
      </trkpt>
      <trkpt lat="42.81628" lon="-0.20422">
        <ele>1952.5749511719</ele>
        <time>2015-09-08T12:42:37Z</time>
      </trkpt>
      <trkpt lat="42.81628" lon="-0.20422">
        <ele>1948.7297363281</ele>
        <time>2015-09-08T12:42:38Z</time>
      </trkpt>
      <trkpt lat="42.81629" lon="-0.20421">
        <ele>1947.2875976562</ele>
        <time>2015-09-08T12:43:51Z</time>
      </trkpt>
      <trkpt lat="42.8163" lon="-0.20421">
        <ele>1947.2875976562</ele>
        <time>2015-09-08T12:44:12Z</time>
      </trkpt>
      <trkpt lat="42.81623" lon="-0.20426">
        <ele>1946.8068847656</ele>
        <time>2015-09-08T12:44:27Z</time>
      </trkpt>
      <trkpt lat="42.81621" lon="-0.20429">
        <ele>1945.845703125</ele>
        <time>2015-09-08T12:44:41Z</time>
      </trkpt>
      <trkpt lat="42.81618" lon="-0.20425">
        <ele>1945.845703125</ele>
        <time>2015-09-08T12:44:52Z</time>
      </trkpt>
      <trkpt lat="42.81619" lon="-0.2041">
        <ele>1946.8068847656</ele>
        <time>2015-09-08T12:45:05Z</time>
      </trkpt>
      <trkpt lat="42.81623" lon="-0.2038">
        <ele>1946.3264160156</ele>
        <time>2015-09-08T12:45:24Z</time>
      </trkpt>
      <trkpt lat="42.81624" lon="-0.20355">
        <ele>1944.4035644531</ele>
        <time>2015-09-08T12:45:40Z</time>
      </trkpt>
      <trkpt lat="42.81627" lon="-0.20326">
        <ele>1944.8842773438</ele>
        <time>2015-09-08T12:45:59Z</time>
      </trkpt>
      <trkpt lat="42.81628" lon="-0.20316">
        <ele>1943.4423828125</ele>
        <time>2015-09-08T12:46:14Z</time>
      </trkpt>
      <trkpt lat="42.81631" lon="-0.20301">
        <ele>1942.0004882812</ele>
        <time>2015-09-08T12:46:27Z</time>
      </trkpt>
      <trkpt lat="42.8163" lon="-0.20281">
        <ele>1941.5197753906</ele>
        <time>2015-09-08T12:46:41Z</time>
      </trkpt>
      <trkpt lat="42.81631" lon="-0.20276">
        <ele>1941.0390625</ele>
        <time>2015-09-08T12:46:44Z</time>
      </trkpt>
      <trkpt lat="42.81633" lon="-0.20271">
        <ele>1941.5197753906</ele>
        <time>2015-09-08T12:46:48Z</time>
      </trkpt>
      <trkpt lat="42.81649" lon="-0.2026">
        <ele>1940.0778808594</ele>
        <time>2015-09-08T12:47:04Z</time>
      </trkpt>
      <trkpt lat="42.81662" lon="-0.20255">
        <ele>1937.6745605469</ele>
        <time>2015-09-08T12:47:16Z</time>
      </trkpt>
      <trkpt lat="42.81681" lon="-0.20239">
        <ele>1936.2326660156</ele>
        <time>2015-09-08T12:47:35Z</time>
      </trkpt>
      <trkpt lat="42.81698" lon="-0.20225">
        <ele>1934.7907714844</ele>
        <time>2015-09-08T12:47:53Z</time>
      </trkpt>
      <trkpt lat="42.81703" lon="-0.20222">
        <ele>1934.3100585938</ele>
        <time>2015-09-08T12:47:59Z</time>
      </trkpt>
      <trkpt lat="42.81711" lon="-0.20215">
        <ele>1932.8679199219</ele>
        <time>2015-09-08T12:48:07Z</time>
      </trkpt>
      <trkpt lat="42.81725" lon="-0.202">
        <ele>1929.9838867188</ele>
        <time>2015-09-08T12:48:25Z</time>
      </trkpt>
      <trkpt lat="42.8173" lon="-0.20192">
        <ele>1928.5419921875</ele>
        <time>2015-09-08T12:48:33Z</time>
      </trkpt>
      <trkpt lat="42.81734" lon="-0.20187">
        <ele>1929.0224609375</ele>
        <time>2015-09-08T12:48:38Z</time>
      </trkpt>
      <trkpt lat="42.81737" lon="-0.20187">
        <ele>1928.0612792969</ele>
        <time>2015-09-08T12:48:41Z</time>
      </trkpt>
      <trkpt lat="42.81754" lon="-0.20161">
        <ele>1926.138671875</ele>
        <time>2015-09-08T12:49:03Z</time>
      </trkpt>
      <trkpt lat="42.81763" lon="-0.20147">
        <ele>1922.7741699219</ele>
        <time>2015-09-08T12:49:19Z</time>
      </trkpt>
      <trkpt lat="42.81766" lon="-0.20139">
        <ele>1921.33203125</ele>
        <time>2015-09-08T12:49:33Z</time>
      </trkpt>
      <trkpt lat="42.81774" lon="-0.20112">
        <ele>1919.4096679688</ele>
        <time>2015-09-08T12:49:52Z</time>
      </trkpt>
      <trkpt lat="42.81776" lon="-0.20099">
        <ele>1917.4868164062</ele>
        <time>2015-09-08T12:50:04Z</time>
      </trkpt>
      <trkpt lat="42.81782" lon="-0.20097">
        <ele>1917.0063476562</ele>
        <time>2015-09-08T12:50:11Z</time>
      </trkpt>
      <trkpt lat="42.81786" lon="-0.20098">
        <ele>1916.5256347656</ele>
        <time>2015-09-08T12:50:16Z</time>
      </trkpt>
      <trkpt lat="42.81793" lon="-0.20096">
        <ele>1912.6801757812</ele>
        <time>2015-09-08T12:50:24Z</time>
      </trkpt>
      <trkpt lat="42.81798" lon="-0.20085">
        <ele>1909.3156738281</ele>
        <time>2015-09-08T12:50:40Z</time>
      </trkpt>
      <trkpt lat="42.81798" lon="-0.20084">
        <ele>1909.7961425781</ele>
        <time>2015-09-08T12:50:41Z</time>
      </trkpt>
      <trkpt lat="42.818" lon="-0.20065">
        <ele>1906.9123535156</ele>
        <time>2015-09-08T12:50:53Z</time>
      </trkpt>
      <trkpt lat="42.81797" lon="-0.20048">
        <ele>1907.3930664062</ele>
        <time>2015-09-08T12:51:07Z</time>
      </trkpt>
      <trkpt lat="42.81795" lon="-0.20038">
        <ele>1905.9509277344</ele>
        <time>2015-09-08T12:51:19Z</time>
      </trkpt>
      <trkpt lat="42.81795" lon="-0.2003">
        <ele>1903.5478515625</ele>
        <time>2015-09-08T12:51:26Z</time>
      </trkpt>
      <trkpt lat="42.81795" lon="-0.20023">
        <ele>1901.6252441406</ele>
        <time>2015-09-08T12:51:32Z</time>
      </trkpt>
      <trkpt lat="42.81793" lon="-0.2001">
        <ele>1901.14453125</ele>
        <time>2015-09-08T12:51:40Z</time>
      </trkpt>
      <trkpt lat="42.81798" lon="-0.19997">
        <ele>1899.2216796875</ele>
        <time>2015-09-08T12:51:56Z</time>
      </trkpt>
      <trkpt lat="42.81801" lon="-0.19978">
        <ele>1896.818359375</ele>
        <time>2015-09-08T12:52:10Z</time>
      </trkpt>
      <trkpt lat="42.8181" lon="-0.19966">
        <ele>1896.337890625</ele>
        <time>2015-09-08T12:52:22Z</time>
      </trkpt>
      <trkpt lat="42.81813" lon="-0.19957">
        <ele>1895.8571777344</ele>
        <time>2015-09-08T12:52:38Z</time>
      </trkpt>
      <trkpt lat="42.81812" lon="-0.19952">
        <ele>1895.8571777344</ele>
        <time>2015-09-08T12:53:08Z</time>
      </trkpt>
      <trkpt lat="42.81812" lon="-0.19952">
        <ele>1896.337890625</ele>
        <time>2015-09-08T12:53:09Z</time>
      </trkpt>
      <trkpt lat="42.81816" lon="-0.19946">
        <ele>1894.4150390625</ele>
        <time>2015-09-08T12:53:15Z</time>
      </trkpt>
      <trkpt lat="42.81817" lon="-0.19942">
        <ele>1893.9345703125</ele>
        <time>2015-09-08T12:53:18Z</time>
      </trkpt>
      <trkpt lat="42.8182" lon="-0.19925">
        <ele>1891.0505371094</ele>
        <time>2015-09-08T12:53:35Z</time>
      </trkpt>
      <trkpt lat="42.81823" lon="-0.19906">
        <ele>1889.1279296875</ele>
        <time>2015-09-08T12:53:50Z</time>
      </trkpt>
      <trkpt lat="42.81828" lon="-0.19888">
        <ele>1887.2053222656</ele>
        <time>2015-09-08T12:54:05Z</time>
      </trkpt>
      <trkpt lat="42.81829" lon="-0.19885">
        <ele>1886.244140625</ele>
        <time>2015-09-08T12:54:07Z</time>
      </trkpt>
      <trkpt lat="42.81835" lon="-0.19862">
        <ele>1882.8791503906</ele>
        <time>2015-09-08T12:54:23Z</time>
      </trkpt>
      <trkpt lat="42.8184" lon="-0.19841">
        <ele>1881.4372558594</ele>
        <time>2015-09-08T12:54:39Z</time>
      </trkpt>
      <trkpt lat="42.81843" lon="-0.19816">
        <ele>1880.4760742188</ele>
        <time>2015-09-08T12:54:56Z</time>
      </trkpt>
      <trkpt lat="42.81846" lon="-0.19798">
        <ele>1879.0339355469</ele>
        <time>2015-09-08T12:55:11Z</time>
      </trkpt>
      <trkpt lat="42.81849" lon="-0.19781">
        <ele>1878.0727539062</ele>
        <time>2015-09-08T12:55:23Z</time>
      </trkpt>
      <trkpt lat="42.81855" lon="-0.19757">
        <ele>1878.5534667969</ele>
        <time>2015-09-08T12:55:39Z</time>
      </trkpt>
      <trkpt lat="42.81859" lon="-0.1974">
        <ele>1876.1501464844</ele>
        <time>2015-09-08T12:55:51Z</time>
      </trkpt>
      <trkpt lat="42.81861" lon="-0.19711">
        <ele>1875.1887207031</ele>
        <time>2015-09-08T12:56:12Z</time>
      </trkpt>
      <trkpt lat="42.8186" lon="-0.1971">
        <ele>1875.1887207031</ele>
        <time>2015-09-08T12:56:13Z</time>
      </trkpt>
      <trkpt lat="42.8186" lon="-0.19706">
        <ele>1875.1887207031</ele>
        <time>2015-09-08T12:56:16Z</time>
      </trkpt>
      <trkpt lat="42.81857" lon="-0.19682">
        <ele>1873.2663574219</ele>
        <time>2015-09-08T12:56:34Z</time>
      </trkpt>
      <trkpt lat="42.81862" lon="-0.19655">
        <ele>1873.2663574219</ele>
        <time>2015-09-08T12:56:50Z</time>
      </trkpt>
      <trkpt lat="42.81875" lon="-0.19631">
        <ele>1871.82421875</ele>
        <time>2015-09-08T12:57:08Z</time>
      </trkpt>
      <trkpt lat="42.81884" lon="-0.19611">
        <ele>1870.8630371094</ele>
        <time>2015-09-08T12:57:23Z</time>
      </trkpt>
      <trkpt lat="42.81887" lon="-0.19612">
        <ele>1871.82421875</ele>
        <time>2015-09-08T12:57:25Z</time>
      </trkpt>
      <trkpt lat="42.81896" lon="-0.19621">
        <ele>1872.3049316406</ele>
        <time>2015-09-08T12:57:36Z</time>
      </trkpt>
      <trkpt lat="42.819" lon="-0.19621">
        <ele>1872.7856445312</ele>
        <time>2015-09-08T12:57:40Z</time>
      </trkpt>
      <trkpt lat="42.81913" lon="-0.19602">
        <ele>1872.3049316406</ele>
        <time>2015-09-08T12:57:58Z</time>
      </trkpt>
      <trkpt lat="42.81919" lon="-0.1959">
        <ele>1872.7856445312</ele>
        <time>2015-09-08T12:58:07Z</time>
      </trkpt>
      <trkpt lat="42.81927" lon="-0.19579">
        <ele>1870.8630371094</ele>
        <time>2015-09-08T12:58:18Z</time>
      </trkpt>
      <trkpt lat="42.81946" lon="-0.19556">
        <ele>1869.4211425781</ele>
        <time>2015-09-08T12:58:39Z</time>
      </trkpt>
      <trkpt lat="42.81952" lon="-0.19555">
        <ele>1869.4211425781</ele>
        <time>2015-09-08T12:58:44Z</time>
      </trkpt>
      <trkpt lat="42.81955" lon="-0.19552">
        <ele>1869.4211425781</ele>
        <time>2015-09-08T12:58:48Z</time>
      </trkpt>
      <trkpt lat="42.8196" lon="-0.19548">
        <ele>1868.9404296875</ele>
        <time>2015-09-08T12:58:53Z</time>
      </trkpt>
      <trkpt lat="42.81966" lon="-0.19542">
        <ele>1869.4211425781</ele>
        <time>2015-09-08T12:59:01Z</time>
      </trkpt>
      <trkpt lat="42.8197" lon="-0.19539">
        <ele>1870.3823242188</ele>
        <time>2015-09-08T12:59:05Z</time>
      </trkpt>
      <trkpt lat="42.81977" lon="-0.19535">
        <ele>1870.8630371094</ele>
        <time>2015-09-08T12:59:12Z</time>
      </trkpt>
      <trkpt lat="42.81982" lon="-0.19529">
        <ele>1872.3049316406</ele>
        <time>2015-09-08T12:59:19Z</time>
      </trkpt>
      <trkpt lat="42.81985" lon="-0.19527">
        <ele>1873.2663574219</ele>
        <time>2015-09-08T12:59:23Z</time>
      </trkpt>
      <trkpt lat="42.81987" lon="-0.19518">
        <ele>1874.2275390625</ele>
        <time>2015-09-08T12:59:29Z</time>
      </trkpt>
      <trkpt lat="42.81992" lon="-0.19509">
        <ele>1875.1887207031</ele>
        <time>2015-09-08T12:59:37Z</time>
      </trkpt>
      <trkpt lat="42.81994" lon="-0.19494">
        <ele>1876.1501464844</ele>
        <time>2015-09-08T12:59:54Z</time>
      </trkpt>
      <trkpt lat="42.82001" lon="-0.19486">
        <ele>1877.5920410156</ele>
        <time>2015-09-08T13:00:14Z</time>
      </trkpt>
      <trkpt lat="42.82001" lon="-0.19481">
        <ele>1877.5920410156</ele>
        <time>2015-09-08T13:00:29Z</time>
      </trkpt>
      <trkpt lat="42.82002" lon="-0.19479">
        <ele>1876.1501464844</ele>
        <time>2015-09-08T13:01:01Z</time>
      </trkpt>
      <trkpt lat="42.82001" lon="-0.1948">
        <ele>1875.6694335938</ele>
        <time>2015-09-08T13:01:52Z</time>
      </trkpt>
      <trkpt lat="42.82001" lon="-0.19481">
        <ele>1875.6694335938</ele>
        <time>2015-09-08T13:03:16Z</time>
      </trkpt>
      <trkpt lat="42.82" lon="-0.19484">
        <ele>1877.1115722656</ele>
        <time>2015-09-08T13:08:49Z</time>
      </trkpt>
      <trkpt lat="42.82001" lon="-0.1948">
        <ele>1879.0339355469</ele>
        <time>2015-09-08T13:11:31Z</time>
      </trkpt>
      <trkpt lat="42.82001" lon="-0.1948">
        <ele>1879.0339355469</ele>
        <time>2015-09-08T13:11:55Z</time>
      </trkpt>
      <trkpt lat="42.82" lon="-0.19482">
        <ele>1879.0339355469</ele>
        <time>2015-09-08T13:12:17Z</time>
      </trkpt>
      <trkpt lat="42.81993" lon="-0.19478">
        <ele>1876.630859375</ele>
        <time>2015-09-08T13:12:33Z</time>
      </trkpt>
      <trkpt lat="42.81987" lon="-0.1947">
        <ele>1873.2663574219</ele>
        <time>2015-09-08T13:12:45Z</time>
      </trkpt>
      <trkpt lat="42.81986" lon="-0.19467">
        <ele>1872.7856445312</ele>
        <time>2015-09-08T13:12:48Z</time>
      </trkpt>
      <trkpt lat="42.81982" lon="-0.19454">
        <ele>1870.3823242188</ele>
        <time>2015-09-08T13:12:59Z</time>
      </trkpt>
      <trkpt lat="42.81972" lon="-0.19443">
        <ele>1868.9404296875</ele>
        <time>2015-09-08T13:13:12Z</time>
      </trkpt>
      <trkpt lat="42.81963" lon="-0.19429">
        <ele>1867.498046875</ele>
        <time>2015-09-08T13:13:27Z</time>
      </trkpt>
      <trkpt lat="42.8196" lon="-0.19419">
        <ele>1865.5756835938</ele>
        <time>2015-09-08T13:13:36Z</time>
      </trkpt>
      <trkpt lat="42.81956" lon="-0.19404">
        <ele>1865.0949707031</ele>
        <time>2015-09-08T13:13:49Z</time>
      </trkpt>
      <trkpt lat="42.8196" lon="-0.19383">
        <ele>1863.6528320312</ele>
        <time>2015-09-08T13:14:05Z</time>
      </trkpt>
      <trkpt lat="42.81953" lon="-0.19372">
        <ele>1863.1723632812</ele>
        <time>2015-09-08T13:14:16Z</time>
      </trkpt>
      <trkpt lat="42.81954" lon="-0.19369">
        <ele>1863.1723632812</ele>
        <time>2015-09-08T13:14:18Z</time>
      </trkpt>
      <trkpt lat="42.81951" lon="-0.19355">
        <ele>1863.1723632812</ele>
        <time>2015-09-08T13:14:29Z</time>
      </trkpt>
      <trkpt lat="42.81941" lon="-0.19352">
        <ele>1863.6528320312</ele>
        <time>2015-09-08T13:14:44Z</time>
      </trkpt>
      <trkpt lat="42.81936" lon="-0.19355">
        <ele>1864.1335449219</ele>
        <time>2015-09-08T13:14:50Z</time>
      </trkpt>
      <trkpt lat="42.81933" lon="-0.19357">
        <ele>1863.6528320312</ele>
        <time>2015-09-08T13:14:54Z</time>
      </trkpt>
      <trkpt lat="42.81931" lon="-0.19352">
        <ele>1863.6528320312</ele>
        <time>2015-09-08T13:14:59Z</time>
      </trkpt>
      <trkpt lat="42.81934" lon="-0.19336">
        <ele>1862.2109375</ele>
        <time>2015-09-08T13:15:16Z</time>
      </trkpt>
      <trkpt lat="42.81934" lon="-0.19334">
        <ele>1862.6916503906</ele>
        <time>2015-09-08T13:15:18Z</time>
      </trkpt>
      <trkpt lat="42.81932" lon="-0.19327">
        <ele>1861.2497558594</ele>
        <time>2015-09-08T13:15:24Z</time>
      </trkpt>
      <trkpt lat="42.81927" lon="-0.19325">
        <ele>1860.7690429688</ele>
        <time>2015-09-08T13:15:29Z</time>
      </trkpt>
      <trkpt lat="42.81921" lon="-0.19326">
        <ele>1859.8076171875</ele>
        <time>2015-09-08T13:15:37Z</time>
      </trkpt>
      <trkpt lat="42.81918" lon="-0.19328">
        <ele>1859.3271484375</ele>
        <time>2015-09-08T13:15:40Z</time>
      </trkpt>
      <trkpt lat="42.81912" lon="-0.19324">
        <ele>1857.8852539062</ele>
        <time>2015-09-08T13:15:46Z</time>
      </trkpt>
      <trkpt lat="42.8191" lon="-0.19322">
        <ele>1858.3657226562</ele>
        <time>2015-09-08T13:15:48Z</time>
      </trkpt>
      <trkpt lat="42.81911" lon="-0.19307">
        <ele>1855.4819335938</ele>
        <time>2015-09-08T13:16:03Z</time>
      </trkpt>
      <trkpt lat="42.81911" lon="-0.193">
        <ele>1854.0400390625</ele>
        <time>2015-09-08T13:16:10Z</time>
      </trkpt>
      <trkpt lat="42.8192" lon="-0.19278">
        <ele>1852.5979003906</ele>
        <time>2015-09-08T13:16:28Z</time>
      </trkpt>
      <trkpt lat="42.81921" lon="-0.19268">
        <ele>1852.1171875</ele>
        <time>2015-09-08T13:16:35Z</time>
      </trkpt>
      <trkpt lat="42.81922" lon="-0.1925">
        <ele>1851.1557617188</ele>
        <time>2015-09-08T13:16:49Z</time>
      </trkpt>
      <trkpt lat="42.81923" lon="-0.19238">
        <ele>1851.1557617188</ele>
        <time>2015-09-08T13:16:56Z</time>
      </trkpt>
      <trkpt lat="42.81923" lon="-0.19219">
        <ele>1850.1945800781</ele>
        <time>2015-09-08T13:17:09Z</time>
      </trkpt>
      <trkpt lat="42.81918" lon="-0.19206">
        <ele>1849.2331542969</ele>
        <time>2015-09-08T13:17:18Z</time>
      </trkpt>
      <trkpt lat="42.81913" lon="-0.19197">
        <ele>1849.2331542969</ele>
        <time>2015-09-08T13:17:25Z</time>
      </trkpt>
      <trkpt lat="42.81909" lon="-0.19183">
        <ele>1848.7524414062</ele>
        <time>2015-09-08T13:17:36Z</time>
      </trkpt>
      <trkpt lat="42.81924" lon="-0.19165">
        <ele>1848.2717285156</ele>
        <time>2015-09-08T13:17:54Z</time>
      </trkpt>
      <trkpt lat="42.81928" lon="-0.1915">
        <ele>1845.3879394531</ele>
        <time>2015-09-08T13:18:08Z</time>
      </trkpt>
      <trkpt lat="42.81931" lon="-0.19137">
        <ele>1842.5041503906</ele>
        <time>2015-09-08T13:18:19Z</time>
      </trkpt>
      <trkpt lat="42.8193" lon="-0.19131">
        <ele>1842.5041503906</ele>
        <time>2015-09-08T13:18:23Z</time>
      </trkpt>
      <trkpt lat="42.81931" lon="-0.19117">
        <ele>1840.1008300781</ele>
        <time>2015-09-08T13:18:32Z</time>
      </trkpt>
      <trkpt lat="42.81935" lon="-0.19105">
        <ele>1839.1394042969</ele>
        <time>2015-09-08T13:18:40Z</time>
      </trkpt>
      <trkpt lat="42.81931" lon="-0.19082">
        <ele>1838.6589355469</ele>
        <time>2015-09-08T13:18:55Z</time>
      </trkpt>
      <trkpt lat="42.81923" lon="-0.19055">
        <ele>1835.7746582031</ele>
        <time>2015-09-08T13:19:13Z</time>
      </trkpt>
      <trkpt lat="42.81919" lon="-0.19044">
        <ele>1834.8134765625</ele>
        <time>2015-09-08T13:19:22Z</time>
      </trkpt>
      <trkpt lat="42.81907" lon="-0.19035">
        <ele>1833.8520507812</ele>
        <time>2015-09-08T13:19:36Z</time>
      </trkpt>
      <trkpt lat="42.819" lon="-0.19033">
        <ele>1834.8134765625</ele>
        <time>2015-09-08T13:19:44Z</time>
      </trkpt>
      <trkpt lat="42.81892" lon="-0.19029">
        <ele>1835.2939453125</ele>
        <time>2015-09-08T13:19:56Z</time>
      </trkpt>
      <trkpt lat="42.81874" lon="-0.19024">
        <ele>1833.3713378906</ele>
        <time>2015-09-08T13:20:13Z</time>
      </trkpt>
      <trkpt lat="42.8186" lon="-0.19005">
        <ele>1832.890625</ele>
        <time>2015-09-08T13:20:31Z</time>
      </trkpt>
      <trkpt lat="42.81848" lon="-0.18994">
        <ele>1832.890625</ele>
        <time>2015-09-08T13:20:45Z</time>
      </trkpt>
      <trkpt lat="42.81838" lon="-0.18969">
        <ele>1833.3713378906</ele>
        <time>2015-09-08T13:21:02Z</time>
      </trkpt>
      <trkpt lat="42.81832" lon="-0.18957">
        <ele>1834.3327636719</ele>
        <time>2015-09-08T13:21:12Z</time>
      </trkpt>
      <trkpt lat="42.81827" lon="-0.18951">
        <ele>1834.8134765625</ele>
        <time>2015-09-08T13:21:18Z</time>
      </trkpt>
      <trkpt lat="42.81817" lon="-0.18932">
        <ele>1836.7360839844</ele>
        <time>2015-09-08T13:21:33Z</time>
      </trkpt>
      <trkpt lat="42.81805" lon="-0.1893">
        <ele>1834.3327636719</ele>
        <time>2015-09-08T13:21:48Z</time>
      </trkpt>
      <trkpt lat="42.81802" lon="-0.1893">
        <ele>1834.3327636719</ele>
        <time>2015-09-08T13:21:51Z</time>
      </trkpt>
      <trkpt lat="42.81793" lon="-0.18927">
        <ele>1831.9294433594</ele>
        <time>2015-09-08T13:22:05Z</time>
      </trkpt>
      <trkpt lat="42.8178" lon="-0.18923">
        <ele>1832.890625</ele>
        <time>2015-09-08T13:22:23Z</time>
      </trkpt>
      <trkpt lat="42.8177" lon="-0.18913">
        <ele>1834.8134765625</ele>
        <time>2015-09-08T13:22:37Z</time>
      </trkpt>
      <trkpt lat="42.81765" lon="-0.18913">
        <ele>1835.7746582031</ele>
        <time>2015-09-08T13:22:42Z</time>
      </trkpt>
      <trkpt lat="42.81756" lon="-0.18916">
        <ele>1837.6975097656</ele>
        <time>2015-09-08T13:22:52Z</time>
      </trkpt>
      <trkpt lat="42.81749" lon="-0.18923">
        <ele>1837.216796875</ele>
        <time>2015-09-08T13:23:01Z</time>
      </trkpt>
      <trkpt lat="42.81735" lon="-0.1894">
        <ele>1839.1394042969</ele>
        <time>2015-09-08T13:23:18Z</time>
      </trkpt>
      <trkpt lat="42.81719" lon="-0.18944">
        <ele>1841.5427246094</ele>
        <time>2015-09-08T13:23:36Z</time>
      </trkpt>
      <trkpt lat="42.81701" lon="-0.1895">
        <ele>1842.9846191406</ele>
        <time>2015-09-08T13:23:57Z</time>
      </trkpt>
      <trkpt lat="42.81687" lon="-0.18955">
        <ele>1842.9846191406</ele>
        <time>2015-09-08T13:24:14Z</time>
      </trkpt>
      <trkpt lat="42.81674" lon="-0.18958">
        <ele>1843.9460449219</ele>
        <time>2015-09-08T13:24:30Z</time>
      </trkpt>
      <trkpt lat="42.81658" lon="-0.18967">
        <ele>1845.3879394531</ele>
        <time>2015-09-08T13:24:47Z</time>
      </trkpt>
      <trkpt lat="42.81644" lon="-0.18977">
        <ele>1847.310546875</ele>
        <time>2015-09-08T13:25:04Z</time>
      </trkpt>
      <trkpt lat="42.81636" lon="-0.18978">
        <ele>1847.310546875</ele>
        <time>2015-09-08T13:25:14Z</time>
      </trkpt>
      <trkpt lat="42.81629" lon="-0.18982">
        <ele>1849.7138671875</ele>
        <time>2015-09-08T13:25:24Z</time>
      </trkpt>
      <trkpt lat="42.81615" lon="-0.18991">
        <ele>1852.1171875</ele>
        <time>2015-09-08T13:25:41Z</time>
      </trkpt>
      <trkpt lat="42.81612" lon="-0.18993">
        <ele>1853.5593261719</ele>
        <time>2015-09-08T13:25:47Z</time>
      </trkpt>
      <trkpt lat="42.81605" lon="-0.18993">
        <ele>1854.5205078125</ele>
        <time>2015-09-08T13:26:04Z</time>
      </trkpt>
      <trkpt lat="42.81606" lon="-0.1899">
        <ele>1855.9624023438</ele>
        <time>2015-09-08T13:26:15Z</time>
      </trkpt>
      <trkpt lat="42.81605" lon="-0.18989">
        <ele>1855.0012207031</ele>
        <time>2015-09-08T13:26:17Z</time>
      </trkpt>
      <trkpt lat="42.81604" lon="-0.18989">
        <ele>1856.923828125</ele>
        <time>2015-09-08T13:26:19Z</time>
      </trkpt>
      <trkpt lat="42.81591" lon="-0.18991">
        <ele>1858.3657226562</ele>
        <time>2015-09-08T13:26:37Z</time>
      </trkpt>
      <trkpt lat="42.81578" lon="-0.18997">
        <ele>1860.2883300781</ele>
        <time>2015-09-08T13:26:55Z</time>
      </trkpt>
      <trkpt lat="42.81567" lon="-0.19001">
        <ele>1862.6916503906</ele>
        <time>2015-09-08T13:27:12Z</time>
      </trkpt>
      <trkpt lat="42.81559" lon="-0.19008">
        <ele>1865.5756835938</ele>
        <time>2015-09-08T13:27:21Z</time>
      </trkpt>
      <trkpt lat="42.81552" lon="-0.19007">
        <ele>1866.0561523438</ele>
        <time>2015-09-08T13:27:35Z</time>
      </trkpt>
      <trkpt lat="42.81543" lon="-0.19">
        <ele>1868.9404296875</ele>
        <time>2015-09-08T13:27:52Z</time>
      </trkpt>
      <trkpt lat="42.81532" lon="-0.18999">
        <ele>1869.9016113281</ele>
        <time>2015-09-08T13:28:09Z</time>
      </trkpt>
      <trkpt lat="42.81527" lon="-0.18993">
        <ele>1872.7856445312</ele>
        <time>2015-09-08T13:28:20Z</time>
      </trkpt>
      <trkpt lat="42.81517" lon="-0.18991">
        <ele>1875.1887207031</ele>
        <time>2015-09-08T13:28:37Z</time>
      </trkpt>
      <trkpt lat="42.8151" lon="-0.18996">
        <ele>1876.1501464844</ele>
        <time>2015-09-08T13:28:57Z</time>
      </trkpt>
      <trkpt lat="42.81505" lon="-0.18992">
        <ele>1878.5534667969</ele>
        <time>2015-09-08T13:29:12Z</time>
      </trkpt>
      <trkpt lat="42.81497" lon="-0.18988">
        <ele>1881.4372558594</ele>
        <time>2015-09-08T13:29:25Z</time>
      </trkpt>
      <trkpt lat="42.81489" lon="-0.18989">
        <ele>1881.91796875</ele>
        <time>2015-09-08T13:29:37Z</time>
      </trkpt>
      <trkpt lat="42.81478" lon="-0.18985">
        <ele>1882.3986816406</ele>
        <time>2015-09-08T13:29:52Z</time>
      </trkpt>
      <trkpt lat="42.81475" lon="-0.18983">
        <ele>1883.3598632812</ele>
        <time>2015-09-08T13:29:56Z</time>
      </trkpt>
      <trkpt lat="42.81466" lon="-0.18982">
        <ele>1886.244140625</ele>
        <time>2015-09-08T13:30:08Z</time>
      </trkpt>
      <trkpt lat="42.81456" lon="-0.1898">
        <ele>1886.244140625</ele>
        <time>2015-09-08T13:30:22Z</time>
      </trkpt>
      <trkpt lat="42.81444" lon="-0.18975">
        <ele>1888.6474609375</ele>
        <time>2015-09-08T13:30:38Z</time>
      </trkpt>
      <trkpt lat="42.8144" lon="-0.18973">
        <ele>1888.6474609375</ele>
        <time>2015-09-08T13:30:42Z</time>
      </trkpt>
      <trkpt lat="42.81423" lon="-0.18969">
        <ele>1890.5698242188</ele>
        <time>2015-09-08T13:31:02Z</time>
      </trkpt>
      <trkpt lat="42.81415" lon="-0.18959">
        <ele>1891.0505371094</ele>
        <time>2015-09-08T13:31:16Z</time>
      </trkpt>
      <trkpt lat="42.81407" lon="-0.18954">
        <ele>1890.0893554688</ele>
        <time>2015-09-08T13:31:31Z</time>
      </trkpt>
      <trkpt lat="42.81388" lon="-0.18949">
        <ele>1891.0505371094</ele>
        <time>2015-09-08T13:31:49Z</time>
      </trkpt>
      <trkpt lat="42.81381" lon="-0.18942">
        <ele>1892.0119628906</ele>
        <time>2015-09-08T13:32:01Z</time>
      </trkpt>
      <trkpt lat="42.81367" lon="-0.18945">
        <ele>1893.9345703125</ele>
        <time>2015-09-08T13:32:15Z</time>
      </trkpt>
      <trkpt lat="42.81356" lon="-0.18941">
        <ele>1894.4150390625</ele>
        <time>2015-09-08T13:32:30Z</time>
      </trkpt>
      <trkpt lat="42.81348" lon="-0.18935">
        <ele>1895.8571777344</ele>
        <time>2015-09-08T13:32:41Z</time>
      </trkpt>
      <trkpt lat="42.81339" lon="-0.1894">
        <ele>1896.337890625</ele>
        <time>2015-09-08T13:32:54Z</time>
      </trkpt>
      <trkpt lat="42.81327" lon="-0.18944">
        <ele>1899.2216796875</ele>
        <time>2015-09-08T13:33:10Z</time>
      </trkpt>
      <trkpt lat="42.81318" lon="-0.18945">
        <ele>1899.7023925781</ele>
        <time>2015-09-08T13:33:23Z</time>
      </trkpt>
      <trkpt lat="42.81314" lon="-0.1894">
        <ele>1900.6638183594</ele>
        <time>2015-09-08T13:33:45Z</time>
      </trkpt>
      <trkpt lat="42.81304" lon="-0.18931">
        <ele>1903.0671386719</ele>
        <time>2015-09-08T13:33:59Z</time>
      </trkpt>
      <trkpt lat="42.81288" lon="-0.18926">
        <ele>1904.5090332031</ele>
        <time>2015-09-08T13:34:18Z</time>
      </trkpt>
      <trkpt lat="42.81277" lon="-0.1892">
        <ele>1905.4704589844</ele>
        <time>2015-09-08T13:34:34Z</time>
      </trkpt>
      <trkpt lat="42.8127" lon="-0.18917">
        <ele>1906.9123535156</ele>
        <time>2015-09-08T13:34:46Z</time>
      </trkpt>
      <trkpt lat="42.81264" lon="-0.18913">
        <ele>1909.3156738281</ele>
        <time>2015-09-08T13:34:57Z</time>
      </trkpt>
      <trkpt lat="42.81255" lon="-0.18921">
        <ele>1910.7575683594</ele>
        <time>2015-09-08T13:35:06Z</time>
      </trkpt>
      <trkpt lat="42.81248" lon="-0.18918">
        <ele>1912.1994628906</ele>
        <time>2015-09-08T13:35:15Z</time>
      </trkpt>
      <trkpt lat="42.81234" lon="-0.18919">
        <ele>1915.5642089844</ele>
        <time>2015-09-08T13:35:30Z</time>
      </trkpt>
      <trkpt lat="42.81233" lon="-0.18917">
        <ele>1915.0834960938</ele>
        <time>2015-09-08T13:35:33Z</time>
      </trkpt>
      <trkpt lat="42.81227" lon="-0.18907">
        <ele>1917.4868164062</ele>
        <time>2015-09-08T13:35:45Z</time>
      </trkpt>
      <trkpt lat="42.81219" lon="-0.18899">
        <ele>1918.9289550781</ele>
        <time>2015-09-08T13:35:59Z</time>
      </trkpt>
      <trkpt lat="42.81209" lon="-0.189">
        <ele>1921.33203125</ele>
        <time>2015-09-08T13:36:11Z</time>
      </trkpt>
      <trkpt lat="42.81204" lon="-0.189">
        <ele>1921.8127441406</ele>
        <time>2015-09-08T13:36:30Z</time>
      </trkpt>
      <trkpt lat="42.81192" lon="-0.18897">
        <ele>1923.7353515625</ele>
        <time>2015-09-08T13:36:46Z</time>
      </trkpt>
      <trkpt lat="42.81177" lon="-0.18906">
        <ele>1925.1772460938</ele>
        <time>2015-09-08T13:37:04Z</time>
      </trkpt>
      <trkpt lat="42.81164" lon="-0.18909">
        <ele>1927.1000976562</ele>
        <time>2015-09-08T13:37:21Z</time>
      </trkpt>
      <trkpt lat="42.81155" lon="-0.18912">
        <ele>1930.4645996094</ele>
        <time>2015-09-08T13:37:34Z</time>
      </trkpt>
      <trkpt lat="42.81145" lon="-0.18921">
        <ele>1932.8679199219</ele>
        <time>2015-09-08T13:37:50Z</time>
      </trkpt>
      <trkpt lat="42.81142" lon="-0.18921">
        <ele>1933.3486328125</ele>
        <time>2015-09-08T13:37:54Z</time>
      </trkpt>
      <trkpt lat="42.81133" lon="-0.1892">
        <ele>1934.3100585938</ele>
        <time>2015-09-08T13:38:09Z</time>
      </trkpt>
      <trkpt lat="42.81129" lon="-0.18911">
        <ele>1934.7907714844</ele>
        <time>2015-09-08T13:38:25Z</time>
      </trkpt>
      <trkpt lat="42.81122" lon="-0.18909">
        <ele>1936.7131347656</ele>
        <time>2015-09-08T13:38:46Z</time>
      </trkpt>
      <trkpt lat="42.81121" lon="-0.18908">
        <ele>1936.7131347656</ele>
        <time>2015-09-08T13:38:48Z</time>
      </trkpt>
      <trkpt lat="42.81117" lon="-0.18892">
        <ele>1939.1164550781</ele>
        <time>2015-09-08T13:39:04Z</time>
      </trkpt>
      <trkpt lat="42.81112" lon="-0.18877">
        <ele>1940.5583496094</ele>
        <time>2015-09-08T13:39:18Z</time>
      </trkpt>
      <trkpt lat="42.81111" lon="-0.18864">
        <ele>1942.0004882812</ele>
        <time>2015-09-08T13:39:34Z</time>
      </trkpt>
      <trkpt lat="42.81116" lon="-0.18849">
        <ele>1944.8842773438</ele>
        <time>2015-09-08T13:39:51Z</time>
      </trkpt>
      <trkpt lat="42.8112" lon="-0.1884">
        <ele>1946.3264160156</ele>
        <time>2015-09-08T13:40:04Z</time>
      </trkpt>
      <trkpt lat="42.81122" lon="-0.18831">
        <ele>1947.2875976562</ele>
        <time>2015-09-08T13:40:17Z</time>
      </trkpt>
      <trkpt lat="42.81122" lon="-0.18822">
        <ele>1949.6911621094</ele>
        <time>2015-09-08T13:40:35Z</time>
      </trkpt>
      <trkpt lat="42.81117" lon="-0.18824">
        <ele>1950.65234375</ele>
        <time>2015-09-08T13:40:47Z</time>
      </trkpt>
      <trkpt lat="42.81116" lon="-0.18832">
        <ele>1951.6137695312</ele>
        <time>2015-09-08T13:41:00Z</time>
      </trkpt>
      <trkpt lat="42.81112" lon="-0.18844">
        <ele>1952.5749511719</ele>
        <time>2015-09-08T13:41:14Z</time>
      </trkpt>
      <trkpt lat="42.81108" lon="-0.18853">
        <ele>1954.0170898438</ele>
        <time>2015-09-08T13:41:31Z</time>
      </trkpt>
      <trkpt lat="42.81101" lon="-0.18856">
        <ele>1956.4201660156</ele>
        <time>2015-09-08T13:41:48Z</time>
      </trkpt>
      <trkpt lat="42.8109" lon="-0.18854">
        <ele>1958.8234863281</ele>
        <time>2015-09-08T13:42:04Z</time>
      </trkpt>
      <trkpt lat="42.81077" lon="-0.18845">
        <ele>1960.74609375</ele>
        <time>2015-09-08T13:42:24Z</time>
      </trkpt>
      <trkpt lat="42.81072" lon="-0.18843">
        <ele>1961.7075195312</ele>
        <time>2015-09-08T13:42:38Z</time>
      </trkpt>
      <trkpt lat="42.81062" lon="-0.1885">
        <ele>1962.6687011719</ele>
        <time>2015-09-08T13:42:55Z</time>
      </trkpt>
      <trkpt lat="42.81053" lon="-0.18847">
        <ele>1963.1494140625</ele>
        <time>2015-09-08T13:43:11Z</time>
      </trkpt>
      <trkpt lat="42.81038" lon="-0.18841">
        <ele>1965.072265625</ele>
        <time>2015-09-08T13:43:28Z</time>
      </trkpt>
      <trkpt lat="42.81029" lon="-0.18841">
        <ele>1966.5141601562</ele>
        <time>2015-09-08T13:43:38Z</time>
      </trkpt>
      <trkpt lat="42.81014" lon="-0.18839">
        <ele>1966.9948730469</ele>
        <time>2015-09-08T13:43:57Z</time>
      </trkpt>
      <trkpt lat="42.81002" lon="-0.18832">
        <ele>1968.9174804688</ele>
        <time>2015-09-08T13:44:12Z</time>
      </trkpt>
      <trkpt lat="42.80998" lon="-0.18823">
        <ele>1971.3205566406</ele>
        <time>2015-09-08T13:44:27Z</time>
      </trkpt>
      <trkpt lat="42.80988" lon="-0.18821">
        <ele>1970.359375</ele>
        <time>2015-09-08T13:44:44Z</time>
      </trkpt>
      <trkpt lat="42.8098" lon="-0.18814">
        <ele>1973.2434082031</ele>
        <time>2015-09-08T13:45:00Z</time>
      </trkpt>
      <trkpt lat="42.80961" lon="-0.18799">
        <ele>1971.8012695312</ele>
        <time>2015-09-08T13:45:21Z</time>
      </trkpt>
      <trkpt lat="42.80956" lon="-0.18794">
        <ele>1974.2045898438</ele>
        <time>2015-09-08T13:45:28Z</time>
      </trkpt>
      <trkpt lat="42.8095" lon="-0.18787">
        <ele>1976.1271972656</ele>
        <time>2015-09-08T13:45:39Z</time>
      </trkpt>
      <trkpt lat="42.8094" lon="-0.18785">
        <ele>1976.1271972656</ele>
        <time>2015-09-08T13:45:51Z</time>
      </trkpt>
      <trkpt lat="42.80926" lon="-0.18784">
        <ele>1978.5305175781</ele>
        <time>2015-09-08T13:46:09Z</time>
      </trkpt>
      <trkpt lat="42.8092" lon="-0.18786">
        <ele>1980.9340820312</ele>
        <time>2015-09-08T13:46:25Z</time>
      </trkpt>
      <trkpt lat="42.80909" lon="-0.1879">
        <ele>1982.8564453125</ele>
        <time>2015-09-08T13:46:42Z</time>
      </trkpt>
      <trkpt lat="42.80905" lon="-0.18789">
        <ele>1983.3371582031</ele>
        <time>2015-09-08T13:46:59Z</time>
      </trkpt>
      <trkpt lat="42.80903" lon="-0.18789">
        <ele>1983.8178710938</ele>
        <time>2015-09-08T13:47:21Z</time>
      </trkpt>
      <trkpt lat="42.80885" lon="-0.18794">
        <ele>1984.779296875</ele>
        <time>2015-09-08T13:47:40Z</time>
      </trkpt>
      <trkpt lat="42.80878" lon="-0.18799">
        <ele>1984.779296875</ele>
        <time>2015-09-08T13:47:49Z</time>
      </trkpt>
      <trkpt lat="42.80867" lon="-0.18804">
        <ele>1987.1823730469</ele>
        <time>2015-09-08T13:48:07Z</time>
      </trkpt>
      <trkpt lat="42.80855" lon="-0.18804">
        <ele>1989.1049804688</ele>
        <time>2015-09-08T13:48:26Z</time>
      </trkpt>
      <trkpt lat="42.80853" lon="-0.18798">
        <ele>1989.5856933594</ele>
        <time>2015-09-08T13:48:44Z</time>
      </trkpt>
      <trkpt lat="42.80848" lon="-0.18788">
        <ele>1991.5083007812</ele>
        <time>2015-09-08T13:49:01Z</time>
      </trkpt>
      <trkpt lat="42.80844" lon="-0.18781">
        <ele>1993.4309082031</ele>
        <time>2015-09-08T13:49:12Z</time>
      </trkpt>
      <trkpt lat="42.80836" lon="-0.18759">
        <ele>1993.4309082031</ele>
        <time>2015-09-08T13:49:32Z</time>
      </trkpt>
      <trkpt lat="42.80834" lon="-0.18741">
        <ele>1996.3151855469</ele>
        <time>2015-09-08T13:49:47Z</time>
      </trkpt>
      <trkpt lat="42.80834" lon="-0.1874">
        <ele>1996.7956542969</ele>
        <time>2015-09-08T13:49:48Z</time>
      </trkpt>
      <trkpt lat="42.80833" lon="-0.18729">
        <ele>1998.7182617188</ele>
        <time>2015-09-08T13:50:04Z</time>
      </trkpt>
      <trkpt lat="42.8083" lon="-0.18722">
        <ele>1999.1989746094</ele>
        <time>2015-09-08T13:50:23Z</time>
      </trkpt>
      <trkpt lat="42.80822" lon="-0.18707">
        <ele>2001.1215820312</ele>
        <time>2015-09-08T13:50:40Z</time>
      </trkpt>
      <trkpt lat="42.80819" lon="-0.18706">
        <ele>2001.1215820312</ele>
        <time>2015-09-08T13:50:44Z</time>
      </trkpt>
      <trkpt lat="42.80812" lon="-0.18704">
        <ele>2001.6022949219</ele>
        <time>2015-09-08T13:50:51Z</time>
      </trkpt>
      <trkpt lat="42.80804" lon="-0.18691">
        <ele>2002.5634765625</ele>
        <time>2015-09-08T13:51:03Z</time>
      </trkpt>
      <trkpt lat="42.80791" lon="-0.18671">
        <ele>2004.0056152344</ele>
        <time>2015-09-08T13:51:23Z</time>
      </trkpt>
      <trkpt lat="42.80785" lon="-0.18645">
        <ele>2003.5249023438</ele>
        <time>2015-09-08T13:51:41Z</time>
      </trkpt>
      <trkpt lat="42.80783" lon="-0.18639">
        <ele>2004.0056152344</ele>
        <time>2015-09-08T13:51:47Z</time>
      </trkpt>
      <trkpt lat="42.80769" lon="-0.18623">
        <ele>2004.4860839844</ele>
        <time>2015-09-08T13:52:04Z</time>
      </trkpt>
      <trkpt lat="42.80764" lon="-0.18617">
        <ele>2004.966796875</ele>
        <time>2015-09-08T13:52:17Z</time>
      </trkpt>
      <trkpt lat="42.80753" lon="-0.18606">
        <ele>2007.3701171875</ele>
        <time>2015-09-08T13:52:32Z</time>
      </trkpt>
      <trkpt lat="42.80746" lon="-0.18599">
        <ele>2008.8120117188</ele>
        <time>2015-09-08T13:52:44Z</time>
      </trkpt>
      <trkpt lat="42.80738" lon="-0.18589">
        <ele>2011.2153320312</ele>
        <time>2015-09-08T13:52:57Z</time>
      </trkpt>
      <trkpt lat="42.80726" lon="-0.18575">
        <ele>2013.1381835938</ele>
        <time>2015-09-08T13:53:13Z</time>
      </trkpt>
      <trkpt lat="42.8072" lon="-0.18564">
        <ele>2014.0993652344</ele>
        <time>2015-09-08T13:53:24Z</time>
      </trkpt>
      <trkpt lat="42.8072" lon="-0.18564">
        <ele>2014.580078125</ele>
        <time>2015-09-08T13:53:33Z</time>
      </trkpt>
      <trkpt lat="42.80713" lon="-0.18548">
        <ele>2015.5415039062</ele>
        <time>2015-09-08T13:53:49Z</time>
      </trkpt>
      <trkpt lat="42.80705" lon="-0.18534">
        <ele>2018.4252929688</ele>
        <time>2015-09-08T13:54:08Z</time>
      </trkpt>
      <trkpt lat="42.80702" lon="-0.18525">
        <ele>2020.8286132812</ele>
        <time>2015-09-08T13:54:21Z</time>
      </trkpt>
      <trkpt lat="42.80702" lon="-0.18519">
        <ele>2020.3479003906</ele>
        <time>2015-09-08T13:54:25Z</time>
      </trkpt>
      <trkpt lat="42.80702" lon="-0.18518">
        <ele>2020.8286132812</ele>
        <time>2015-09-08T13:54:37Z</time>
      </trkpt>
      <trkpt lat="42.807" lon="-0.18511">
        <ele>2021.7897949219</ele>
        <time>2015-09-08T13:54:44Z</time>
      </trkpt>
      <trkpt lat="42.80698" lon="-0.18494">
        <ele>2022.7512207031</ele>
        <time>2015-09-08T13:54:57Z</time>
      </trkpt>
      <trkpt lat="42.80701" lon="-0.18482">
        <ele>2022.7512207031</ele>
        <time>2015-09-08T13:55:08Z</time>
      </trkpt>
      <trkpt lat="42.80698" lon="-0.1847">
        <ele>2025.154296875</ele>
        <time>2015-09-08T13:55:20Z</time>
      </trkpt>
      <trkpt lat="42.80695" lon="-0.18459">
        <ele>2027.0771484375</ele>
        <time>2015-09-08T13:55:31Z</time>
      </trkpt>
      <trkpt lat="42.80693" lon="-0.18451">
        <ele>2028.0385742188</ele>
        <time>2015-09-08T13:55:38Z</time>
      </trkpt>
      <trkpt lat="42.8069" lon="-0.18439">
        <ele>2028.9997558594</ele>
        <time>2015-09-08T13:55:49Z</time>
      </trkpt>
      <trkpt lat="42.80683" lon="-0.18427">
        <ele>2029.9611816406</ele>
        <time>2015-09-08T13:55:59Z</time>
      </trkpt>
      <trkpt lat="42.80678" lon="-0.1842">
        <ele>2030.9226074219</ele>
        <time>2015-09-08T13:56:10Z</time>
      </trkpt>
      <trkpt lat="42.80673" lon="-0.18411">
        <ele>2031.8837890625</ele>
        <time>2015-09-08T13:56:21Z</time>
      </trkpt>
      <trkpt lat="42.80675" lon="-0.18413">
        <ele>2031.8837890625</ele>
        <time>2015-09-08T13:56:40Z</time>
      </trkpt>
      <trkpt lat="42.80672" lon="-0.18404">
        <ele>2034.287109375</ele>
        <time>2015-09-08T13:56:52Z</time>
      </trkpt>
      <trkpt lat="42.80671" lon="-0.18402">
        <ele>2034.287109375</ele>
        <time>2015-09-08T13:57:26Z</time>
      </trkpt>
      <trkpt lat="42.80669" lon="-0.18403">
        <ele>2033.3256835938</ele>
        <time>2015-09-08T13:57:40Z</time>
      </trkpt>
      <trkpt lat="42.80666" lon="-0.18406">
        <ele>2033.8063964844</ele>
        <time>2015-09-08T13:57:57Z</time>
      </trkpt>
      <trkpt lat="42.80674" lon="-0.18412">
        <ele>2034.7678222656</ele>
        <time>2015-09-08T13:58:19Z</time>
      </trkpt>
      <trkpt lat="42.80664" lon="-0.18414">
        <ele>2032.3645019531</ele>
        <time>2015-09-08T13:58:34Z</time>
      </trkpt>
      <trkpt lat="42.80657" lon="-0.18408">
        <ele>2031.8837890625</ele>
        <time>2015-09-08T13:58:50Z</time>
      </trkpt>
      <trkpt lat="42.8065" lon="-0.18399">
        <ele>2032.8449707031</ele>
        <time>2015-09-08T13:59:05Z</time>
      </trkpt>
      <trkpt lat="42.80643" lon="-0.18391">
        <ele>2034.287109375</ele>
        <time>2015-09-08T13:59:20Z</time>
      </trkpt>
      <trkpt lat="42.80631" lon="-0.18384">
        <ele>2034.287109375</ele>
        <time>2015-09-08T13:59:36Z</time>
      </trkpt>
      <trkpt lat="42.80622" lon="-0.18382">
        <ele>2035.7290039062</ele>
        <time>2015-09-08T13:59:50Z</time>
      </trkpt>
      <trkpt lat="42.80614" lon="-0.18378">
        <ele>2037.1708984375</ele>
        <time>2015-09-08T14:00:05Z</time>
      </trkpt>
      <trkpt lat="42.80605" lon="-0.18386">
        <ele>2037.1708984375</ele>
        <time>2015-09-08T14:00:21Z</time>
      </trkpt>
      <trkpt lat="42.80599" lon="-0.18382">
        <ele>2036.6901855469</ele>
        <time>2015-09-08T14:00:34Z</time>
      </trkpt>
      <trkpt lat="42.80587" lon="-0.18376">
        <ele>2039.0935058594</ele>
        <time>2015-09-08T14:00:51Z</time>
      </trkpt>
      <trkpt lat="42.80588" lon="-0.18376">
        <ele>2037.1708984375</ele>
        <time>2015-09-08T14:00:59Z</time>
      </trkpt>
      <trkpt lat="42.80587" lon="-0.18376">
        <ele>2040.0549316406</ele>
        <time>2015-09-08T14:01:01Z</time>
      </trkpt>
      <trkpt lat="42.80587" lon="-0.18376">
        <ele>2039.0935058594</ele>
        <time>2015-09-08T14:01:02Z</time>
      </trkpt>
      <trkpt lat="42.80586" lon="-0.18375">
        <ele>2037.6516113281</ele>
        <time>2015-09-08T14:01:53Z</time>
      </trkpt>
      <trkpt lat="42.80587" lon="-0.18376">
        <ele>2040.0549316406</ele>
        <time>2015-09-08T14:09:56Z</time>
      </trkpt>
      <trkpt lat="42.80591" lon="-0.18381">
        <ele>2038.6130371094</ele>
        <time>2015-09-08T14:10:13Z</time>
      </trkpt>
      <trkpt lat="42.80593" lon="-0.18391">
        <ele>2037.1708984375</ele>
        <time>2015-09-08T14:10:28Z</time>
      </trkpt>
      <trkpt lat="42.8059" lon="-0.18394">
        <ele>2036.6901855469</ele>
        <time>2015-09-08T14:10:43Z</time>
      </trkpt>
      <trkpt lat="42.80586" lon="-0.18395">
        <ele>2038.1323242188</ele>
        <time>2015-09-08T14:10:57Z</time>
      </trkpt>
      <trkpt lat="42.8058" lon="-0.18397">
        <ele>2038.6130371094</ele>
        <time>2015-09-08T14:11:12Z</time>
      </trkpt>
      <trkpt lat="42.80575" lon="-0.18404">
        <ele>2040.0549316406</ele>
        <time>2015-09-08T14:11:24Z</time>
      </trkpt>
      <trkpt lat="42.80563" lon="-0.18414">
        <ele>2041.9775390625</ele>
        <time>2015-09-08T14:11:43Z</time>
      </trkpt>
      <trkpt lat="42.80555" lon="-0.1842">
        <ele>2042.9387207031</ele>
        <time>2015-09-08T14:11:55Z</time>
      </trkpt>
      <trkpt lat="42.80539" lon="-0.18421">
        <ele>2043.9001464844</ele>
        <time>2015-09-08T14:12:13Z</time>
      </trkpt>
      <trkpt lat="42.80536" lon="-0.18423">
        <ele>2044.380859375</ele>
        <time>2015-09-08T14:12:28Z</time>
      </trkpt>
      <trkpt lat="42.80536" lon="-0.18423">
        <ele>2044.8615722656</ele>
        <time>2015-09-08T14:12:51Z</time>
      </trkpt>
      <trkpt lat="42.80536" lon="-0.18423">
        <ele>2043.9001464844</ele>
        <time>2015-09-08T14:12:52Z</time>
      </trkpt>
    </trkseg>
  </trk>
</gpx>